[[{"header":{"parameterUnit":"m.s-1","parameterCategory":1,"la1":30.6,"la2":28.766,"lo1":-90.7593,"lo2":-88.6598,"dy":0.0162,"dx":0.0183,"nx":116,"ny":114,"refTime":"2023-06-04T06:00:00:Z","depth":0,"parameterNumber":2,"parameterNumberName":"U-component_of_WINDS"},"data":[0.0,0.0,0.0,0.0,0.0,0.0,0.0,0.0,0.0,0.0,0.0,0.0,0.0,0.0,0.0,0.0,0.0,0.0,0.0,0.0,0.0,0.0,0.0,0.0,0.0,0.0,0.0,0.0,0.0,0.0,0.0,0.0,0.0,0.0,0.0,0.0,0.0,0.0,0.0,0.0,0.0,0.0,0.0,0.0,0.0,0.0,0.0,0.0,0.0,0.0,0.0,0.0,0.0,0.0,0.0,0.0,0.0,0.0,0.0,0.0,0.0,0.0,0.0,0.0,0.0,0.0,0.0,0.0,0.0,0.0,0.0,0.0,0.0,0.0,0.0,0.0,0.0,0.0,0.0,0.0,0.0,0.0,0.0,0.0,0.0,0.0,0.0,0.0,0.0,0.0,0.0,0.0,0.0,0.0,0.0,0.0,0.0,0.0,0.0,0.0,0.0,0.0,0.0,0.0,0.0,0.0,0.0,0.0,0.0,0.0,0.0,0.0,0.0,0.0,0.0,0.0,0.0,0.0,0.0,0.0,0.0,0.0,0.0,0.0,0.0,0.0,0.0,0.0,0.0,0.0,0.0,0.0,0.0,0.0,0.0,0.0,0.0,0.0,0.0,0.0,0.0,0.0,0.0,0.0,0.0,0.0,0.0,0.0,0.0,0.0,0.0,0.0,0.0,0.0,0.0,0.0,0.0,0.0,0.0,0.0,0.0,0.0,0.0,0.0,0.0,0.0,0.0,0.0,0.0,0.0,0.0,0.0,0.0,0.0,0.0,0.0,0.0,0.0,0.0,0.0,0.0,0.0,0.0,0.0,0.0,0.0,0.0,0.0,0.0,0.0,0.0,0.0,0.0,0.0,0.0,0.0,0.0,0.0,0.0,0.0,0.0,0.0,0.0,0.0,0.0,0.0,0.0,0.0,0.0,0.0,0.0,0.0,0.0,0.0,0.0,0.0,0.0,0.0,0.0,0.0,0.0,0.0,0.0,0.0,0.0,0.0,0.0,0.0,0.0,0.0,0.0,0.0,0.0,0.0,0.0,0.0,0.0,0.0,0.0,0.0,0.0,0.0,0.0,0.0,0.0,0.0,0.0,0.0,0.0,0.0,0.0,0.0,0.0,0.0,0.0,0.0,0.0,0.0,0.0,0.0,0.0,0.0,0.0,0.0,0.0,0.0,0.0,0.0,0.0,0.0,0.0,0.0,0.0,0.0,0.0,0.0,0.0,0.0,0.0,0.0,0.0,0.0,0.0,0.0,0.0,0.0,0.0,0.0,0.0,0.0,0.0,0.0,0.0,0.0,0.0,0.0,0.0,0.0,0.0,0.0,0.0,0.0,0.0,0.0,0.0,0.0,0.0,0.0,0.0,0.0,0.0,0.0,0.0,0.0,0.0,0.0,0.0,0.0,0.0,0.0,0.0,0.0,0.0,0.0,0.0,0.0,0.0,0.0,0.0,0.0,0.0,0.0,0.0,0.0,0.0,0.0,0.0,0.0,0.0,0.0,0.0,0.0,0.0,0.0,0.0,0.0,0.0,0.0,0.0,0.0,0.0,0.0,0.0,0.0,0.0,0.0,0.0,0.0,0.0,0.0,0.0,0.0,0.0,0.0,0.0,0.0,0.0,0.0,0.0,0.0,0.0,0.0,0.0,0.0,0.0,0.0,0.0,0.0,0.0,0.0,0.0,0.0,0.0,0.0,0.0,0.0,0.0,0.0,0.0,0.0,0.0,0.0,0.0,0.0,0.0,0.0,0.0,0.0,0.0,0.0,0.0,0.0,0.0,0.0,0.0,0.0,0.0,0.0,0.0,0.0,0.0,0.0,0.0,0.0,0.0,0.0,0.0,0.0,0.0,0.0,0.0,0.0,0.0,0.0,0.0,0.0,0.0,0.0,0.0,0.0,0.0,0.0,0.0,0.0,0.0,0.0,0.0,0.0,0.0,0.0,0.0,0.0,0.0,0.0,0.0,0.0,0.0,0.0,0.0,0.0,0.0,0.0,0.0,0.0,0.0,0.0,0.0,0.0,0.0,0.0,0.0,0.0,0.0,0.0,0.0,0.0,0.0,0.0,0.0,0.0,0.0,0.0,0.0,0.0,0.0,0.0,0.0,0.0,0.0,0.0,0.0,0.0,0.0,0.0,0.0,0.0,0.0,0.0,0.0,0.0,0.0,0.0,0.0,0.0,0.0,0.0,0.0,0.0,0.0,0.0,0.0,0.0,0.0,0.0,0.0,0.0,0.0,0.0,0.0,0.0,0.0,0.0,0.0,0.0,0.0,0.0,0.0,0.0,0.0,0.0,0.0,0.0,0.0,0.0,0.0,0.0,0.0,0.0,0.0,0.0,0.0,0.0,0.0,0.0,0.0,0.0,0.0,0.0,0.0,0.0,0.0,0.0,0.0,0.0,0.0,0.0,0.0,0.0,0.0,0.0,0.0,0.0,0.0,0.0,0.0,0.0,0.0,0.0,0.0,0.0,0.0,0.0,0.0,0.0,0.0,0.0,0.0,0.0,0.0,0.0,0.0,0.0,0.0,0.0,0.0,0.0,0.0,0.0,0.0,0.0,0.0,0.0,0.0,0.0,0.0,0.0,0.0,0.0,0.0,0.0,0.0,0.0,0.0,0.0,0.0,0.0,0.0,0.0,0.0,0.0,0.0,0.0,0.0,0.0,0.0,0.0,0.0,0.0,0.0,0.0,0.0,0.0,0.0,0.0,0.0,0.0,0.0,0.0,0.0,0.0,0.0,0.0,0.0,0.0,0.0,0.0,0.0,0.0,0.0,0.0,0.0,0.0,0.0,0.0,0.0,0.0,0.0,0.0,0.0,0.0,0.0,0.0,0.0,0.0,0.0,0.0,0.0,0.0,0.0,0.0,0.0,0.0,0.0,0.0,0.0,0.0,0.0,0.0,0.0,0.0,0.0,0.0,0.0,0.0,0.0,0.0,0.0,0.0,0.0,0.0,0.0,0.0,0.0,0.0,0.0,0.0,0.0,0.0,0.0,0.0,0.0,0.0,0.0,0.0,0.0,0.0,0.0,0.0,0.0,0.0,0.0,0.0,0.0,0.0,0.0,0.0,0.0,0.0,0.0,0.0,0.0,0.0,0.0,0.0,0.0,0.0,0.0,0.0,0.0,0.0,0.0,0.0,0.0,0.0,0.0,0.0,0.0,0.0,0.0,0.0,0.0,0.0,0.0,0.0,0.0,0.0,0.0,0.0,0.0,0.0,0.0,0.0,0.0,0.0,0.0,0.0,0.0,0.0,0.0,0.0,0.0,0.0,0.0,0.0,0.0,0.0,0.0,0.0,0.0,0.0,0.0,0.0,0.0,0.0,0.0,0.0,0.0,0.0,0.0,0.0,0.0,0.0,0.0,0.0,0.0,0.0,0.0,0.0,0.0,0.0,0.0,0.0,0.0,0.0,0.0,0.0,0.0,0.0,0.0,0.0,0.0,0.0,0.0,0.0,0.0,0.0,0.0,0.0,0.0,0.0,0.0,0.0,0.0,0.0,0.0,0.0,0.0,0.0,0.0,0.0,0.0,0.0,0.0,0.0,0.0,0.0,0.0,0.0,0.0,0.0,0.0,0.0,0.0,0.0,0.0,0.0,0.0,0.0,0.0,0.0,0.0,0.0,0.0,0.0,0.0,0.0,0.0,0.0,0.0,0.0,0.0,0.0,0.0,0.0,0.0,0.0,0.0,0.0,0.0,0.0,0.0,0.0,0.0,0.0,0.0,0.0,0.0,0.0,0.0,0.0,0.0,0.0,0.0,0.0,0.0,0.0,0.0,0.0,0.0,0.0,0.0,0.0,0.0,0.0,0.0,0.0,0.0,0.0,0.0,0.0,0.0,0.0,0.0,0.0,0.0,0.0,0.0,0.0,0.0,0.0,0.0,0.0,0.0,0.0,0.0,0.0,0.0,0.0,0.0,0.0,0.0,0.0,0.0,0.0,0.0,0.0,0.0,0.0,0.0,0.0,0.0,0.0,0.0,0.0,0.0,0.0,0.0,0.0,0.0,0.0,0.0,0.0,0.0,0.0,0.0,0.0,0.0,0.0,0.0,0.0,0.0,0.0,0.0,0.0,0.0,0.0,0.0,0.0,0.0,0.0,0.0,0.0,0.0,0.0,0.0,0.0,0.0,0.0,0.0,0.0,0.0,0.0,0.0,0.0,0.0,0.0,0.0,0.0,0.0,0.0,0.0,0.0,0.0,0.0,0.0,0.0,0.0,0.0,0.0,0.0,0.0,0.0,0.0,0.0,0.0,0.0,0.0,0.0,0.0,0.0,0.0,0.0,0.0,0.0,0.0,0.0,0.0,0.0,0.0,0.0,0.0,0.0,0.0,0.0,0.0,0.0,0.0,0.0,0.0,0.0,0.0,0.0,0.0,0.0,0.0,0.0,0.0,0.0,0.0,0.0,0.0,0.0,0.0,0.0,0.0,0.0,0.0,0.0,0.0,0.0,0.0,0.0,0.0,0.0,0.0,0.0,0.0,0.0,0.0,0.0,0.0,0.0,0.0,0.0,0.0,0.0,0.0,0.0,0.0,0.0,0.0,0.0,0.0,0.0,0.0,0.0,0.0,0.0,0.0,0.0,0.0,0.0,0.0,0.0,0.0,0.0,0.0,0.0,0.0,0.0,0.0,0.0,0.0,0.0,0.0,0.0,0.0,0.0,0.0,0.0,0.0,0.0,0.0,0.0,0.0,0.0,0.0,0.0,0.0,0.0,0.0,0.0,0.0,0.0,0.0,0.0,0.0,0.0,0.0,0.0,0.0,0.0,0.0,0.0,0.0,0.0,0.0,0.0,0.0,0.0,0.0,0.0,0.0,0.0,0.0,0.0,0.0,0.0,0.0,0.0,0.0,0.0,0.0,0.0,0.0,0.0,0.0,0.0,0.0,0.0,0.0,0.0,0.0,0.0,0.0,0.0,0.0,0.0,0.0,0.0,0.0,0.0,0.0,0.0,0.0,0.0,0.0,0.0,0.0,0.0,0.0,0.0,0.0,0.0,0.0,0.0,0.0,0.0,0.0,0.0,0.0,0.0,0.0,0.0,0.0,0.0,0.0,0.0,0.0,0.0,0.0,0.0,0.0,0.0,0.0,0.0,0.0,0.0,0.0,0.0,0.0,0.0,0.0,0.0,0.0,0.0,0.0,0.0,0.0,0.0,0.0,0.0,0.0,0.0,0.0,0.0,0.0,0.0,0.0,0.0,0.0,0.0,0.0,0.0,0.0,0.0,0.0,0.0,0.0,0.0,0.0,0.0,0.0,0.0,0.0,0.0,0.0,0.0,0.0,0.0,0.0,0.0,0.0,0.0,0.0,0.0,0.0,0.0,0.0,0.0,0.0,0.0,0.0,0.0,0.0,0.0,0.0,0.0,0.0,0.0,0.0,0.0,0.0,0.0,0.0,0.0,0.0,0.0,0.0,0.0,0.0,0.0,0.0,0.0,0.0,0.0,0.0,0.0,0.0,0.0,0.0,0.0,0.0,0.0,0.0,0.0,0.0,0.0,0.0,0.0,0.0,0.0,0.0,0.0,0.0,0.0,0.0,0.0,0.0,0.0,0.0,0.0,0.0,0.0,0.0,0.0,0.0,0.0,0.0,0.0,0.0,0.0,0.0,0.0,0.0,0.0,0.0,0.0,0.0,0.0,0.0,0.0,0.0,0.0,0.0,0.0,0.0,0.0,0.0,0.0,0.0,0.0,0.0,0.0,0.0,0.0,0.0,0.0,0.0,0.0,0.0,0.0,0.0,0.0,0.0,0.0,0.0,0.0,0.0,0.0,0.0,0.0,0.0,0.0,0.0,0.0,0.0,0.0,0.0,0.0,0.0,0.0,0.0,0.0,0.0,0.0,0.0,0.0,0.0,0.0,0.0,0.0,0.0,0.0,0.0,0.0,0.0,0.0,0.0,0.0,0.0,0.0,0.0,0.0,0.0,0.0,0.0,0.0,0.0,0.0,0.0,0.0,0.0,0.0,0.0,0.0,0.0,0.0,0.0,0.0,0.0,0.0,0.0,0.0,0.0,0.0,0.0,0.0,0.0,0.0,0.0,0.0,0.0,0.0,0.0,0.0,0.0,0.0,0.0,0.0,-3.1018,-3.0568,0.0,0.0,0.0,0.0,0.0,0.0,0.0,0.0,0.0,0.0,0.0,0.0,0.0,0.0,0.0,0.0,0.0,0.0,0.0,0.0,0.0,0.0,0.0,0.0,0.0,0.0,0.0,0.0,0.0,0.0,0.0,0.0,0.0,0.0,0.0,0.0,0.0,0.0,-2.461,-2.3767,-2.3471,-2.3185,-2.3078,-2.309,0.0,0.0,0.0,0.0,0.0,0.0,0.0,0.0,0.0,0.0,0.0,0.0,0.0,0.0,0.0,0.0,0.0,0.0,0.0,0.0,0.0,0.0,0.0,0.0,0.0,0.0,0.0,0.0,0.0,0.0,0.0,0.0,0.0,0.0,0.0,0.0,0.0,0.0,0.0,0.0,0.0,0.0,0.0,0.0,0.0,0.0,0.0,0.0,0.0,0.0,0.0,0.0,0.0,0.0,0.0,0.0,0.0,0.0,0.0,0.0,0.0,0.0,0.0,0.0,0.0,0.0,0.0,0.0,0.0,0.0,-3.1801,-3.1511,0.0,0.0,0.0,0.0,0.0,0.0,0.0,0.0,0.0,0.0,0.0,0.0,0.0,0.0,0.0,0.0,0.0,0.0,0.0,0.0,0.0,0.0,0.0,0.0,-2.6534,-2.619,-2.6481,-2.6534,0.0,0.0,0.0,0.0,0.0,0.0,0.0,-2.5439,-2.5632,-2.6404,-2.4768,-2.3695,-2.3078,-2.3078,-2.3078,-2.3078,-2.3078,0.0,0.0,0.0,0.0,0.0,0.0,0.0,0.0,0.0,0.0,0.0,0.0,0.0,0.0,0.0,0.0,0.0,0.0,0.0,0.0,0.0,0.0,0.0,0.0,0.0,0.0,0.0,0.0,0.0,0.0,0.0,0.0,0.0,0.0,0.0,0.0,0.0,0.0,0.0,0.0,0.0,0.0,0.0,0.0,0.0,0.0,0.0,0.0,0.0,0.0,0.0,0.0,0.0,0.0,0.0,0.0,0.0,0.0,0.0,0.0,0.0,0.0,0.0,-3.2676,-3.2747,-3.3214,-3.2981,-3.2919,-3.3021,-3.3021,-3.2817,-3.2513,-3.2513,0.0,0.0,0.0,0.0,0.0,0.0,0.0,0.0,0.0,0.0,0.0,0.0,0.0,0.0,0.0,0.0,0.0,0.0,0.0,0.0,0.0,-2.639,-2.6707,-2.7093,-2.6834,-2.6678,0.0,0.0,0.0,0.0,0.0,0.0,-2.6974,-2.5962,-2.5867,-2.6712,-2.5467,-2.4266,-2.3078,-2.3078,-2.3078,-2.3078,-2.3078,-2.3115,-2.3178,0.0,0.0,0.0,0.0,0.0,0.0,0.0,0.0,0.0,0.0,0.0,0.0,0.0,0.0,0.0,0.0,0.0,0.0,0.0,0.0,0.0,0.0,0.0,0.0,0.0,0.0,0.0,0.0,0.0,0.0,0.0,0.0,0.0,0.0,0.0,0.0,0.0,0.0,0.0,0.0,0.0,-3.4899,-3.4899,0.0,0.0,0.0,0.0,0.0,0.0,0.0,0.0,0.0,0.0,0.0,0.0,0.0,-3.4169,-3.351,-3.3335,-3.3198,-3.3151,-3.2708,-3.2867,-3.3485,-3.3906,-3.4472,-3.4994,-3.4994,0.0,-3.2513,-3.2513,0.0,0.0,0.0,0.0,0.0,0.0,0.0,0.0,0.0,0.0,0.0,0.0,0.0,0.0,0.0,0.0,0.0,0.0,0.0,0.0,0.0,-2.7414,-2.77,-2.7449,-2.7784,-2.7784,-2.7195,-2.7144,0.0,0.0,0.0,-2.615,-2.6669,-2.5907,-2.5481,-2.5536,-2.4964,-2.4163,-2.3078,-2.3078,-2.3078,-2.3078,-2.3078,-2.3078,-2.3078,-2.2359,0.0,0.0,0.0,0.0,0.0,0.0,0.0,0.0,0.0,0.0,0.0,0.0,0.0,0.0,0.0,0.0,0.0,0.0,0.0,0.0,0.0,0.0,0.0,0.0,0.0,0.0,0.0,0.0,0.0,0.0,0.0,0.0,0.0,0.0,0.0,0.0,0.0,0.0,0.0,-3.4899,-3.4899,-3.4899,-3.4899,-3.4899,0.0,0.0,0.0,0.0,0.0,0.0,0.0,0.0,0.0,-3.4903,-3.4749,-3.4435,-3.3979,-3.394,-3.3936,-3.39,-3.4068,-3.4457,-3.5067,-3.5357,-3.5633,-3.5894,-3.5894,-3.5415,-3.4588,-3.3877,-3.3587,-3.3572,0.0,0.0,0.0,0.0,-3.3645,-3.3864,0.0,0.0,0.0,0.0,0.0,0.0,0.0,0.0,0.0,0.0,0.0,0.0,-2.7195,-2.8207,-2.8638,-2.8079,-2.8685,-2.8779,-2.7947,-2.783,0.0,0.0,-2.6811,-2.6351,-2.6496,-2.6002,-2.5342,-2.4637,-2.4794,-2.4337,-2.3365,-2.3365,-2.3245,-2.3078,-2.3078,-2.3005,-2.2811,-2.2113,-2.1791,-2.1542,0.0,0.0,0.0,0.0,0.0,0.0,0.0,0.0,0.0,0.0,0.0,0.0,0.0,0.0,0.0,0.0,0.0,0.0,0.0,0.0,0.0,0.0,0.0,0.0,0.0,0.0,0.0,0.0,0.0,0.0,0.0,0.0,0.0,0.0,0.0,0.0,0.0,-3.4899,-3.4899,-3.4899,-3.4899,-3.4899,0.0,0.0,0.0,0.0,0.0,0.0,-3.4955,-3.5313,-3.5448,-3.5133,-3.5117,-3.4852,-3.4395,-3.4625,-3.4809,-3.4907,-3.5372,-3.5851,-3.6315,-3.6489,-3.6562,-3.6562,-3.6562,-3.6562,-3.6475,-3.5357,-3.4893,-3.4893,-3.4766,-3.4737,-3.4723,-3.447,-3.4611,-3.4893,0.0,0.0,0.0,0.0,0.0,0.0,0.0,0.0,0.0,0.0,0.0,-2.6293,-2.759,-2.8321,-2.8904,-2.9435,-2.9241,-2.9074,-2.9028,-2.8605,-2.8348,-2.8348,-2.7745,-2.7312,-2.7071,-2.6549,-2.5865,-2.4948,-2.5564,-2.5203,-2.4073,-2.4073,-2.3721,-2.3078,-2.3078,-2.275,-2.2113,-2.1428,-2.0869,-2.042,-1.9518,0.0,0.0,0.0,0.0,0.0,0.0,0.0,0.0,0.0,0.0,0.0,0.0,0.0,0.0,0.0,0.0,0.0,0.0,0.0,0.0,0.0,0.0,0.0,0.0,0.0,0.0,0.0,0.0,0.0,0.0,0.0,0.0,0.0,0.0,0.0,0.0,0.0,0.0,-3.4899,-3.4899,0.0,0.0,0.0,0.0,-3.4899,-3.5545,-3.5663,-3.504,-3.6252,-3.6157,-3.4235,-3.513,-3.5278,-3.4603,-3.5073,-3.5645,-3.6214,-3.6243,-3.6272,-3.633,-3.6968,-3.7259,-3.7259,-3.7259,-3.7259,-3.7201,-3.6504,-3.6214,-3.6185,-3.5769,-3.5611,-3.5553,-3.4683,-3.5153,-3.6214,0.0,0.0,0.0,0.0,0.0,0.0,0.0,0.0,-2.4624,-2.5453,-2.6068,-2.6886,-2.8225,-2.8841,-2.9271,-2.9556,-2.9865,-2.9821,-2.9438,-2.9044,-2.8873,-2.8873,-2.7963,-2.7108,-2.6351,-2.5948,-2.5522,-2.5005,-2.537,-2.5077,-2.4131,-2.4131,-2.3721,-2.3078,-2.3078,-2.2506,-2.1439,-2.1187,-2.0741,-2.0161,-1.9396,-1.9131,0.0,0.0,0.0,0.0,0.0,0.0,0.0,0.0,0.0,0.0,0.0,0.0,0.0,0.0,0.0,0.0,0.0,0.0,0.0,0.0,0.0,0.0,0.0,0.0,0.0,0.0,0.0,0.0,0.0,0.0,0.0,0.0,0.0,0.0,0.0,0.0,0.0,-3.4899,-3.4899,0.0,-3.4899,-3.533,-3.5611,-3.5611,-3.5891,-3.5958,-3.5732,-3.5864,-3.5676,-3.5105,-3.5937,-3.6099,-3.5592,-3.6202,-3.6655,-3.6954,-3.6954,-3.7157,-3.7535,-3.7781,-3.7883,-3.7883,-3.7883,-3.7883,-3.7868,-3.7622,-3.7041,-3.6301,-3.6142,-3.6286,-3.6488,-3.6171,-3.6344,-3.6777,0.0,0.0,0.0,0.0,0.0,0.0,0.0,0.0,-2.5216,-2.5742,-2.6481,-2.75,-2.881,-2.9316,-2.9733,-3.0054,-3.014,-3.0081,-2.9837,-2.9227,-2.8904,-2.9074,-2.7898,-2.6797,-2.5893,-2.5757,-2.5536,-2.5286,-2.5701,-2.5356,-2.4408,-2.4408,-2.3943,-2.3078,-2.3078,-2.2384,-2.1135,-2.1244,-2.0786,-1.9835,-1.933,-1.9121,-1.9233,0.0,0.0,0.0,0.0,0.0,0.0,0.0,0.0,0.0,0.0,0.0,0.0,0.0,0.0,0.0,0.0,0.0,0.0,0.0,0.0,0.0,0.0,0.0,0.0,0.0,0.0,0.0,0.0,0.0,0.0,0.0,0.0,0.0,0.0,-3.4899,-3.4899,-3.4899,-3.4899,-3.4998,-3.5247,-3.5711,-3.6108,-3.6357,-3.6645,-3.6722,-3.6476,-3.6467,-3.6313,-3.5984,-3.6572,-3.6797,-3.6541,-3.6998,-3.7329,-3.7607,-3.7607,-3.7825,-3.8202,-3.8202,-3.8202,-3.8202,-3.8202,-3.8202,-3.8202,-3.8202,-3.7709,-3.6939,-3.6939,-3.7128,-3.7419,-3.7419,-3.7419,-3.7419,0.0,0.0,0.0,0.0,0.0,0.0,0.0,-2.4221,-2.5216,-2.5783,-2.6805,-2.8,-2.93,-2.9777,-3.0284,-3.0935,-3.0156,-2.9837,-3.0293,-2.9136,-2.8621,-2.909,-2.7585,-2.6481,-2.5948,-2.5948,-2.5893,-2.5893,-2.65,-2.6204,-2.5007,-2.5007,-2.4323,-2.3078,-2.3078,-2.2384,-2.1146,-2.1614,-2.0865,-1.9354,-1.9198,-1.9253,-1.942,0.0,0.0,0.0,0.0,0.0,0.0,0.0,0.0,0.0,0.0,0.0,0.0,0.0,0.0,0.0,0.0,0.0,0.0,0.0,0.0,0.0,0.0,0.0,0.0,0.0,0.0,0.0,0.0,0.0,0.0,0.0,0.0,0.0,-3.4899,-3.4899,-3.4899,-3.4899,-3.4916,-3.5214,-3.5926,-3.6042,-3.6357,-3.7085,-3.7779,-3.7949,-3.729,-3.8209,-3.8158,-3.6888,-3.7223,-3.7367,-3.7361,-3.7331,-3.7636,-3.8202,-3.8202,-3.8202,-3.8202,-3.8202,-3.8202,-3.8202,-3.8202,-3.8202,-3.8202,-3.8202,-3.8202,-3.8202,-3.8202,-3.8202,-3.8202,-3.8202,-3.8202,-3.8202,0.0,0.0,0.0,0.0,0.0,0.0,0.0,-2.45,-2.5932,-2.6909,-2.762,-2.856,-2.9761,-2.9968,-3.0241,-3.0855,-3.0716,-3.0634,-3.0733,-2.9897,-2.9182,-2.8621,-2.773,-2.7056,-2.6481,-2.6457,-2.6312,-2.5893,-2.65,-2.6204,-2.5007,-2.5007,-2.4323,-2.3078,-2.3078,-2.2518,-2.1614,-2.1354,-2.0506,-1.9233,-1.947,-1.9428,-1.9225,0.0,0.0,0.0,0.0,0.0,0.0,0.0,0.0,0.0,0.0,0.0,0.0,0.0,0.0,0.0,0.0,0.0,0.0,0.0,0.0,0.0,0.0,0.0,0.0,0.0,0.0,0.0,0.0,0.0,0.0,0.0,-3.4899,-3.4899,-3.4899,-3.4899,-3.4899,-3.4899,-3.5363,-3.5777,-3.5976,-3.6986,-3.7698,-3.7897,-3.8154,-3.8186,-3.8003,-3.8338,-3.8328,-3.7857,-3.8583,-3.8763,-3.8277,-3.8513,-3.8488,-3.8202,-3.8202,-3.8202,-3.8202,-3.8202,-3.8202,-3.8202,-3.8202,-3.8202,-3.8202,-3.8202,-3.8202,-3.8202,-3.8202,-3.8202,-3.8202,-3.8202,-3.8202,-3.8202,0.0,0.0,0.0,0.0,0.0,0.0,0.0,-2.4896,-2.6133,-2.6923,-2.7981,-2.9012,-2.9717,-3.0054,-3.0384,-3.0871,-3.0773,-3.0733,-3.0952,-3.0241,-2.9257,-2.8057,-2.768,-2.7144,-2.639,-2.6563,-2.6418,-2.5893,-2.65,-2.6204,-2.5007,-2.5007,-2.4323,-2.3078,-2.3078,-2.2604,-2.1773,-2.1078,-2.018,-1.9128,-1.9526,-1.9438,-1.9114,-1.9615,-1.9649,-1.9433,-1.964,-1.9843,-2.0534,-2.3232,0.0,0.0,0.0,0.0,0.0,0.0,0.0,0.0,0.0,0.0,0.0,0.0,0.0,0.0,0.0,0.0,0.0,0.0,0.0,0.0,0.0,0.0,0.0,0.0,-3.4899,-3.4899,-3.4899,-3.4899,-3.5015,-3.5313,-3.5744,-3.6241,-3.687,-3.7715,-3.8344,-3.8642,-3.8668,-3.8717,-3.8717,-3.8933,-3.8962,-3.8792,-3.9305,-3.9351,-3.8822,-3.8736,-3.8575,-3.8202,-3.8202,-3.8202,-3.8202,-3.8202,-3.8202,-3.8202,-3.8202,-3.8202,-3.8202,-3.8202,-3.8202,-3.8202,0.0,0.0,0.0,0.0,-3.8202,-3.8202,0.0,0.0,0.0,0.0,0.0,0.0,0.0,-2.5204,-2.6079,-2.6428,-2.8046,-2.9273,-2.9467,-3.0054,-3.0568,-3.0871,-3.0526,-3.0443,-3.0855,-3.0156,-2.9088,-2.7665,-2.7615,-2.7122,-2.5988,-2.6525,-2.6525,-2.5893,-2.65,-2.6204,-2.5007,-2.5007,-2.4323,-2.3078,-2.3103,-2.2641,-2.1904,-2.0946,-1.9964,-1.9144,-1.9386,-1.9372,-1.9177,-1.9624,-1.9767,-1.9692,-1.9314,-1.9564,-2.0499,-2.3022,0.0,0.0,0.0,0.0,0.0,0.0,0.0,0.0,0.0,0.0,0.0,0.0,0.0,0.0,0.0,0.0,0.0,0.0,0.0,0.0,0.0,0.0,0.0,0.0,-3.4899,-3.4932,-3.5032,-3.5048,-3.528,-3.5926,-3.6158,-3.6771,-3.8079,-3.8295,-3.8593,-3.9222,-3.9272,-3.9272,-3.9272,-3.9732,0.0,0.0,0.0,-3.9413,-3.9277,-3.8575,-3.8202,-3.8202,-3.8202,-3.8202,-3.8202,-3.8202,-3.8202,-3.8202,-3.8202,-3.8202,-3.8202,-3.8202,-3.8202,-3.8202,-3.8202,-3.8202,-3.8202,-3.8202,-3.8202,-3.8202,0.0,0.0,0.0,0.0,0.0,0.0,0.0,-2.4714,-2.6187,-2.7238,-2.8015,-2.8873,-2.9957,-2.9984,-3.0199,-3.0814,-3.0831,-3.0568,-3.0054,-2.9528,-2.8951,-2.8235,-2.8235,-2.771,-2.6587,-2.7137,-2.693,-2.5893,-2.65,-2.6204,-2.5007,-2.5007,-2.4323,-2.309,-2.3095,-2.3034,-2.2766,-2.1894,-2.0576,-1.9079,-1.9198,-1.9131,-1.9166,-1.9483,-1.9483,-1.9243,-1.9444,-1.9748,-2.0308,-2.1966,-2.3201,-2.4112,-2.4112,-2.4112,0.0,0.0,0.0,0.0,0.0,0.0,0.0,0.0,0.0,0.0,0.0,0.0,0.0,0.0,0.0,0.0,0.0,0.0,0.0,-3.4899,-3.4899,-3.5164,-3.6007,-3.6123,-3.6058,-3.6009,-3.7052,-3.7897,-3.8179,-3.8725,-3.9123,-3.9309,-3.9272,-3.9272,-3.9272,-3.9913,-4.0512,-4.1017,-4.0198,-3.9962,-4.0576,-3.9015,-3.8202,-3.8202,-3.8202,0.0,-3.8202,-3.8202,-3.8202,-3.8202,-3.8202,-3.8202,-3.8202,-3.8202,-3.8202,-3.8202,-3.8202,-3.8202,-3.8202,-3.8202,-3.8202,-3.8202,0.0,0.0,0.0,0.0,0.0,0.0,0.0,-2.5022,-2.6361,-2.7049,-2.7981,-2.8842,-2.9499,-2.9589,-2.9897,-3.0535,-3.0675,-3.0452,-2.9837,-2.9348,-2.8873,-2.8396,-2.8411,-2.8024,-2.721,-2.7276,-2.7034,-2.6404,-2.619,-2.5742,-2.5021,-2.4778,-2.4157,-2.309,-2.3071,-2.3121,-2.2982,-2.1643,-2.0303,-1.9117,-1.91,-1.9131,-1.911,-1.932,-1.933,-1.9351,-1.9541,-2.0222,-2.1327,-2.2665,-2.358,-2.4112,-2.4112,-2.4112,-2.4118,0.0,0.0,0.0,0.0,0.0,0.0,0.0,0.0,0.0,0.0,0.0,0.0,0.0,0.0,-3.4899,-3.4899,0.0,-3.4899,-3.4899,-3.4886,-3.5069,-3.5596,-3.6489,-3.7102,-3.7102,-3.7765,-3.8344,-3.8709,-3.9056,-3.9272,-3.9272,-3.9272,-3.9272,-3.9272,-3.9984,-4.0492,-4.0654,-4.0212,-3.9991,-4.0065,-3.8939,-3.8277,-3.8202,-3.8202,-3.8202,-3.8202,-3.8202,-3.8202,-3.8202,-3.8202,-3.8202,-3.8202,-3.8202,-3.8202,-3.8202,-3.8202,-3.8202,-3.8202,-3.8202,-3.8202,-3.8202,0.0,0.0,0.0,0.0,0.0,0.0,0.0,-2.5329,-2.6496,-2.664,-2.7864,-2.8779,-2.8904,-2.9227,-2.9766,-3.0393,-3.0393,-3.0225,-2.9837,-2.9273,-2.8795,-2.8396,-2.8411,-2.8122,-2.758,-2.7327,-2.7071,-2.6797,-2.5892,-2.5356,-2.5007,-2.4616,-2.3916,-2.309,-2.3121,-2.3133,-2.2984,-2.0963,-1.9727,-1.9099,-1.9069,-1.9075,-1.9131,-1.9121,-1.9362,-1.9613,-1.9552,-2.0557,-2.2147,-2.3592,-2.4111,-2.4112,-2.4112,-2.4112,-2.4105,-2.4093,-2.5744,0.0,0.0,0.0,0.0,0.0,0.0,0.0,0.0,-3.3039,-3.3459,-3.4366,-3.4739,-3.4899,-3.4899,-3.4899,-3.4949,-3.5131,-3.5053,-3.5087,-3.5679,-3.71,-3.816,-3.8394,-3.8411,-3.8642,-3.9222,-3.9272,-3.9272,-3.9272,-3.9272,-3.9272,-3.9272,-3.9835,-4.0122,-3.9992,-3.9859,-3.9716,-3.9586,-3.8799,-3.8384,-3.8352,-3.8277,-3.8202,-3.8202,-3.8333,-3.8391,-3.8405,-3.8522,-3.8507,-3.8391,-3.8391,-3.8318,-3.8202,-3.8202,-3.8202,-3.8202,-3.8202,-3.8202,-3.8202,0.0,0.0,0.0,0.0,0.0,0.0,0.0,0.0,-2.6336,-2.6496,-2.7458,-2.8268,-2.8858,-2.9212,-2.9821,-3.0838,-3.0267,-2.9837,-2.9793,-2.8967,-2.8444,-2.8411,-2.8411,-2.8024,-2.7174,-2.7393,-2.7137,-2.639,-2.6042,-2.5536,-2.5007,-2.4616,-2.3916,-2.309,-2.307,-2.3089,-2.2926,-2.0347,-1.9198,-1.91,-1.9131,-1.9075,-1.9142,-1.9295,-1.9459,-1.9547,-1.9257,-2.005,-2.1537,-2.3468,-2.4111,-2.4112,-2.4112,-2.4112,-2.4124,-2.4119,-2.5742,-2.7603,-2.758,-2.8562,-2.9619,-2.9654,-3.0612,-3.1524,0.0,-3.2461,-3.3251,-3.3355,-3.4202,-3.4899,-3.4899,-3.4899,-3.5164,-3.609,-3.5465,-3.5795,-3.8417,-3.902,-3.9168,-3.9193,-3.9156,-3.9189,-3.9272,-3.9272,-3.9272,-3.9272,-3.9272,-3.9272,-3.9272,-3.9355,-3.9702,-4.0293,-3.9307,-3.9358,-4.0515,-3.8879,-3.8352,-3.9031,-3.8427,-3.8202,-3.8217,-3.8812,-3.9088,-3.9117,-3.9654,-3.9581,-3.9088,-3.9088,-3.8739,-3.8202,-3.8202,-3.8202,-3.8202,-3.8202,-3.8202,-3.8202,0.0,0.0,0.0,0.0,0.0,0.0,0.0,0.0,0.0,0.0,-2.7524,-2.8348,-2.8573,-2.8997,-2.9422,-2.9881,-2.9572,-2.9393,-2.9393,-2.8795,-2.8411,-2.8411,-2.8266,-2.8039,-2.776,-2.7291,-2.7049,-2.6959,-2.5687,-2.5077,-2.4951,-2.4099,-2.3463,-2.309,-2.3121,-2.2214,-2.0692,-1.9554,-1.9093,-1.9142,-1.9208,-1.9142,-1.9131,-1.9736,-2.0096,-2.0183,-1.9598,-2.0882,0.0,-2.3811,-2.4107,-2.4119,-2.4119,-2.4092,-2.4116,-2.408,-2.5751,-2.7744,-2.8547,-2.9146,-2.9759,-3.0522,-3.1135,-3.1682,-3.2367,-3.2879,-3.3407,-3.4036,-3.4578,-3.4899,-3.4899,-3.5247,-3.5661,-3.6108,-3.6389,-3.7015,-3.828,-3.893,-3.9295,-3.9325,-3.9272,-3.9272,-3.9272,-3.9272,-3.9272,-3.9272,-3.9272,-3.9272,-3.9272,-3.9272,-3.9421,-3.9736,-3.9242,-3.9138,-3.9467,-3.8815,-3.8637,-3.8953,-3.8869,-3.8847,-3.8942,-3.9441,-3.9726,-3.9741,-3.9987,-3.9755,-3.9204,-3.9204,-3.8797,-3.8202,-3.8202,-3.8202,-3.8202,-3.8202,-3.8202,-3.8202,0.0,0.0,0.0,0.0,0.0,0.0,0.0,0.0,0.0,0.0,-2.761,-2.8444,-2.8573,-2.892,-2.9166,-2.9257,-2.9166,-2.9074,-2.9074,-2.8653,-2.8348,-2.8186,-2.8054,-2.794,-2.7775,-2.7152,-2.6959,-2.7248,-2.5522,-2.4821,-2.5145,-2.3734,-2.3078,-2.309,-2.3071,-2.1999,-2.0158,-1.9383,-1.911,-1.9125,-1.9187,-1.9362,-1.9647,-2.0183,-2.0884,-2.1475,-2.052,-2.1655,-2.3659,-2.3812,-2.3922,-2.4073,-2.4084,-2.4116,-2.4254,-2.486,-2.6543,-2.8307,-2.9092,-2.9564,-3.0113,-3.1185,-3.1618,-3.2007,-3.2986,-3.3303,-3.3681,-3.448,-3.4804,-3.4965,-3.5164,-3.5644,-3.6125,-3.6539,-3.7299,-3.7909,-3.8157,-3.8858,-3.9272,-3.9272,-3.9272,-3.9272,-3.9272,-3.9272,-3.9272,-3.9272,-3.9272,-3.9272,-3.9272,-3.9272,-3.9272,-3.9272,-3.938,-3.936,-3.9257,-3.9225,-3.9344,-3.9564,-3.9461,-3.9466,-3.9618,-4.0159,-4.0481,-4.0655,-4.0655,-4.0292,-3.9712,-3.9523,-3.9059,-3.8463,-3.8275,-3.8202,-3.8202,-3.8202,-3.8202,-3.8202,0.0,0.0,0.0,0.0,0.0,0.0,0.0,0.0,0.0,0.0,0.0,0.0,0.0,-2.9074,-2.9257,-2.975,-2.9348,-2.9074,-2.9074,-2.8653,-2.8122,-2.7565,-2.7825,-2.759,-2.6774,-2.7011,-2.7078,-2.6832,-2.5577,-2.5172,-2.5575,-2.3903,-2.3078,-2.309,-2.3071,-2.3034,-2.28,-2.0189,-1.9091,-1.9112,-1.9114,-1.9735,-2.0696,-2.0486,-2.178,-2.3527,-2.2094,-2.1978,-2.259,-2.2989,-2.356,-2.412,-2.4107,-2.4081,-2.4546,-2.6818,-2.8442,-2.9403,-2.8779,-2.9535,-3.0588,-3.1236,-3.1905,-3.2547,-3.3093,-3.3646,-3.4101,-3.4101,-3.4546,-3.5114,-3.5827,-3.5976,-3.6473,-3.7914,-3.7978,-3.8124,-3.9106,-3.9255,-3.9272,-3.9272,-3.9272,-3.9272,-3.9272,-3.9272,-3.9272,-3.9272,-3.9272,-3.9272,-3.9272,-3.9272,-3.9272,-3.9272,-3.9693,-4.0214,-4.0811,-4.0372,-4.0551,-4.13,-4.0424,-3.9974,-4.0075,-4.0757,-4.1424,-4.2034,-4.2034,-4.1657,-4.0989,-4.0336,-3.9712,-3.9102,-3.8449,-3.8202,-3.8202,-3.8202,-3.8202,-3.8202,0.0,0.0,0.0,0.0,0.0,0.0,0.0,0.0,0.0,0.0,0.0,0.0,0.0,0.0,0.0,0.0,-2.87,-2.8621,-2.8621,-2.8493,-2.8299,-2.8122,-2.7875,-2.7575,-2.7306,-2.7078,-2.6884,-2.6779,-2.5577,-2.5229,-2.5589,-2.3903,-2.3078,-2.3078,-2.3092,-2.3095,-2.3022,-2.1506,-2.0445,-1.9803,-2.0398,-2.0518,-2.0433,-2.1348,-2.2197,-2.2947,0.0,-2.3916,-2.4176,-2.4713,-2.5601,-2.6357,-2.5993,-2.6153,-2.6828,-2.8915,-2.9536,-2.9727,-3.0179,-3.041,-3.0779,-3.1772,-3.2228,-3.2656,-3.3594,-3.3933,-3.4201,-3.4546,-3.4787,-3.5131,-3.586,-3.6406,-3.7052,-3.8046,-3.8543,-3.8924,-3.9222,-3.9272,-3.9272,-3.9272,-3.9272,-3.9272,-3.9272,-3.9272,-3.9272,-3.9272,-3.9272,-3.9272,-3.9272,-3.9272,-3.9487,-3.9984,-4.0178,-4.036,-4.0642,-4.0591,-4.0444,-4.0276,-4.096,-4.1119,-4.0786,-4.1453,-4.1889,-4.2092,-4.2092,-4.1715,-4.1076,-4.0858,-4.0147,-3.9175,-3.8957,-3.8594,-3.8202,-3.8202,-3.8202,-3.8202,0.0,0.0,0.0,0.0,0.0,0.0,0.0,0.0,0.0,0.0,0.0,0.0,0.0,0.0,0.0,0.0,0.0,-2.8411,-2.8411,-2.8411,-2.8348,-2.8186,-2.7925,-2.7725,-2.756,-2.7218,-2.6989,-2.6989,-2.5812,-2.5229,-2.5145,-2.3734,-2.3078,-2.3078,-2.3078,-2.3092,-2.3046,-2.2469,-2.169,-2.076,-2.1112,-2.1123,-2.1049,-2.2013,-2.2689,0.0,-2.4353,-2.51,-2.5564,-2.6231,-2.6971,-2.7552,-2.7205,-2.7299,-2.8017,-3.0113,-3.0723,-3.0815,-3.1384,-3.1526,-3.1689,-3.2763,-3.3033,-3.3245,-3.4184,-3.4399,-3.4497,-3.4851,-3.4899,-3.5197,-3.6208,-3.6787,-3.7433,-3.8427,-3.8974,-3.9272,-3.9272,-3.9272,-3.9272,-3.9272,-3.9272,-3.9272,-3.9272,-3.9272,-3.9272,-3.9272,-3.9272,-3.9272,-3.9272,-3.952,-3.9885,-4.0365,-4.0878,-4.1189,-4.1226,-4.141,-4.1166,-4.0322,-4.0965,-4.1092,-4.0771,-4.1439,-4.1744,-4.1758,-4.199,-4.186,-4.1439,-4.1192,-4.0481,-3.9509,-3.9276,-3.8797,-3.8202,-3.8202,-3.8202,-3.8202,0.0,0.0,0.0,0.0,0.0,0.0,0.0,0.0,0.0,0.0,0.0,0.0,0.0,0.0,0.0,0.0,0.0,0.0,-2.8411,-2.8411,-2.8186,-2.7795,-2.8024,-2.8008,-2.7565,-2.7473,-2.7401,-2.7401,-2.6198,-2.5201,-2.4399,-2.3487,-2.3125,-2.3078,-2.3078,-2.3078,-2.309,-2.3132,-2.2591,-2.1758,-2.1404,-2.169,-2.2433,-2.2494,-2.3327,-2.4509,-2.4567,-2.5412,-2.6568,-2.7331,-2.755,-2.7574,-2.7724,-2.7745,-2.8247,-3.0688,-3.2045,-3.2758,-3.2336,-3.2728,-3.3371,-3.3933,-3.4101,-3.425,-3.4804,-3.4899,-3.4899,-3.4899,-3.4899,-3.5346,-3.6837,-3.7102,-3.7582,-3.904,-3.9272,-3.9288,-3.9322,-3.9338,-3.9392,-3.9371,-3.9355,-3.9338,-3.9338,-3.9342,-3.9272,-3.9272,-3.9272,-3.9272,-3.9272,-3.9984,-4.0398,-4.0431,-4.1789,-4.2535,-4.251,-4.2829,-4.2446,-4.1346,-4.0482,-4.0046,-4.0075,-4.0742,-4.1062,-4.1134,-4.1773,-4.2063,-4.2049,-4.141,-4.0757,-4.0089,-3.9479,-3.8841,-3.8246,-3.8217,-3.8202,-3.8202,0.0,0.0,0.0,0.0,0.0,0.0,0.0,0.0,0.0,0.0,0.0,0.0,0.0,0.0,0.0,0.0,0.0,0.0,-2.8411,-2.8411,-2.8396,-2.8365,-2.8268,-2.8186,-2.8186,-2.764,-2.7401,-2.7401,-2.6369,-2.5315,-2.4386,-2.3515,-2.3103,-2.3078,-2.3078,-2.3078,-2.3078,-2.308,-2.2665,-2.2077,-2.2628,-2.2641,-2.2494,-2.3446,-2.4105,-2.4624,-2.5508,-2.5974,-2.6233,-2.6519,-2.6916,-2.76,-2.9246,-2.9732,-3.0307,-3.316,-3.4153,-3.4097,-3.3062,-3.3179,-3.3714,-3.4032,-3.4101,-3.425,-3.4804,-3.4899,-3.4899,-3.4899,-3.4899,-3.5346,-3.6837,-3.7102,-3.7582,-3.904,-3.9272,-3.9471,-4.0017,-4.01,-4.0282,-4.0812,-4.0415,-4.01,-4.01,-3.9603,-3.9272,-3.9272,-3.9272,-3.9272,-3.9272,-3.9984,-4.0613,-4.1127,-4.2038,-4.265,-4.2955,-4.2157,-4.1377,-4.0618,-4.0248,-3.9839,-3.945,-4.0075,-4.0626,-4.1105,-4.1279,-4.1628,-4.2092,-4.1918,-4.1439,-4.0771,-4.0133,-3.9494,-3.8884,-3.8391,-3.8202,-3.8202,0.0,0.0,0.0,0.0,0.0,0.0,0.0,0.0,0.0,0.0,0.0,0.0,0.0,0.0,0.0,0.0,0.0,0.0,0.0,-2.846,-2.8541,-2.8684,-2.8558,-2.8558,-2.8716,-2.8008,-2.761,-2.761,-2.6369,-2.5397,-2.4619,-2.3606,-2.3094,-2.3078,-2.3078,-2.3078,-2.3078,-2.3078,-2.2944,0.0,0.0,-2.3305,-2.3386,-2.4047,-2.4738,-2.5342,-2.5974,-2.6457,-2.6893,-2.7536,-2.8037,-2.8757,-3.0558,-3.155,-3.2432,-3.4182,-3.4774,-3.4743,-3.4023,-3.3825,-3.3912,-3.4349,-3.425,-3.425,-3.4804,-3.4899,-3.4899,-3.4899,-3.4899,-3.5346,-3.6837,-3.7102,-3.7582,-3.904,-3.9272,-3.9537,-4.0282,-4.0382,-4.063,-4.1326,-4.1077,-4.0829,-4.0829,-4.0183,-3.9752,-3.9752,-3.9454,-3.9421,-3.9752,-4.0431,-4.116,-4.1872,-4.2618,-4.3079,-4.3295,-4.2108,-4.1233,-4.0631,-3.9959,-3.9327,-3.8783,-3.9421,-4.0046,-4.067,-4.0974,-4.1482,-4.2092,-4.2092,-4.17,-4.1062,-4.0684,-4.0147,-3.9523,-3.8884,-3.8638,-3.8609,0.0,0.0,0.0,0.0,0.0,0.0,0.0,0.0,0.0,0.0,0.0,0.0,0.0,0.0,0.0,0.0,0.0,0.0,0.0,0.0,-2.8684,-2.8794,-2.8842,-2.8967,-2.9075,-2.8304,-2.7898,-2.7898,-2.648,-2.5521,-2.4951,-2.3872,-2.3245,-2.3078,-2.3078,-2.3078,-2.3078,-2.3078,-2.3258,-2.345,-2.3318,-2.3767,-2.4567,0.0,-2.53,-2.6297,-2.6312,-2.7011,-2.816,-2.9332,-2.9845,-3.0228,-3.1581,-3.2947,-3.4131,-3.4376,-3.4686,-3.4899,-3.4899,-3.4415,-3.4104,-3.4771,-3.4546,-3.4349,-3.4787,-3.4899,-3.4899,-3.4899,-3.4899,-3.5346,-3.6837,-3.7102,-3.7582,-3.904,-3.9272,-3.9537,-4.0282,-4.0464,-4.0763,-4.1458,-4.1541,-4.1591,-4.1657,-4.0978,-4.0564,-4.0663,-3.9984,-3.9802,-4.0348,-4.1127,-4.1905,-4.2634,-4.3297,-4.3628,-4.3628,-4.2488,-4.1629,-4.1013,-3.9763,-3.887,-3.8381,-3.8797,-3.9407,-4.0017,-4.067,-4.1337,-4.1976,-4.2063,-4.1758,-4.1221,-4.1134,-4.0742,-4.0162,-3.9552,-3.932,-3.9233,0.0,0.0,0.0,0.0,0.0,0.0,0.0,0.0,0.0,0.0,-2.8161,-2.788,0.0,0.0,0.0,0.0,0.0,0.0,0.0,0.0,0.0,-2.8794,-2.8842,-2.8967,-2.9075,-2.8304,-2.7898,-2.7898,-2.7026,-2.6071,-2.5007,-2.4781,-2.4105,-2.3078,-2.3078,-2.3078,-2.3078,-2.3078,-2.3424,-2.4015,-2.406,-2.4509,-2.5119,-2.5728,0.0,0.0,-2.7093,-2.8312,-2.9492,-3.0022,-3.0164,-3.0418,-3.1855,-3.3127,-3.4197,-3.4659,-3.4822,-3.4899,-3.4899,-3.4835,-3.4771,-3.4883,-3.4851,-3.4804,-3.4899,-3.4899,-3.4899,-3.4899,-3.4899,-3.5346,-3.6837,-3.7102,-3.7582,-3.904,-3.9272,-3.9537,-4.0282,-4.0878,-4.1458,-4.2014,-4.2196,-4.256,-4.3181,-4.2036,-4.1491,-4.2104,-4.1458,-4.0845,-4.0398,-4.1607,-4.2667,-4.3413,-4.3562,-4.3628,-4.3628,-4.2814,-4.2206,-4.1626,-4.0331,-3.9493,-3.8958,-3.8558,-3.8739,-3.9392,-4.0002,-4.0655,-4.1308,-4.186,-4.2034,-4.186,-4.1308,-4.1033,-4.0844,-4.0191,-3.9944,-3.9929,0.0,0.0,0.0,0.0,0.0,0.0,0.0,-2.7943,-2.8315,-2.9822,-2.9189,-2.8925,-2.9812,-2.9643,-2.9458,0.0,0.0,0.0,0.0,0.0,0.0,0.0,0.0,0.0,-2.8779,-2.8207,-2.7815,-2.766,0.0,-2.5879,-2.5007,-2.4681,-2.3989,-2.3078,-2.3078,-2.3078,-2.3138,-2.3484,-2.3826,-2.4234,-2.4509,-2.5077,-2.5701,0.0,0.0,0.0,-2.8414,-2.9521,-3.0733,-3.1406,-3.1582,-3.1614,-3.2434,-3.3469,-3.4364,-3.4595,-3.4773,-3.4899,-3.4899,-3.4593,-3.4399,-3.4818,-3.4691,-3.4546,-3.4851,-3.4899,-3.4899,-3.4899,-3.4899,-3.5346,-3.6837,-3.7102,-3.7582,-3.904,-3.9272,-3.9537,-4.0282,-4.0773,-4.1328,-4.2105,-4.2733,-4.3347,-4.4021,-4.3143,-4.2618,-4.2829,-4.2667,-4.2419,-4.2088,-4.2717,-4.3264,-4.3611,-4.3628,-4.3628,-4.3628,-4.2932,-4.2334,-4.1765,-4.0493,-3.9636,-3.9104,-3.8501,-3.8565,-3.9233,-3.9842,-4.0481,-4.1149,-4.1816,-4.2092,-4.2063,-4.1744,-4.1613,-4.1541,-4.0858,-4.0612,-4.0568,0.0,0.0,0.0,0.0,0.0,0.0,0.0,-2.8183,-2.8944,-3.0343,-3.0015,-2.9984,-3.0731,-3.0597,-3.0428,0.0,0.0,0.0,0.0,0.0,0.0,0.0,0.0,0.0,-2.8479,0.0,0.0,-2.7401,-2.6539,0.0,0.0,0.0,0.0,0.0,-2.3365,-2.3365,-2.3531,-2.406,-2.4408,0.0,0.0,-2.5661,-2.6432,0.0,0.0,0.0,0.0,-3.0698,-3.1723,-3.2562,-3.2867,-3.2962,-3.316,-3.3795,-3.4448,-3.4497,-3.4691,-3.4899,-3.4899,-3.4464,-3.4153,-3.4771,-3.4594,-3.4399,-3.4787,-3.4899,-3.4899,-3.4899,-3.4899,-3.5346,-3.6837,-3.7102,-3.7582,-3.904,-3.9379,-3.9578,-4.0105,-4.063,-4.1253,-4.208,-4.3089,-4.3927,-4.4468,-4.403,-4.371,-4.367,-4.3748,-4.386,-4.386,-4.3711,-4.3628,-4.3628,-4.3628,-4.3628,-4.3628,-4.3043,-4.2446,-4.1933,-4.0638,-3.9763,-3.9235,-3.8501,-3.8492,-3.903,-3.977,-4.0394,-4.0945,-4.1758,-4.2092,-4.2092,-4.2092,-4.2092,-4.2034,-4.1512,-4.1308,-4.1236,0.0,0.0,0.0,0.0,0.0,0.0,0.0,-2.7842,-2.8532,-3.0269,-3.0466,-3.0881,-3.2103,-3.1151,-3.0428,0.0,0.0,0.0,0.0,0.0,0.0,0.0,0.0,0.0,0.0,0.0,0.0,-2.7401,-2.6937,0.0,0.0,0.0,0.0,0.0,0.0,-2.4279,-2.4838,-2.4908,0.0,0.0,0.0,0.0,0.0,0.0,0.0,0.0,0.0,-3.1639,-3.2273,-3.2506,-3.3205,-3.3953,-3.4003,-3.4052,-3.4201,-3.4448,-3.4691,-3.4899,-3.4899,-3.4835,-3.4835,-3.4899,-3.4851,-3.4851,-3.4899,-3.4899,-3.4899,-3.4899,-3.4899,-3.5346,-3.6837,-3.7102,-3.7582,-3.904,-3.959,-3.9711,-3.9408,-4.0825,-4.1937,-4.2182,-4.3377,-4.431,-4.4485,-4.431,-4.4495,-4.5168,-4.4857,-4.4589,-4.4589,-4.3976,-4.3628,-4.3628,-4.3628,-4.3628,-4.3628,-4.3251,-4.2867,-4.2522,-4.1028,-4.0154,-3.9763,-3.8694,-3.8231,-3.8362,-3.9567,-4.0133,-4.0292,-4.157,-4.2092,-4.2092,-4.2092,-4.2092,-4.2092,-4.2034,-4.2005,-4.199,0.0,0.0,0.0,0.0,0.0,0.0,-2.6769,-2.7377,-2.8338,-2.9799,-3.0315,-3.0984,-3.2272,-3.1921,-3.1613,-3.1613,0.0,0.0,0.0,0.0,0.0,0.0,0.0,0.0,0.0,0.0,-2.8832,-2.8613,-2.7749,0.0,0.0,0.0,0.0,0.0,0.0,-2.4762,-2.5564,-2.5901,0.0,0.0,0.0,0.0,0.0,0.0,0.0,0.0,0.0,0.0,-3.3192,-3.363,-3.3707,-3.3658,-3.3797,-3.3949,-3.4201,-3.4594,-3.4691,-3.4691,-3.4851,-3.4899,-3.4899,-3.4899,-3.4804,-3.4691,-3.4851,-3.4804,-3.4707,-3.4851,-3.4899,-3.5346,-3.6837,-3.7102,-3.7582,-3.904,-3.9432,-3.959,-3.9642,-4.0314,-4.1171,-4.2093,-4.3671,-4.4599,-4.4525,-4.4451,-4.4558,-4.4923,-4.4411,-4.4042,-4.4042,-4.3777,-4.3628,-4.3628,-4.3197,-4.2965,-4.2965,-4.2134,-4.1727,-4.1548,-4.0332,-3.968,-3.949,-3.8576,-3.8202,-3.826,-3.916,-3.9567,-3.9625,-4.0525,-4.0902,-4.0902,-4.0902,-4.1134,-4.1497,-4.1497,-4.1744,-4.2092,0.0,0.0,0.0,0.0,0.0,-2.6233,-2.6233,-2.7108,-2.8208,-2.9275,-3.0043,-3.0925,-3.1992,-3.2272,-3.2398,-3.2398,-3.1951,0.0,0.0,0.0,0.0,0.0,0.0,0.0,0.0,0.0,-2.9411,-2.9401,-2.8451,-2.7763,0.0,0.0,-2.6274,-2.584,0.0,0.0,0.0,0.0,0.0,0.0,0.0,0.0,0.0,0.0,0.0,0.0,0.0,0.0,0.0,0.0,0.0,-3.345,-3.3745,-3.3899,-3.405,-3.4546,-3.4594,-3.4546,-3.4851,-3.4787,-3.4691,-3.4739,-3.4594,-3.4448,-3.4691,-3.4643,-3.4529,-3.4835,-3.5114,-3.5644,-3.6704,-3.71,-3.7711,-3.9073,-3.9239,-3.9345,-3.9833,-4.0134,-4.0841,-4.2165,-4.3752,-4.4699,-4.4609,-4.4512,-4.4525,-4.4683,-4.3827,-4.3396,-4.3611,-4.3214,-4.2965,-4.2965,-4.2469,-4.2187,-4.2187,-4.1428,-4.0976,-4.086,-3.9691,-3.9159,-3.899,-3.825,-3.7941,-3.7984,-3.8826,-3.9204,-3.9247,-3.9842,-4.0104,-4.0104,-4.0104,-4.0379,-4.0829,-4.1018,-4.1395,-4.1831,0.0,0.0,0.0,0.0,0.0,0.0,-2.6233,-2.7108,-2.8012,-2.8643,-2.9737,-3.0763,-3.1422,-3.2048,-3.2398,-3.2398,-3.2382,0.0,0.0,0.0,0.0,0.0,0.0,0.0,0.0,0.0,-2.8987,-2.9401,-2.8946,-2.8666,-2.8666,-2.8068,-2.7882,-2.7939,0.0,0.0,0.0,0.0,0.0,0.0,0.0,0.0,0.0,0.0,0.0,0.0,0.0,0.0,0.0,0.0,0.0,0.0,0.0,-3.3899,-3.3745,-3.405,-3.43,-3.4546,-3.4851,-3.4497,-3.4151,-3.4448,-3.43,-3.4151,-3.4448,-3.4464,-3.4496,-3.4835,-3.5676,-3.639,-3.6422,-3.7124,-3.806,-3.9139,-3.9082,-3.9156,-3.9833,-4.0593,-4.1459,-4.2569,-4.3734,-4.4527,-4.4878,-4.4558,-4.4423,-4.4699,-4.3346,-4.285,-4.3595,-4.2237,-4.1425,-4.1425,-4.1425,-4.1425,-4.1425,-4.1425,-4.1222,-4.086,-3.9532,-3.8725,-3.8365,-3.7686,-3.7317,-3.7389,-3.8652,-3.9204,-3.9247,-3.9842,-4.0104,-4.0104,-4.0104,-4.0104,-4.0191,-4.0858,-4.1091,-4.1207,0.0,0.0,0.0,0.0,0.0,0.0,0.0,-2.6769,-2.7604,-2.8579,-2.9737,-3.0763,-3.1422,-3.2048,-3.2398,-3.2398,-3.2398,0.0,0.0,0.0,0.0,0.0,0.0,0.0,0.0,0.0,-3.081,-3.1091,-2.9925,-2.9233,-2.9088,-2.8312,-2.8254,-2.8839,-2.834,-2.854,0.0,0.0,0.0,0.0,0.0,0.0,-3.2451,0.0,0.0,0.0,0.0,0.0,0.0,0.0,0.0,0.0,0.0,0.0,0.0,-3.3797,-3.3899,-3.405,-3.4497,-3.4349,-3.4101,-3.4201,-3.4,-3.3933,-3.435,-3.4184,-3.4345,-3.5662,-3.6191,-3.6554,-3.719,-3.7494,-3.7899,-3.8613,-3.8583,-3.8882,-3.9833,-3.9967,-4.0624,-4.2432,-4.3369,-4.4024,-4.4429,-4.4064,-4.363,-4.323,-4.2783,-4.2187,-4.1442,-4.0961,-4.0928,-4.1409,-4.0961,-4.0713,-4.0713,-4.0199,-3.9699,-3.9146,-3.8613,-3.8027,-3.748,-3.7005,-3.685,-3.6822,-3.7608,-3.7912,-3.7955,-3.8551,-3.8797,-3.8797,-3.8797,-3.9088,-3.9509,-3.9726,-4.006,-4.051,0.0,0.0,0.0,0.0,0.0,0.0,0.0,-2.6496,-2.7284,-2.7959,-2.949,-3.0644,-3.1073,-3.1879,-3.2398,-3.2398,-3.2398,0.0,0.0,0.0,0.0,0.0,0.0,0.0,0.0,-3.1709,-3.1349,-3.1879,-3.0631,-2.9885,-2.9812,-2.9204,-2.9262,-2.9783,-2.9536,-2.9827,0.0,0.0,0.0,0.0,0.0,0.0,-3.314,0.0,0.0,0.0,0.0,0.0,0.0,0.0,0.0,0.0,0.0,0.0,0.0,0.0,-3.371,-3.3658,-3.4201,-3.4101,-3.3797,-3.3899,-3.3761,-3.3642,-3.4068,-3.3965,-3.4256,-3.5861,-3.6371,-3.6826,-3.7896,-3.7943,-3.788,-3.8327,-3.8375,-3.8717,-3.9645,-3.9542,-4.0182,-4.2207,-4.306,-4.3647,-4.4219,-4.3598,-4.3015,-4.2551,-4.2021,-4.1326,-4.0431,-4.0117,-4.0166,-4.058,-4.0183,-3.9967,-3.9967,-3.9504,-3.9077,-3.8662,-3.8034,-3.7514,-3.7093,-3.6581,-3.6303,-3.6347,-3.6793,-3.7012,0.0,-3.7607,-3.7868,-3.7883,-3.8115,-3.8463,-3.8855,-3.9117,-3.9436,-3.9842,0.0,0.0,0.0,0.0,0.0,0.0,0.0,-2.6277,-2.704,-2.704,-2.9066,-3.0524,-3.0524,-3.1637,-3.2398,-3.2398,0.0,0.0,0.0,0.0,0.0,0.0,0.0,0.0,-3.2843,-3.1407,-3.1043,-3.1936,-3.1087,-3.0628,-3.0598,-3.0628,-3.0568,-3.0568,-3.0568,-3.1043,0.0,0.0,0.0,0.0,0.0,0.0,0.0,0.0,0.0,0.0,0.0,0.0,0.0,0.0,0.0,0.0,0.0,0.0,0.0,0.0,0.0,0.0,0.0,-3.371,-3.3346,-3.3607,-3.3503,-3.3346,-3.3626,-3.3774,0.0,-3.5609,-3.6391,-3.7204,-3.8426,-3.8237,-3.8017,-3.8278,-3.8343,-3.8557,-3.9209,-3.9418,-4.011,-4.1878,-4.2665,-4.3328,-4.4074,-4.3065,-4.2419,-4.2369,-4.1127,-4.0365,-4.0299,-3.9653,-3.9272,-3.9272,-3.9272,-3.9272,-3.9272,-3.9272,-3.9272,-3.9202,-3.778,-3.7131,-3.7027,-3.624,-3.5834,-3.5863,-3.6333,-3.6541,-3.6599,-3.7041,-3.723,-3.7302,-3.7897,-3.813,-3.8217,-3.8884,-3.9131,-3.9218,0.0,0.0,0.0,0.0,0.0,0.0,0.0,0.0,0.0,0.0,-2.9331,-3.0524,-3.0524,-3.1637,-3.2398,0.0,0.0,0.0,0.0,0.0,0.0,0.0,0.0,0.0,-3.2648,-3.212,-3.1951,-3.2272,-3.1495,-3.094,-3.0573,-3.06,-3.0568,-3.0568,-3.0568,-3.0895,0.0,0.0,0.0,0.0,0.0,0.0,0.0,0.0,0.0,0.0,-3.3309,-3.3346,0.0,0.0,0.0,0.0,0.0,0.0,0.0,0.0,-3.3398,-3.3361,-3.345,0.0,-3.3309,-3.3398,-3.3361,-3.3314,0.0,-3.3969,-3.4856,-3.6198,-3.7172,-3.7818,-3.8068,-3.7953,-3.7844,-3.7759,-3.8042,-3.839,-3.8668,-3.9347,-4.0062,-4.0662,-4.121,-4.1756,-4.239,-4.1959,-4.1458,-4.0928,-4.0564,-4.0133,-3.957,-3.9371,-3.9272,-3.9272,-3.9272,-3.9272,-3.9272,-3.9272,-3.9023,-3.8535,-3.7722,-3.7071,-3.6554,-3.5739,-3.537,-3.5414,-3.5849,-3.606,-3.6104,-3.657,-3.6762,-3.6835,-3.7346,-3.7579,-3.7799,-3.8441,-3.8675,-3.8762,0.0,0.0,0.0,0.0,0.0,0.0,0.0,0.0,0.0,0.0,0.0,0.0,0.0,0.0,0.0,0.0,0.0,0.0,0.0,0.0,0.0,0.0,0.0,-3.2453,-3.2594,-3.1951,-3.1781,-3.2064,-3.1219,-3.0689,-3.0602,-3.0629,-3.0568,-3.0642,-3.1029,-3.1321,0.0,0.0,0.0,0.0,-3.3118,0.0,0.0,0.0,0.0,0.0,-3.3309,-3.3309,0.0,-3.3309,-3.3309,-3.3309,0.0,0.0,0.0,0.0,-3.3309,-3.3309,-3.3309,-3.3309,-3.3309,-3.3309,-3.3309,-3.3277,-3.3271,-3.3921,-3.4854,-3.6061,-3.6853,-3.7438,-3.7806,-3.7786,-3.7685,-3.7539,-3.7927,-3.839,-3.8794,-3.9574,-4.0117,-4.0117,-4.0496,-4.0932,-4.1409,-4.1014,-4.0611,-4.0415,-4.0067,-3.9702,-3.9342,-3.9272,-3.9272,-3.9272,-3.9272,-3.9272,-3.9272,-3.9272,-3.9148,-3.8772,-3.7838,-3.7191,-3.6845,-3.5767,-3.5359,-3.5389,-3.5518,-3.56,-3.5592,-3.6104,-3.6215,-3.6204,-3.6806,-3.7126,-3.717,-3.7579,-3.771,-3.7696,0.0,0.0,0.0,0.0,0.0,0.0,0.0,0.0,0.0,0.0,0.0,0.0,0.0,0.0,0.0,0.0,0.0,0.0,0.0,0.0,0.0,0.0,0.0,-3.2287,-3.2287,-3.148,-3.1263,-3.1724,-3.0747,-3.0462,-3.0807,-3.0687,-3.0642,-3.0747,-3.1537,-3.1879,0.0,0.0,-3.3011,-3.2641,-3.3118,0.0,0.0,0.0,0.0,0.0,0.0,0.0,0.0,-3.3309,-3.3309,-3.3309,-3.3309,0.0,0.0,0.0,0.0,0.0,-3.3309,-3.3309,-3.3309,-3.3309,-3.3309,-3.3309,-3.3309,-3.3909,-3.473,-3.5553,-3.6165,-3.6811,-3.7674,-3.7626,-3.748,-3.748,-3.7886,-3.8351,-3.8974,-3.9523,-3.9826,-3.9696,-3.9913,-4.0255,-4.0648,-4.0099,-3.9851,-4.0144,-3.962,-3.9272,-3.9272,-3.9272,-3.9272,-3.9272,-3.9272,-3.9272,-3.9272,-3.9272,-3.9272,-3.9272,-3.8026,-3.7429,-3.737,-3.6085,-3.5504,-3.5504,-3.5294,-3.5228,-3.5258,-3.5659,-3.5678,-3.5585,-3.6384,-3.6579,-3.6538,-3.6766,-3.674,-3.6614,0.0,0.0,0.0,0.0,0.0,0.0,0.0,0.0,0.0,0.0,0.0,0.0,0.0,0.0,0.0,0.0,0.0,0.0,0.0,0.0,0.0,-3.2398,-3.1879,-3.1349,-3.0807,-3.1058,-3.1392,-3.189,-3.1364,-3.1336,-3.1709,-3.097,-3.0807,-3.1219,-3.1724,-3.1879,-3.1936,-3.2904,-3.3011,-3.2641,-3.3118,0.0,0.0,0.0,0.0,0.0,0.0,0.0,0.0,-3.3309,-3.3309,-3.3309,-3.3309,0.0,0.0,0.0,0.0,0.0,-3.3309,-3.3309,-3.3309,-3.3309,-3.3309,-3.3309,-3.3309,-3.4288,-3.5252,-3.5419,-3.6463,-3.7413,-3.7508,-3.7539,-3.748,-3.748,-3.7583,-3.7786,-3.8351,-3.8157,-3.8107,-3.8513,-3.8416,-3.8537,-3.9061,-3.9034,-3.8969,-3.9024,-3.9214,-3.9272,-3.9272,-3.9272,-3.9272,-3.9272,-3.9272,-3.9272,-3.9272,-3.9272,-3.9272,-3.9272,-3.8026,-3.7429,-3.737,-3.6085,-3.5504,-3.5504,-3.5439,-3.5439,-3.5439,-3.5332,-3.5296,-3.5289,-3.5857,-3.6055,-3.6045,-3.6689,-3.6755,-3.6643,0.0,0.0,0.0,0.0,0.0,0.0,0.0,0.0,0.0,0.0,0.0,0.0,0.0,0.0,0.0,0.0,0.0,0.0,0.0,0.0,0.0,-3.1936,-3.1652,-3.1364,-3.1058,-3.0748,-3.0733,-3.1145,-3.1073,-3.1204,-3.1552,-3.1379,-3.1422,-3.161,-3.1823,-3.1879,-3.1921,-3.2602,-3.2819,-3.2641,0.0,0.0,0.0,0.0,0.0,0.0,0.0,0.0,0.0,0.0,-3.3309,-3.3309,-3.3309,0.0,0.0,0.0,0.0,0.0,-3.2996,-3.3118,-3.324,-3.3011,-3.3118,-3.3309,-3.3309,-3.4383,-3.5394,-3.5394,-3.65,-3.748,-3.748,-3.748,-3.748,-3.748,-3.7727,-3.8042,-3.8294,-3.8407,-3.8479,-3.8351,-3.8238,-3.8254,-3.8286,-3.8343,-3.8455,-3.8805,-3.8914,-3.9094,-3.9272,-3.9272,-3.9272,-3.9272,-3.9272,-3.9272,-3.9272,-3.9272,-3.9272,-3.9272,-3.8367,-3.7706,-3.737,-3.643,-3.5797,-3.5504,-3.5504,-3.5504,-3.5504,-3.5424,-3.5294,-3.5243,-3.5555,-3.5592,-3.5555,-3.5843,-3.5839,-3.5648,0.0,0.0,0.0,0.0,0.0,0.0,0.0,0.0,0.0,0.0,0.0,0.0,0.0,0.0,0.0,0.0,0.0,0.0,0.0,0.0,-3.216,-3.1709,-3.1407,-3.1233,-3.1175,-3.0375,-3.0208,-3.0584,-3.0598,-3.0792,-3.1176,-3.1552,-3.1766,-3.1766,-3.1766,-3.1766,-3.1766,-3.2256,-3.2437,-3.2477,0.0,0.0,0.0,0.0,0.0,0.0,0.0,0.0,0.0,0.0,0.0,0.0,0.0,0.0,0.0,-3.3256,-3.3309,-3.3187,-3.2711,-3.2942,-3.3187,-3.2711,-3.2942,-3.3309,-3.3309,-3.4383,-3.5394,-3.5394,-3.65,-3.748,-3.748,-3.748,-3.748,-3.748,-3.7828,-3.8141,-3.8141,-3.8574,-3.8739,-3.8197,-3.8197,-3.8141,-3.7828,-3.7886,-3.8116,-3.8639,-3.8733,-3.8914,-3.9272,-3.9272,-3.9272,-3.9272,-3.9272,-3.9272,-3.9272,-3.9272,-3.9272,-3.9272,-3.8645,-3.7994,-3.737,-3.6723,-3.6085,-3.5504,-3.5504,-3.5504,-3.5504,-3.5504,-3.5439,-3.5294,-3.5439,-3.5359,-3.5148,-3.509,-3.4905,-3.4742,0.0,0.0,0.0,0.0,0.0,0.0,0.0,0.0,0.0,0.0,0.0,0.0,0.0,0.0,0.0,0.0,0.0,0.0,0.0,0.0,-3.2398,-3.2342,-3.1218,-3.045,-3.0133,-3.0011,-3.0269,-3.0777,-3.0341,-3.0341,-3.0628,-3.1102,-3.1336,-3.1336,-3.1336,-3.1336,-3.1394,-3.1766,-3.1936,-3.1936,-3.1992,0.0,0.0,0.0,0.0,0.0,0.0,0.0,0.0,0.0,0.0,0.0,0.0,0.0,-3.2711,-3.3187,-3.3309,-3.3187,-3.2711,-3.2942,-3.3187,-3.2711,-3.2942,-3.3309,-3.3309,-3.4383,-3.5394,-3.5394,-3.65,-3.748,-3.748,-3.748,-3.748,-3.748,-3.7524,-3.7583,-3.7583,-3.7583,-3.7642,-3.7583,-3.7583,-3.7583,-3.7524,-3.7727,-3.8075,-3.8391,-3.8606,-3.8882,-3.9272,-3.9272,-3.9272,-3.9272,-3.9272,-3.9272,-3.9272,-3.9272,-3.9272,-3.9272,-3.8645,-3.7994,-3.737,-3.6723,-3.6085,-3.5504,-3.5504,-3.5504,-3.5504,-3.5504,-3.5504,-3.5504,-3.5504,-3.5344,-3.5103,-3.4861,-3.4668,-3.4432,0.0,0.0,0.0,0.0,0.0,0.0,0.0,0.0,0.0,0.0,0.0,0.0,0.0,0.0,0.0,0.0,0.0,0.0,0.0,-3.1709,-3.1992,-3.2398,-3.116,-3.0629,-3.0925,-3.0176,-2.9822,-3.0068,-3.0568,-3.1043,-3.1422,-3.161,-3.1552,-3.1278,-3.1278,-3.1176,-3.0866,-3.1336,-3.1495,-3.1552,-3.1823,-3.1992,0.0,0.0,0.0,0.0,0.0,0.0,0.0,0.0,-3.2492,-3.2602,-3.2437,-3.2327,-3.2272,-3.2726,-3.2888,-3.2765,-3.2256,-3.2492,-3.278,-3.2272,-3.2492,-3.2942,-3.324,-3.4383,-3.5394,-3.5394,-3.65,-3.748,-3.748,-3.748,-3.748,-3.748,-3.748,-3.748,-3.748,-3.748,-3.748,-3.748,-3.748,-3.748,-3.748,-3.7583,-3.7876,-3.8335,-3.8351,-3.8596,-3.9272,-3.9272,-3.9272,-3.9272,-3.9272,-3.9272,-3.9272,-3.9272,-3.9272,-3.9272,-3.8645,-3.7994,-3.737,-3.6723,-3.6085,-3.5504,-3.5504,-3.5504,-3.5504,-3.5504,-3.5504,-3.5504,-3.5504,-3.5469,-3.5302,-3.5266,-3.4898,-3.4403,0.0,0.0,0.0,0.0,0.0,0.0,0.0,0.0,0.0,0.0,0.0,0.0,0.0,0.0,0.0,0.0,0.0,0.0,-3.0866,-3.1058,-3.1349,-3.1807,-3.0852,-3.0569,-3.0999,-3.019,-2.9789,-2.9913,-3.0866,-3.1394,-3.148,-3.1652,-3.1495,-3.1102,-3.1102,-3.0866,-3.0642,-3.0925,-3.1161,-3.1336,-3.1437,-3.1595,0.0,0.0,0.0,0.0,0.0,0.0,0.0,0.0,-3.2048,-3.216,-3.1992,-3.1823,-3.1766,-3.2272,-3.2468,-3.2404,-3.1838,-3.2048,-3.2312,-3.1992,-3.2388,-3.2889,-3.3203,-3.4209,-3.511,-3.5347,-3.65,-3.748,-3.748,-3.748,-3.748,-3.748,-3.748,-3.748,-3.748,-3.748,-3.748,-3.748,-3.748,-3.748,-3.748,-3.748,-3.77,-3.8205,-3.8181,-3.8446,-3.9094,-3.9218,-3.9272,-3.9272,-3.9272,-3.9272,-3.9272,-3.9272,-3.9272,-3.9272,-3.8423,-3.7822,-3.737,-3.6723,-3.6085,-3.5504,-3.5504,-3.5504,-3.5504,-3.5504,-3.5504,-3.5504,-3.5504,-3.5484,-3.5478,-3.5508,-3.5156,-3.4677,0.0,0.0,0.0,0.0,0.0,0.0,0.0,0.0,0.0,0.0,0.0,0.0,0.0,0.0,0.0,0.0,0.0,0.0,-2.9504,-3.0133,-3.0524,-3.0524,-3.0208,-3.0011,-3.0011,-3.0083,-3.0294,-3.0568,-3.1058,-3.1043,-3.0628,-3.1058,-3.1043,-3.0568,-3.0568,-3.0568,-3.0568,-3.0568,-3.0866,-3.1219,-3.0821,-3.0866,-3.1278,0.0,0.0,0.0,0.0,0.0,0.0,0.0,-3.161,-3.1394,-3.1766,-3.161,-3.1394,-3.1781,-3.2129,-3.2251,-3.1511,-3.161,-3.1879,-3.1879,-3.2598,-3.3302,-3.3303,-3.3814,-3.4494,-3.5252,-3.65,-3.7464,-3.748,-3.748,-3.748,-3.748,-3.748,-3.748,-3.748,-3.748,-3.748,-3.748,-3.748,-3.748,-3.748,-3.748,-3.7642,-3.7886,-3.8205,-3.8488,-3.8805,-3.9094,-3.9272,-3.9272,-3.9272,-3.9272,-3.9272,-3.9272,-3.9272,-3.9272,-3.801,-3.7429,-3.737,-3.6723,-3.6085,-3.5504,-3.5504,-3.5504,-3.5504,-3.5504,-3.5504,-3.5504,-3.5504,-3.5504,-3.5519,-3.5478,-3.5523,-3.5413,0.0,0.0,0.0,0.0,0.0,0.0,0.0,0.0,0.0,0.0,0.0,0.0,0.0,0.0,0.0,0.0,0.0,0.0,-2.9504,-2.969,-3.0133,-3.0837,-2.987,-2.9808,-3.0703,-3.0568,-3.0522,-3.0568,-3.0747,-3.0747,-3.0568,-3.0747,-3.0747,-3.0568,-3.0568,-3.0568,-3.0568,-3.0568,-3.0687,-3.0821,-3.0642,-3.0687,-3.0807,0.0,0.0,0.0,0.0,0.0,0.0,0.0,0.0,0.0,-3.1029,-3.0911,-3.0866,-3.1336,-3.1539,-3.1584,-3.1351,-3.1439,-3.1569,-3.1509,-3.2061,-3.2715,-3.2773,-3.3567,-3.4636,-3.5868,-3.6453,-3.688,-3.7385,-3.748,-3.748,-3.748,-3.748,-3.748,-3.748,-3.748,-3.748,-3.748,-3.748,-3.748,-3.748,-3.748,-3.7642,-3.7886,-3.7831,-3.8028,-3.8701,-3.9117,-3.9313,-3.9272,-3.9272,-3.9272,-3.9272,-3.9272,-3.9272,-3.9272,-3.8423,-3.7822,-3.737,-3.6258,-3.5683,-3.5504,-3.5504,-3.5504,-3.5504,-3.5504,-3.5504,-3.5504,-3.5504,-3.5504,-3.5504,-3.5469,-3.5529,-3.5442,0.0,0.0,0.0,0.0,0.0,0.0,0.0,0.0,0.0,0.0,0.0,0.0,0.0,0.0,0.0,0.0,0.0,0.0,0.0,-2.9296,-2.9608,-3.0237,-2.9775,-2.9898,-3.0792,-3.0687,-3.0568,-3.0568,-3.0568,-3.0568,-3.0568,-3.0568,-3.0568,-3.0568,-3.0568,-3.0568,-3.0568,-3.0568,-3.0568,-3.0568,-3.0568,-3.0568,-3.0568,0.0,0.0,0.0,0.0,0.0,0.0,0.0,0.0,0.0,-3.0687,-3.0568,-3.0642,-3.0925,-3.1043,-3.1043,-3.1043,-3.1087,-3.1161,-3.1292,-3.1509,-3.1838,-3.2437,-3.3459,-3.4525,-3.5394,-3.5805,-3.6153,-3.6564,-3.6643,-3.6643,-3.6643,-3.6643,-3.6643,-3.6643,-3.6643,-3.6643,-3.6643,-3.6896,-3.7054,-3.7054,-3.7322,-3.7583,-3.7743,-3.761,-3.7776,-3.8414,-3.8985,-3.9056,-3.8454,-3.8623,-3.8874,-3.9332,-3.8874,-3.8907,-3.9272,-3.8367,-3.7764,-3.737,-3.6321,-3.5733,-3.5504,-3.5504,-3.5504,-3.5504,-3.5504,-3.5504,-3.5504,-3.5504,-3.5504,-3.5504,-3.5504,-3.5499,-3.5523,0.0,0.0,0.0,0.0,0.0,0.0,0.0,0.0,0.0,0.0,0.0,0.0,0.0,0.0,0.0,0.0,0.0,0.0,0.0,0.0,-2.9099,-2.9162,-2.9789,-3.028,-3.0568,-3.0568,-3.0568,-3.0568,-3.0568,-3.0568,-3.0568,-3.0568,-3.0568,-3.0568,-3.0568,-3.0568,-3.0568,-3.0568,-3.0568,-3.0568,-3.0568,-3.0568,-3.0568,-3.0568,0.0,0.0,0.0,0.0,0.0,0.0,0.0,0.0,-3.0568,-3.0568,-3.0568,-3.0568,-3.0568,-3.0568,-3.0568,-3.0568,-3.0687,-3.1102,-3.0925,-3.0966,-3.2266,-3.3357,-3.4155,-3.4273,-3.4826,-3.5315,-3.5379,-3.5394,-3.5394,-3.5394,-3.5394,-3.5394,-3.5394,-3.5394,-3.5394,-3.5394,-3.5947,-3.6327,-3.6327,-3.6911,-3.7291,-3.7291,-3.7367,-3.7575,-3.7923,-3.8629,-3.8405,-3.7091,-3.7475,-3.8179,-3.9087,-3.8179,-3.8209,-3.9073,-3.789,-3.7239,-3.718,-3.66,-3.6022,-3.5504,-3.5504,-3.5504,-3.5504,-3.5504,-3.5504,-3.5504,-3.5504,-3.5504,-3.5504,-3.5504,-3.5499,-3.5508,0.0,0.0,0.0,0.0,0.0,0.0,0.0,0.0,0.0,0.0,0.0,0.0,0.0,0.0,0.0,0.0,0.0,0.0,0.0,0.0,-2.9352,-2.9865,-3.028,-3.0522,-3.0568,-3.0568,-3.0568,-3.0568,-3.0568,-3.0568,-3.0568,-3.0568,-3.0568,-3.0568,-3.0568,-3.0568,-3.0568,-3.0568,-3.0568,-3.0568,-3.0568,-3.0568,-3.0568,-3.0568,-3.0568,0.0,0.0,0.0,0.0,0.0,0.0,0.0,-3.0568,-3.0568,-3.0568,-3.0568,-3.0568,-3.0568,-3.0568,-3.0568,-3.0628,-3.0762,-3.094,-3.1319,-3.1921,-3.2545,-3.3232,-3.4123,-3.4415,-3.4699,-3.5284,-3.5394,-3.5394,-3.5394,-3.5394,-3.5394,-3.5394,-3.5394,-3.5394,-3.5394,-3.5521,-3.5616,-3.5616,-3.5742,-3.5837,-3.5837,-3.6181,-3.6526,-3.6891,-3.6697,-3.6548,-3.6534,-3.7017,-3.735,-3.7567,-3.7367,-3.7384,-3.7566,-3.6804,-3.6213,-3.5758,-3.5722,-3.5619,-3.5504,-3.5504,-3.5504,-3.5504,-3.5504,-3.5504,-3.5504,-3.5504,-3.5504,-3.5504,-3.5504,-3.5519,-3.5469,0.0,0.0,0.0,0.0,0.0,0.0,0.0,0.0,0.0,0.0,0.0,0.0,0.0,0.0,0.0,0.0,0.0,0.0,0.0,0.0,-2.9789,-3.0355,-3.0522,-3.0568,-3.0568,-3.0568,-3.0568,-3.0568,-3.0568,-3.0568,-3.0568,-3.0568,-3.0568,-3.0568,-3.0568,-3.0568,-3.0568,-3.0568,-3.0568,-3.0568,-3.0568,-3.0568,-3.0568,-3.0568,-3.0568,-3.0568,-3.0568,0.0,0.0,0.0,0.0,0.0,0.0,0.0,-3.0568,-3.0568,-3.0568,-3.0568,-3.0568,-3.0568,-3.0568,-3.0568,-3.0925,-3.1336,-3.1552,-3.2104,-3.2749,-3.338,-3.3637,-3.3941,-3.432,-3.4383,-3.4383,-3.4383,-3.4383,-3.4383,-3.4383,-3.4383,-3.4383,-3.4383,-3.4668,-3.4857,-3.4857,-3.5189,-3.5394,-3.5394,-3.541,-3.5483,-3.5658,-3.5771,-3.5671,-3.5478,-3.6191,-3.6572,-3.6572,-3.6572,-3.6754,-3.7102,-3.6453,-3.571,-3.4831,-3.4622,-3.4547,-3.4547,-3.4547,-3.4711,-3.5011,-3.5011,-3.5205,-3.5504,-3.5504,-3.5504,-3.5504,-3.5504,-3.5469,-3.5514,0.0,0.0,0.0,0.0,0.0,0.0,0.0,0.0,0.0,0.0,0.0,0.0,0.0,0.0,0.0,0.0,0.0,0.0,0.0,0.0,0.0,-3.0568,-3.0568,-3.0568,-3.0568,-3.0568,-3.0568,-3.0568,-3.0568,-3.0568,-3.0568,-3.0568,-3.0568,-3.0568,-3.0568,-3.0568,-3.0568,-3.0568,-3.0568,-3.0568,-3.0568,-3.0568,-3.0568,-3.0568,-3.0568,-3.0568,-3.0568,-3.0568,-3.0568,-3.0568,0.0,0.0,0.0,0.0,-3.0568,-3.0568,-3.0568,-3.0568,-3.0568,-3.0568,-3.0568,-3.0568,-3.0866,-3.1161,-3.1161,-3.1766,-3.2382,-3.2382,-3.2888,-3.3309,-3.3309,-3.3309,-3.3309,-3.3309,-3.3309,-3.3309,-3.3309,-3.3309,-3.3309,-3.3309,-3.3783,-3.4115,-3.4115,-3.4668,-3.5031,-3.5031,-3.4683,-3.4463,-3.4546,-3.5091,-3.5098,-3.4444,-3.5268,-3.5761,-3.581,-3.581,-3.6125,-3.6721,-3.5974,-3.5015,-3.3956,-3.3427,-3.3275,-3.3499,-3.3499,-3.3799,-3.4307,-3.4307,-3.4711,-3.5325,-3.5325,-3.54,-3.5504,-3.5504,-3.5499,-3.5493,0.0,0.0,0.0,0.0,0.0,0.0,0.0,0.0,0.0,0.0,-2.8587,0.0,0.0,0.0,0.0,0.0,0.0,0.0,-2.9988,0.0,0.0,-3.0568,-3.0568,-3.0568,-3.0568,-3.0568,-3.0568,-3.0568,-3.0568,-3.0568,-3.0568,-3.0568,-3.0568,-3.0568,-3.0568,-3.0568,-3.0568,-3.0568,-3.0568,-3.0568,-3.0568,-3.0568,-3.0568,-3.0568,-3.0568,-3.0568,-3.0568,-3.0568,-3.0568,-3.0568,-3.0568,0.0,0.0,0.0,-3.0568,-3.0568,-3.0568,-3.0568,-3.0568,-3.0568,-3.0568,-3.0568,-3.0642,-3.0687,-3.0687,-3.1102,-3.1437,-3.1437,-3.2453,-3.3309,-3.3309,-3.3309,-3.3309,-3.3309,-3.3309,-3.3309,-3.3309,-3.3309,-3.3309,-3.3309,-3.3388,-3.3435,-3.3435,-3.353,-3.3577,-3.3577,-3.3546,-3.3604,-3.3834,-3.3918,-3.4127,-3.4497,-3.4611,-3.4791,-3.5048,-3.5048,-3.5098,-3.5181,-3.4108,-3.3269,-3.2659,-3.2068,-3.2422,-3.3499,-3.3499,-3.3544,-3.3619,-3.3619,-3.4023,-3.4607,-3.4607,-3.4981,-3.5504,-3.5504,-3.5519,-3.5519,0.0,0.0,0.0,0.0,0.0,0.0,0.0,0.0,0.0,0.0,0.0,-2.8651,0.0,0.0,0.0,-2.9602,-2.9803,-3.0036,-3.0341,-3.0522,-3.0568,-3.0568,-3.0568,-3.0568,-3.0568,-3.0568,-3.0568,-3.0568,-3.0568,-3.0568,-3.0568,-3.0568,-3.0568,-3.0568,-3.0568,-3.0568,-3.0568,-3.0568,-3.0568,-3.0568,-3.0568,-3.0568,-3.0568,-3.0568,-3.0568,-3.0568,-3.0568,-3.0568,-3.0568,-3.0568,-3.0568,-3.0568,-3.0568,0.0,0.0,0.0,-3.0568,-3.0568,-3.0568,-3.0568,-3.0568,-3.0568,-3.0568,-3.0568,-3.0568,-3.0984,-3.1278,-3.1278,-3.1951,-3.2617,-3.2834,-3.3118,-3.3309,-3.3309,-3.3309,-3.3309,-3.3309,-3.3309,-3.3309,-3.3309,-3.3309,-3.3309,-3.3309,-3.3309,-3.3309,-3.3309,-3.3309,-3.3346,-3.345,-3.3607,-3.3899,-3.425,-3.4399,-3.4643,-3.4899,-3.4899,-3.4899,-3.4899,-3.4068,-3.3387,-3.2841,-3.2272,-3.2113,-3.2392,-3.2392,-3.2602,-3.2946,-3.2946,-3.3335,-3.3918,-3.3918,-3.4337,-3.4936,-3.4936,-3.5175,-3.5504,0.0,0.0,0.0,0.0,0.0,0.0,0.0,0.0,0.0,0.0,0.0,0.0,0.0,0.0,0.0,0.0,-3.034,-3.0513,-3.0582,-3.0568,-3.0568,-3.0568,-3.0568,-3.0568,-3.0568,-3.0568,-3.0568,-3.0568,-3.0568,-3.0568,-3.0568,-3.0568,-3.0568,-3.0568,-3.0568,-3.0568,-3.0568,-3.0568,-3.0568,-3.0568,-3.0568,-3.0568,-3.0568,-3.0568,-3.0568,-3.0568,-3.0568,-3.0568,-3.0568,-3.0568,-3.0568,-3.0568,-3.0568,-3.0568,0.0,0.0,0.0,-3.0568,-3.0568,-3.0568,-3.0568,-3.0568,-3.0568,-3.0568,-3.0568,-3.0866,-3.1102,-3.1102,-3.1437,-3.1823,-3.2216,-3.2617,-3.2958,-3.3118,-3.3118,-3.3187,-3.3293,-3.3309,-3.3309,-3.3309,-3.3309,-3.3309,-3.3309,-3.3309,-3.3309,-3.3309,-3.3309,-3.3309,-3.3309,-3.3503,-3.3694,-3.4,-3.425,-3.4546,-3.4804,-3.4851,-3.4899,-3.4899,-3.4184,-3.3646,-3.3198,-3.2477,-3.191,-3.1482,-3.1482,-3.175,-3.2273,-3.2273,-3.2647,-3.3245,-3.3245,-3.3649,-3.4233,-3.4233,-3.4547,-3.5026,0.0,0.0,0.0,0.0,0.0,0.0,0.0,0.0,0.0,0.0,0.0,0.0,-2.9428,-3.0533,-3.104,-3.053,-3.1031,-3.1206,-3.0611,-3.0568,-3.0568,-3.0568,-3.0568,0.0,-3.0568,-3.0568,-3.0568,-3.0568,-3.0568,-3.0568,-3.0568,-3.0568,-3.0568,-3.0568,-3.0568,-3.0568,-3.0568,-3.0568,-3.0568,-3.0568,-3.0568,-3.0568,-3.0568,-3.0568,-3.0568,-3.0568,-3.0568,-3.0568,-3.0568,-3.0568,-3.0568,-3.0568,-3.0568,-3.0568,-3.0568,0.0,0.0,0.0,-3.0568,-3.0568,-3.0568,-3.0568,-3.0568,-3.0568,-3.0568,-3.0642,-3.0642,-3.0642,-3.0984,-3.1336,-3.1336,-3.1724,-3.2104,-3.2532,-3.2656,-3.2765,-3.324,-3.3309,-3.3309,-3.3309,-3.3309,-3.3309,-3.3309,-3.3309,-3.3309,-3.3309,-3.3309,-3.3309,-3.3309,-3.3293,-3.345,-3.3694,-3.4,-3.425,-3.4497,-3.4787,-3.4899,-3.4899,-3.3783,-3.3251,-3.313,-3.2048,-3.1524,-3.1482,-3.1482,-3.1497,-3.1526,-3.1526,-3.1973,-3.2557,-3.2557,-3.2961,-3.3544,-3.3544,-3.3559,-3.3679,0.0,0.0,0.0,0.0,0.0,0.0,0.0,0.0,0.0,0.0,0.0,0.0,0.0,-3.0837,-3.0992,-3.0843,-3.0902,-3.0814,-3.0582,-3.0568,-3.0568,-3.0568,-3.0568,-3.0568,-3.0568,-3.0568,-3.0568,-3.0568,-3.0568,-3.0568,-3.0568,-3.0568,-3.0568,-3.0568,-3.0568,-3.0568,-3.0568,-3.0568,-3.0568,-3.0568,-3.0568,-3.0568,-3.0568,-3.0568,-3.0568,-3.0568,-3.0568,-3.0568,-3.0568,-3.0568,-3.0568,-3.0568,-3.0568,-3.0568,-3.0568,-3.0568,-3.0568,-3.0568,-3.0568,-3.0568,-3.0568,-3.0568,-3.0568,-3.0568,-3.0568,-3.0568,-3.0568,-3.0568,-3.0747,-3.0866,-3.0866,-3.1437,-3.2033,-3.2532,-3.2586,-3.2765,-3.324,-3.3309,-3.3309,-3.3309,-3.3309,-3.3309,-3.3309,-3.3309,-3.3309,-3.3309,-3.3309,-3.3309,-3.3309,-3.3309,-3.3398,-3.3694,-3.3949,-3.43,-3.4739,-3.4851,-3.4899,-3.4899,-3.448,-3.3935,-3.3198,-3.2772,-3.2201,-3.1482,-3.1482,-3.1482,-3.1482,-3.1482,-3.1616,-3.1884,-3.1884,-3.2287,-3.2871,-3.2871,-3.3125,-3.3529,0.0,0.0,0.0,0.0,0.0,0.0,0.0,0.0,0.0,-2.9054,0.0,0.0,0.0,0.0,-3.1657,-3.1503,-3.0953,-3.0568,-3.0568,-3.0568,-3.0568,-3.0568,-3.0568,-3.0568,-3.0568,-3.0568,-3.0568,-3.0568,-3.0568,-3.0568,-3.0568,-3.0568,-3.0568,-3.0568,-3.0568,-3.0568,-3.0568,-3.0568,-3.0568,-3.0568,-3.0568,-3.0568,-3.0568,-3.0568,-3.0568,-3.0568,-3.0568,-3.0568,-3.0568,-3.0568,-3.0568,-3.0568,-3.0568,-3.0568,-3.0568,-3.0568,-3.0568,-3.0568,-3.0568,-3.0568,-3.0568,-3.0568,-3.0568,-3.0568,-3.0568,-3.0568,-3.0568,-3.0568,-3.0568,-3.0568,-3.0568,-3.1087,-3.1595,-3.2104,-3.2272,-3.2547,-3.3011,-3.3187,-3.3309,-3.3309,-3.3309,-3.3309,-3.3309,-3.3309,-3.3309,-3.3309,-3.3309,-3.3309,-3.3309,-3.3309,-3.345,-3.3797,-3.4,-3.4349,-3.4899,-3.4899,-3.4899,-3.4899,-3.4691,-3.4218,-3.3475,-3.3108,-3.2532,-3.1796,-3.1582,-3.1482,-3.1482,-3.1482,-3.1482,-3.1482,-3.1482,-3.1735,-3.2183,-3.2183,-3.2467,-3.2871,0.0,0.0,0.0,0.0,0.0,0.0,0.0,0.0,-2.7322,-2.8486,0.0,0.0,0.0,0.0,0.0,-3.255,-3.1322,-3.0568,-3.0568,-3.0568,-3.0568,-3.0568,-3.0568,-3.0568,-3.0568,-3.0568,-3.0568,-3.0568,-3.0568,-3.0568,-3.0568,-3.0568,-3.0568,-3.0568,-3.0568,-3.0568,-3.0568,-3.0568,-3.0568,-3.0568,-3.0568,-3.0568,-3.0568,-3.0568,-3.0568,-3.0568,-3.0568,-3.0568,-3.0568,-3.0568,-3.0568,-3.0568,-3.0568,-3.0568,-3.0568,-3.0568,-3.0568,-3.0568,0.0,0.0,0.0,-3.0568,-3.0568,-3.0568,-3.0568,-3.0568,-3.0568,-3.0568,-3.0568,-3.0568,-3.0568,-3.0568,-3.0747,-3.1234,-3.161,-3.2048,-3.2532,-3.2996,-3.3293,-3.3309,-3.3309,-3.3309,-3.3309,-3.3309,-3.3309,-3.3309,-3.3309,-3.3309,-3.3309,-3.3309,-3.3555,-3.405,-3.4101,-3.4349,-3.4899,-3.4899,-3.4899,-3.4899,-3.4349,-3.4101,-3.405,-3.2926,-3.2382,-3.2398,-3.1739,-3.1482,-3.1482,-3.1482,-3.1482,-3.1482,-3.1482,-3.1482,-3.1482,-3.1482,-3.1482,-3.1556,0.0,0.0,0.0,0.0,0.0,-2.6238,-2.6635,-2.7517,-2.8373,0.0,0.0,0.0,-3.1229,-3.1681,-3.1928,-3.2047,-3.1185,-3.0568,-3.0568,-3.0568,-3.0568,-3.0568,-3.0568,-3.0568,-3.0568,-3.0568,-3.0568,-3.0568,-3.0568,-3.0568,-3.0568,-3.0568,-3.0568,-3.0568,-3.0568,-3.0568,-3.0568,-3.0568,-3.0568,-3.0568,-3.0568,-3.0568,-3.0568,-3.0568,-3.0568,-3.0568,-3.0568,-3.0568,-3.0568,-3.0568,-3.0568,-3.0568,-3.0568,-3.0568,-3.0568,-3.0568,-3.0568,-3.0568,-3.0568,0.0,0.0,0.0,0.0,0.0,-3.0568,-3.0568,-3.0568,-3.0568,-3.0568,-3.0568,-3.0568,-3.0568,-3.0628,-3.0747,-3.1161,-3.1724,-3.2477,-3.2711,-3.2942,-3.324,-3.3309,-3.3309,-3.3309,-3.3309,-3.3309,-3.3309,-3.3309,-3.3309,-3.3309,-3.3309,-3.345,-3.3797,-3.3797,-3.405,-3.4594,-3.4594,-3.4707,-3.4899,-3.4756,-3.4497,-3.4101,-3.3319,-3.2803,-3.2398,-3.1739,-3.1482,-3.1482,-3.1482,-3.1482,-3.1482,-3.1482,-3.1482,-3.1482,-3.1482,-3.1482,-3.1497,0.0,0.0,0.0,0.0,0.0,-2.6286,-2.6851,-2.7673,-2.8504,0.0,0.0,0.0,-3.1037,-3.124,-3.1462,-3.1504,-3.0964,-3.0568,-3.0568,-3.0568,-3.0568,-3.0568,-3.0568,-3.0568,-3.0568,-3.0568,-3.0568,-3.0568,-3.0568,-3.0568,-3.0568,-3.0568,-3.0568,-3.0568,-3.0568,-3.0568,-3.0568,-3.0568,-3.0568,-3.0568,-3.0568,-3.0568,-3.0568,-3.0568,-3.0568,-3.0568,-3.0568,-3.0568,-3.0568,-3.0568,-3.0568,-3.0568,-3.0568,-3.0568,-3.0568,-3.0568,-3.0568,-3.0568,-3.0568,-3.0568,-3.0568,-3.0568,0.0,0.0,-3.0568,-3.0568,-3.0568,-3.0568,-3.0568,-3.0568,-3.0568,-3.0568,-3.0568,-3.0568,-3.0807,-3.1263,-3.1936,-3.2216,-3.2492,-3.2942,-3.3011,-3.3065,-3.3293,-3.3309,-3.3309,-3.3309,-3.3309,-3.3309,-3.3309,-3.3309,-3.3398,-3.3694,-3.3694,-3.3899,-3.4349,-3.4448,-3.4594,-3.4739,-3.4851,-3.4756,-3.4399,-3.385,-3.3266,-3.2695,-3.212,-3.1739,-3.1482,-3.1482,-3.1482,-3.1482,-3.1482,-3.1482,-3.1482,-3.1482,-3.1482,-3.1482,0.0,0.0,-2.5312,-2.5312,-2.5745,-2.6262,-2.6767,-2.7296,-2.7944,0.0,-2.9155,-2.9644,-3.0739,-3.0993,-3.1092,-3.1054,-3.0686,-3.0507,-3.0568,-3.0568,-3.0568,-3.0568,-3.0568,-3.0568,-3.0568,-3.0568,-3.0568,-3.0568,-3.0568,-3.0568,-3.0568,-3.0568,-3.0568,-3.0568,-3.0568,-3.0568,-3.0568,-3.0568,-3.0568,-3.0568,-3.0568,-3.0568,-3.0568,-3.0568,-3.0568,-3.0568,-3.0568,-3.0568,-3.0568,-3.0568,-3.0568,-3.0568,-3.0568,-3.0568,-3.0568,-3.0568,-3.0568,-3.0568,-3.0568,-3.0568,-3.0568,-3.0568,-3.0568,0.0,-3.0568,-3.0568,-3.0568,-3.0568,-3.0568,-3.0568,-3.0568,-3.0568,-3.0568,-3.0568,-3.0568,-3.0747,-3.1219,-3.161,-3.1992,-3.2477,-3.2532,-3.2711,-3.3187,-3.324,-3.324,-3.3309,-3.3309,-3.3309,-3.3309,-3.3309,-3.3398,-3.3658,-3.3658,-3.3797,-3.405,-3.43,-3.4448,-3.4497,-3.4739,-3.4899,-3.4899,-3.4349,-3.3764,-3.3182,-3.2641,-3.2079,-3.1482,-3.1482,-3.1482,-3.1482,-3.1482,-3.1482,-3.1482,-3.1482,-3.1482,-3.1482,0.0,-2.5312,-2.5312,-2.5312,-2.5745,-2.6142,-2.6238,-2.6731,-2.7128,-2.7375,-2.7815,-2.8775,-3.0486,-2.974,-2.9736,-3.1262,-3.0425,-3.0007,-3.0568,-3.0568,-3.0568,-3.0568,-3.0568,-3.0568,-3.0568,-3.0568,-3.0568,-3.0568,-3.0568,-3.0568,-3.0568,-3.0568,-3.0568,-3.0568,-3.0568,-3.0568,-3.0568,-3.0568,-3.0568,-3.0568,-3.0568,-3.0568,-3.0568,-3.0568,-3.0568,-3.0568,-3.0568,-3.0568,-3.0568,-3.0568,-3.0568,-3.0568,-3.0568,-3.0568,-3.0568,-3.0568,-3.0568,-3.0568,-3.0568,-3.0568,-3.0568,-3.0568,-3.0568,0.0,-3.0568,-3.0568,-3.0568,-3.0568,-3.0568,-3.0568,-3.0568,-3.0568,-3.0568,-3.0568,-3.0568,-3.0747,-3.1219,-3.1394,-3.1552,-3.1992,-3.2048,-3.2201,-3.2711,-3.2711,-3.2888,-3.324,-3.3309,-3.3309,-3.3309,-3.3309,-3.3293,-3.3361,-3.3398,-3.3503,-3.3761,-3.3848,-3.405,-3.4497,-3.4546,-3.4691,-3.4899,-3.4349,-3.3764,-3.3182,-3.2641,-3.2079,-3.1482,-3.1482,-3.1482,-3.1482,-3.1482,-3.1482,-3.1482,-3.1482,-3.1482,-3.1467,-2.5312,-2.5312,-2.5312,-2.5312,-2.5528,-2.5793,-2.6057,-2.6334,-2.6707,-2.726,-2.8071,-2.8849,-2.9496,-2.9353,-2.9555,-3.0358,-2.9989,-2.9941,-3.0395,-3.0101,-3.0122,-3.0463,-3.0225,-3.0251,-3.0568,-3.0568,-3.0568,-3.0568,-3.0568,-3.0568,-3.0568,-3.0568,-3.0609,-3.0571,-3.0594,-3.0609,-3.0571,-3.058,-3.0568,-3.0568,-3.0568,-3.0404,-3.009,-3.0208,-3.0147,-2.9964,-3.0266,-3.0462,-3.0568,-3.0568,-3.0568,-3.0568,-3.0568,-3.0568,-3.0568,-3.0568,-3.0568,-3.0568,-3.0568,-3.0568,-3.0568,-3.0568,-3.0568,0.0,0.0,-3.0269,-3.0507,-3.019,-3.0387,-3.0568,-3.0568,-3.0568,-3.0568,-3.0568,-3.0568,-3.0687,-3.0925,-3.0925,-3.1102,-3.1552,-3.161,-3.1781,-3.2201,-3.2477,-3.2765,-3.324,-3.3309,-3.3309,-3.3309,-3.3309,-3.3309,-3.3309,-3.3309,-3.3346,-3.3503,-3.3642,-3.3899,-3.43,-3.4448,-3.4643,-3.4899,-3.4594,-3.4002,-3.3198,-3.2895,-3.2327,-3.1482,-3.1482,-3.1482,-3.1482,-3.1482,-3.1482,-3.1482,-3.1482,-3.1482,-3.1482,-2.5312,-2.5312,-2.5312,-2.5312,-2.5312,-2.5492,-2.6021,-2.6093,-2.6454,-2.744,-2.8387,-2.8781,-2.8487,-2.9009,-2.9404,-2.939,-2.9548,-2.9827,-3.0241,-2.9835,-2.9948,-3.0656,-3.0192,-3.024,-3.0756,-3.0638,-3.0609,-3.0609,-3.0606,-3.0589,-3.0574,-3.0577,-3.0571,-3.0568,-3.038,-3.038,-3.0592,-3.0441,-3.0372,-3.0447,-3.0507,-3.0179,-2.9714,-3.0003,-2.9874,-2.961,-3.0007,-3.0319,-3.0522,-3.0522,-3.0582,-3.0568,-3.0568,-3.0568,-3.0568,-3.0568,-3.0568,-3.0568,-3.0568,-3.0568,-3.0568,-3.0568,-3.0568,-3.0418,0.0,0.0,0.0,-2.9732,-3.0129,-3.0568,-3.0447,-3.0507,-3.0524,-3.0288,-3.0435,-3.0524,-3.0288,-3.0435,-3.0747,-3.1102,-3.1161,-3.1336,-3.1709,-3.2256,-3.2765,-3.3134,-3.324,-3.3309,-3.3309,-3.3309,-3.3309,-3.3309,-3.3309,-3.3309,-3.3309,-3.3503,-3.3745,-3.405,-3.43,-3.4546,-3.4835,-3.4899,-3.4251,-3.3182,-3.3182,-3.2571,-3.1482,-3.1482,-3.1482,-3.1482,-3.1482,-3.1482,-3.1482,-3.1482,-3.1482,-3.1482,-2.5312,-2.5312,-2.5312,-2.5312,-2.5312,-2.5492,-2.6021,-2.6093,-2.6322,-2.6947,-2.7067,-2.7432,-2.8195,-2.7779,-2.8036,-2.9355,-2.9015,-2.917,-3.0378,-3.0689,-3.1114,-3.1681,-3.1415,-3.1348,-3.1409,-3.084,-3.0587,-3.0587,-3.0573,-3.0588,-3.0588,-3.0606,-3.0616,-3.0554,-2.9484,-2.9633,-3.0565,-2.9775,-2.9656,-2.9964,-3.0083,-3.0068,-2.9931,-3.062,-3.0672,-3.0403,-3.0417,-3.0332,-3.0172,-3.0172,-3.0341,-3.0568,-3.0568,-3.0568,-3.0568,-3.0568,-3.0568,-3.0568,-3.0568,-3.0568,-3.0568,-3.0568,-3.0568,-3.0568,-3.0493,0.0,-2.9419,-2.96,0.0,-3.0447,-2.9808,0.0,0.0,-2.9086,-2.9892,-3.0185,-2.9072,-2.9906,-3.0642,-3.0687,-3.0687,-3.0866,-3.1336,-3.2104,-3.2641,-3.2656,-3.3065,-3.3309,-3.3309,-3.3309,-3.3309,-3.3309,-3.3309,-3.3309,-3.3309,-3.3346,-3.3503,-3.3761,-3.4,-3.43,-3.4546,-3.4787,-3.4251,-3.3182,-3.3182,-3.2571,-3.1482,-3.1482,-3.1482,-3.1482,-3.1482,-3.1482,-3.1482,-3.1482,-3.1482,-3.1482,-2.5432,-2.5312,-2.5408,-2.5709,-2.5769,-2.5949,-2.6502,-2.6839,-2.7128,-2.7356,-2.7657,-2.7992,-2.8329,-2.8135,-2.8277,-2.9063,-2.885,-2.8938,-2.9674,-2.9499,-2.9725,-3.0351,-2.9996,-2.9957,-3.0345,-3.0547,-3.0232,-2.9405,-2.8621,-2.8197,-2.8244,-2.8248,-2.8566,-2.9056,-2.8373,-2.8214,-2.861,-2.8853,-2.9315,-2.9812,-3.0186,-3.0397,-3.0485,-3.0429,-3.0322,-3.0192,-3.0192,-3.0073,-2.9803,-2.9803,-3.0036,-3.028,-3.028,-3.0462,-3.0568,-3.0568,-3.0568,-3.0568,-3.0568,-3.0568,-3.0568,-3.0568,-3.0568,-3.0329,-2.9226,-2.9218,-2.9246,-2.8542,0.0,0.0,0.0,0.0,0.0,0.0,-2.9039,-2.931,-2.9271,-2.9316,-2.9656,-3.0507,-3.0568,-3.0807,-3.1219,-3.161,-3.1936,-3.216,-3.2602,-3.2888,-3.2888,-3.3134,-3.3309,-3.3309,-3.3309,-3.3309,-3.3309,-3.3309,-3.345,-3.3694,-3.3949,-3.425,-3.4497,-3.4804,-3.4251,-3.3182,-3.3182,-3.2571,-3.1482,-3.1482,-3.1482,-3.1482,-3.1482,-3.1482,-3.1482,-3.1482,-3.1482,-3.1482,-2.5913,-2.5757,-2.5877,-2.6262,-2.6322,-2.6514,-2.7067,-2.7596,-2.7933,-2.7933,-2.827,-2.857,-2.8703,-2.8727,-2.8807,-2.8943,-2.8943,-2.9041,-2.9131,-2.8904,-2.9038,-2.9676,-2.9284,-2.9249,-2.979,-3.0121,-2.9894,-2.8937,-2.7084,-2.6156,-2.6181,-2.6308,-2.6868,-2.7758,-2.7591,-2.7472,-2.7403,-2.8448,-2.91,-2.9361,-3.0083,-3.0538,-3.076,-3.0472,-3.0278,-3.0127,-3.0127,-2.9827,-2.9477,-2.9477,-2.9665,-2.9988,-2.9988,-3.0158,-3.0462,-3.0462,-3.0387,-3.0387,-3.0568,-3.058,-3.0563,-3.0341,-3.0165,-2.97,-2.8325,-2.8752,-2.9115,-2.7802,-2.8648,0.0,0.0,0.0,-2.9038,-2.816,0.0,-2.8566,-2.8809,-2.8652,-2.9016,-3.0433,-3.0568,-3.0747,-3.1058,-3.1219,-3.1452,-3.1709,-3.216,-3.2437,-3.2437,-3.2834,-3.3118,-3.3118,-3.324,-3.3309,-3.3309,-3.3309,-3.3398,-3.3607,-3.3848,-3.4151,-3.4399,-3.4643,-3.4202,-3.3182,-3.3182,-3.2571,-3.1482,-3.1482,-3.1482,-3.1482,-3.1482,-3.1467,-3.1467,-3.1394,-3.1467,-3.1468,-2.6887,-2.6875,-2.6887,-2.6899,-2.6899,-2.7091,-2.7621,-2.815,-2.8486,-2.8486,-2.8498,-2.8703,-2.922,-2.9268,-2.928,-2.9268,-2.9268,-2.9282,-2.9378,-2.9756,-3.019,-3.0781,-3.0599,-3.0427,-3.0498,-2.9889,-2.9778,-3.0164,-2.6915,-2.5362,-2.5338,-2.5765,-2.6342,-2.7159,-2.7364,-2.767,-2.8026,-2.8812,-2.8865,-2.8454,-2.9573,-3.0187,-3.0461,-3.102,-3.088,-3.0378,-3.0378,-2.9871,-2.9099,-2.9099,-2.9352,-2.9602,-2.9602,-2.9865,-3.0111,-3.0111,-2.9898,-2.9747,-3.0447,-3.0632,-3.042,-2.9769,-2.9094,-2.8539,-2.8474,-2.8856,-2.8878,-2.771,-2.8648,-2.917,-2.7802,-2.8051,-2.8187,-2.6933,-2.7742,0.0,0.0,-2.7755,-2.9016,-3.0433,-3.0568,-3.0628,-3.0642,-3.1043,-3.1278,-3.1351,-3.1724,-3.1936,-3.1936,-3.2382,-3.2641,-3.2641,-3.3065,-3.3309,-3.3309,-3.3309,-3.3293,-3.3309,-3.3591,-3.3848,-3.4101,-3.4399,-3.4002,-3.3182,-3.3182,-3.2571,-3.1482,-3.1482,-3.1482,-3.1482,-3.1482,-3.1409,-3.1278,-3.1233,-3.1351,-3.1485,-2.6163,-2.6657,-2.7132,-2.7358,-2.7452,-2.7633,-2.8162,-2.839,-2.851,-2.851,-2.8823,-2.91,-2.928,-2.9617,-2.9702,-2.9535,-2.9535,-2.9534,-2.9506,-2.9646,-2.9756,-2.9873,-2.9754,-2.9571,-2.921,-2.8971,-2.8936,-2.9076,-2.7274,-2.6372,-2.6311,-2.5914,-2.5901,-2.6094,-2.622,-2.6195,-2.6289,-2.7246,-2.7786,-2.8147,-3.0026,-3.1135,-3.1581,-3.1798,-3.126,-3.0405,-3.0405,-2.9698,-2.878,-2.878,-2.8972,-2.9289,-2.9289,-2.9477,-2.9803,-2.9803,-2.954,-2.9275,-2.9373,-2.94,-2.9398,-2.9429,-2.8634,-2.7975,-2.8373,-2.8285,-2.7815,-2.7027,-2.755,-2.7934,-2.704,-2.7417,-2.7538,-2.6716,-2.6912,-2.7165,0.0,-2.7983,-2.8492,-2.8505,-2.9345,-2.9931,-2.9931,-3.0493,-3.0807,-3.0807,-3.1263,-3.1495,-3.1495,-3.2216,-3.2586,-3.2586,-3.3065,-3.3309,-3.3309,-3.3309,-3.3309,-3.3309,-3.3555,-3.3761,-3.3848,-3.3799,-3.3423,-3.2788,-3.2485,-3.1962,-3.1351,-3.1351,-3.1351,-3.1351,-3.1351,-3.1292,-3.119,-3.1219,-3.1234,-3.0911,-2.5746,-2.6588,-2.7244,-2.749,-2.7758,-2.8114,-2.8462,-2.851,-2.8582,-2.8763,-2.9088,-2.9448,-2.9821,-3.017,-3.0241,-2.9964,-2.9952,-2.9989,-2.9966,-2.9954,-2.981,-2.9593,-2.94,-2.9136,-2.8799,-2.8626,-2.85,-2.8512,-2.7819,-2.7211,-2.6651,-2.6153,-2.5788,-2.5523,-2.5746,-2.5594,-2.5431,-2.685,-2.7528,-2.7668,-2.9718,-3.0934,-3.1529,-3.1316,-3.0878,-3.0405,-3.0405,-2.9618,-2.8587,-2.8587,-2.8716,-2.8908,-2.8702,-2.8894,-2.9085,-2.8881,-2.861,-2.8352,-2.8468,-2.8341,-2.8198,-2.8403,-2.7879,-2.7354,-2.7551,-2.7404,-2.7082,-2.6452,-2.6824,-2.7082,-2.6383,-2.6633,-2.6756,-2.6383,-2.6327,-2.6452,0.0,-2.7484,-2.7604,-2.7229,-2.839,-2.9282,-2.9546,-3.0007,-3.0326,-3.0568,-3.0866,-3.1043,-3.1043,-3.1709,-3.2216,-3.2382,-3.2834,-3.3118,-3.3309,-3.3309,-3.3309,-3.3309,-3.345,-3.3607,-3.3694,-3.3371,-3.3039,-3.2586,-3.2114,-3.1637,-3.1234,-3.1234,-3.1234,-3.1234,-3.1234,-3.1117,-3.1014,-3.1117,-3.1027,-3.0495,-2.5652,-2.6412,-2.7092,-2.7185,-2.7926,-2.851,-2.851,-2.8534,-2.8727,-2.9232,-2.9352,-2.9761,-3.0771,-3.0903,-3.0879,-3.0635,-3.0635,-3.0675,-3.0616,-3.0688,-3.0531,-3.023,-2.9629,-2.9328,-2.9304,-2.8775,-2.851,-2.851,-2.8487,-2.7738,-2.6443,-2.6382,-2.6033,-2.5312,-2.5873,-2.5873,-2.5443,-2.7557,-2.7925,-2.7131,-2.8765,-2.9781,-3.0215,-2.9689,-2.9791,-3.0295,-3.0295,-2.9524,-2.8522,-2.8522,-2.8522,-2.8457,-2.7908,-2.7973,-2.8157,-2.7617,-2.7204,-2.7002,-2.7723,-2.7391,-2.6854,-2.6867,-2.6854,-2.6676,-2.6094,-2.6414,-2.6676,-2.6037,-2.6414,-2.6676,-2.6037,-2.591,-2.591,-2.591,-2.591,-2.598,-2.6131,-2.6396,-2.6533,-2.6465,-2.7604,-2.8698,-2.9421,-2.956,-2.987,-3.0507,-3.0568,-3.0568,-3.0568,-3.1043,-3.1509,-3.1879,-3.2312,-3.278,-3.324,-3.324,-3.324,-3.3256,-3.3256,-3.3398,-3.3642,-3.3177,-3.2788,-3.2532,-3.2059,-3.1522,-3.1087,-3.1087,-3.1087,-3.1087,-3.1087,-3.0955,-3.0762,-3.0762,-3.0606,-3.0118,-2.3724,-2.4573,-2.5589,-2.6928,-2.7926,-2.851,-2.851,-2.8847,-2.9148,-2.928,-2.9977,-3.0579,-3.0843,-3.1228,-3.1456,-3.1432,-3.1432,-3.1396,-3.1399,-3.1399,-3.1354,-3.1259,-3.0411,-2.9701,-2.9304,-2.8775,-2.851,-2.851,-2.8108,-2.7488,-2.68,-2.637,-2.5829,-2.5312,-2.5453,-2.5453,-2.5348,-2.6299,-2.7275,-2.8235,-2.9068,-2.9542,-2.9689,-2.9535,-2.9086,-2.8525,-2.8525,-2.8056,-2.7443,-2.7443,-2.7443,-2.7377,-2.7242,-2.7229,-2.731,-2.7162,-2.6824,-2.6552,-2.662,-2.6277,-2.607,-2.6569,-2.6321,-2.607,-2.6539,-2.6414,-2.6094,-2.598,-2.6037,-2.6094,-2.591,-2.591,-2.591,-2.591,-2.6062,-2.6062,-2.598,-2.6258,-2.6465,-2.627,-2.6714,-2.7297,-2.7999,-2.898,-2.9685,-2.9808,-3.0312,-3.0568,-3.0568,-3.1043,-3.1336,-3.1452,-3.1879,-3.216,-3.2272,-3.2272,-3.2437,-3.2765,-3.2765,-3.2819,-3.2873,-3.2422,-3.1977,-3.161,-3.1146,-3.0911,-3.0895,-3.0895,-3.0895,-3.0895,-3.0895,-3.0507,-2.9856,-2.9695,-2.9373,-2.8825,-2.3271,-2.4216,-2.533,-2.6879,-2.747,-2.7997,-2.8722,-2.9304,-2.9725,-2.9965,-3.0506,-3.0963,-3.1192,-3.148,-3.1661,-3.1661,-3.1661,-3.1661,-3.1661,-3.1661,-3.1665,-3.1659,-3.064,-2.9941,-2.9653,-2.8895,-2.851,-2.851,-2.821,-2.7681,-2.6923,-2.661,-2.6045,-2.5312,-2.5312,-2.5312,-2.5348,-2.5877,-2.6809,-2.7912,-2.8218,-2.8524,0.0,-2.8174,-2.777,-2.7404,-2.6954,-2.6886,-2.6973,-2.6973,-2.6973,-2.6973,-2.6701,-2.6633,-2.6633,-2.6346,-2.607,-2.5931,-2.5804,-2.5664,-2.5594,-2.5906,-2.5779,-2.5594,-2.6126,-2.5931,-2.5606,-2.5606,-2.5606,-2.5606,-2.5606,-2.5606,-2.5606,-2.5606,-2.5828,-2.591,-2.5758,-2.6037,-2.6188,-2.605,-2.627,-2.6521,-2.6905,-2.826,-2.9219,-2.956,-3.019,-3.0568,-3.0568,-3.0866,-3.1102,-3.1278,-3.1495,-3.1709,-3.1879,-3.1879,-3.2048,-3.2312,-3.2312,-3.2312,-3.2256,-3.1823,-3.1495,-3.1278,-3.0807,-3.0642,-3.0702,-3.0702,-3.0702,-3.0702,-3.0387,-3.0007,-2.9484,-2.8757,-2.8468,-2.8277,-2.371,-2.4496,-2.5562,-2.6719,-2.6761,-2.7184,-2.8868,-2.963,-3.0168,-3.0635,-3.0841,-3.1156,-3.1613,-3.1661,-3.1661,-3.1661,-3.1661,-3.1661,-3.1661,-3.1661,-3.1625,-3.1529,-3.0603,-3.0062,-2.9989,-2.9015,-2.851,-2.851,-2.851,-2.7969,-2.6935,-2.6935,-2.6358,-2.5312,-2.5312,-2.5312,-2.5348,-2.5877,-2.6382,-2.6827,-2.6899,-2.7174,-2.7483,-2.6493,-2.6407,-2.6618,-2.5681,-2.5931,-2.6756,-2.6756,-2.6756,-2.6688,-2.622,-2.6082,-2.5943,-2.5453,-2.5312,-2.5312,-2.5312,-2.5312,-2.5312,-2.5312,-2.5312,-2.5312,-2.5312,-2.5312,-2.5312,-2.5312,-2.5312,-2.5312,-2.5312,-2.5312,-2.5312,-2.5312,-2.5465,-2.5606,-2.5535,-2.5758,-2.591,-2.5828,-2.6062,0.0,-2.6213,-2.755,-2.8698,-2.9421,-3.0068,-3.0507,-3.0568,-3.0568,-3.0821,-3.1234,-3.1219,-3.1394,-3.1709,-3.1709,-3.1766,-3.1823,-3.1823,-3.1823,-3.1823,-3.1452,-3.1292,-3.1161,-3.0747,-3.0568,-3.0568,-3.0568,-3.0568,-3.0507,-2.987,-2.9546,-2.9296,-2.8012,-2.7867,-2.8039,-2.3858,-2.4127,-2.4661,-2.5844,-2.6165,-2.6739,-2.7999,-2.8754,-2.9297,-2.9589,-3.079,-3.1565,-3.1661,-3.1661,-3.1661,-3.1661,-3.1661,-3.1661,-3.1661,-3.1661,-3.1309,-3.045,-3.0156,-2.9881,-2.9448,-2.8823,-2.851,-2.851,-2.851,-2.7969,-2.6935,-2.6935,-2.6358,-2.5312,-2.5312,-2.5312,-2.5348,-2.5877,-2.6154,-2.6286,-2.6755,-2.6733,-2.6372,-2.6202,-2.5901,-2.5562,-2.5336,-2.5441,-2.5581,-2.5581,-2.5581,-2.5581,-2.5523,-2.5453,-2.5453,-2.5312,-2.5312,-2.5312,-2.5312,-2.5312,-2.5312,-2.5312,-2.5312,-2.5312,-2.5312,-2.5312,-2.5312,-2.5312,-2.5312,-2.5312,-2.5312,-2.5312,-2.5312,-2.5312,-2.5465,-2.5535,-2.5382,-2.5676,-2.5828,-2.5676,-2.598,-2.6213,-2.6213,-2.7095,-2.7934,-2.8634,-2.9345,-3.0007,-3.0568,-3.0568,-3.0642,-3.0687,-3.0687,-3.0747,-3.0807,-3.0807,-3.1043,-3.1394,-3.1394,-3.1394,-3.1394,-3.1336,-3.1102,-3.0702,-3.0642,-3.0568,-3.0568,-3.0568,-3.0568,-3.0507,-2.987,-2.9219,-2.8634,-2.7947,-2.74,-2.679,-2.423,-2.422,-2.4507,-2.5163,-2.5339,-2.5563,-2.6209,-2.6931,-2.8034,-2.9623,-3.0481,-3.1104,-3.1661,-3.1692,-3.1671,-3.1671,-3.1699,-3.1687,-3.1687,-3.1222,-3.0601,-3.0083,-2.9822,-2.9556,-2.9304,-2.8775,-2.851,-2.851,-2.8234,-2.7705,-2.6923,-2.6635,-2.6069,-2.5312,-2.5312,-2.5312,-2.5324,-2.5576,-2.5685,-2.5709,-2.5985,-2.5937,-2.5685,-2.5685,-2.5528,-2.5312,-2.5312,-2.5312,-2.5312,-2.5312,-2.5312,-2.5312,-2.5312,-2.5312,-2.5312,-2.5312,-2.5312,-2.5312,-2.5312,-2.5312,-2.5312,-2.5312,-2.5312,-2.5312,-2.5312,-2.5312,-2.5312,-2.5312,-2.5312,-2.5312,-2.5312,-2.5312,-2.5312,-2.5312,-2.5382,-2.5382,-2.5312,-2.5465,-2.5535,-2.5465,-2.5688,-2.591,-2.605,-2.6521,-2.7162,-2.792,-2.8967,-2.9747,-3.0068,-3.0387,-3.0568,-3.0568,-3.0568,-3.0568,-3.0568,-3.0568,-3.0687,-3.0925,-3.0925,-3.0925,-3.0925,-3.0925,-3.0807,-3.0568,-3.0568,-3.0568,-3.0568,-3.0568,-3.0387,-3.0007,-2.9282,-2.857,-2.7934,-2.7335,-2.6888,-2.6533,-2.444,-2.4529,-2.4529,-2.4833,-2.4637,-2.4599,-2.472,-2.5257,-2.6486,-2.9131,-2.9613,-3.0009,-3.085,-3.1057,-3.1136,-3.1381,-3.16,-3.1475,-3.1038,-3.0218,-2.9762,-2.9774,-2.9496,-2.9244,-2.9136,-2.8727,-2.851,-2.851,-2.7981,-2.7452,-2.6923,-2.6358,-2.5817,-2.5312,-2.5312,-2.5312,-2.5312,-2.5312,-2.5312,-2.5312,-2.5312,-2.5312,-2.5312,-2.5312,-2.5312,-2.5312,-2.5312,-2.5312,-2.5312,-2.5312,-2.5312,-2.5312,-2.5312,-2.5312,-2.5312,-2.5312,-2.5312,-2.5312,-2.5312,-2.5312,-2.5312,-2.5312,-2.5312,-2.5312,-2.5312,-2.5312,-2.5312,-2.5312,-2.5312,-2.5312,-2.5312,-2.5312,-2.5312,-2.5312,-2.5312,-2.5312,-2.5312,-2.5312,-2.5312,-2.5312,-2.5465,-2.5676,-2.5828,-2.598,-2.6383,-2.7095,-2.839,-2.9233,-2.9359,-3.0007,-3.0387,-3.0387,-3.0507,-3.0568,-3.0568,-3.0568,-3.0568,-3.0568,-3.0568,-3.0568,-3.0568,-3.0568,-3.0568,-3.0568,-3.0568,-3.0568,-3.0568,-3.0447,-3.0068,-2.9484,-2.8634,-2.7986,-2.7417,-2.6782,-2.6533,-2.6533,-2.444,-2.4529,-2.4529,-2.4833,-2.4637,-2.4506,-2.4343,-2.4181,-2.4871,-2.6863,-2.7562,-2.8025,-2.8409,-2.8794,-2.9414,-3.0212,-3.1162,-3.0893,-2.8902,-2.8736,-2.8667,-2.8621,-2.9068,-2.9076,-2.8595,-2.8534,-2.851,-2.851,-2.7981,-2.7452,-2.6923,-2.6358,-2.5817,-2.5312,-2.5312,-2.5312,-2.5312,-2.5312,-2.5312,-2.5312,-2.5312,-2.5312,-2.5312,-2.5312,-2.5312,-2.5312,-2.5312,-2.5312,-2.5312,-2.5312,-2.5312,-2.5312,-2.5312,-2.5312,-2.5312,-2.5312,-2.5312,-2.5312,-2.5312,-2.5312,-2.5312,-2.5312,-2.5312,-2.5312,-2.5312,-2.5312,-2.5312,-2.5312,-2.5312,-2.5312,-2.5312,-2.5312,-2.5312,-2.5312,-2.5312,-2.5312,-2.5312,-2.5312,-2.5312,-2.5312,-2.5465,-2.5618,-2.5606,-2.5828,-2.598,-2.6037,-2.7082,-2.7934,-2.8556,-2.9282,-2.9685,-2.9685,-3.0251,-3.0568,-3.0568,-3.0568,-3.0568,-3.0568,-3.0568,-3.0568,-3.0568,-3.0568,-3.0568,-3.0568,-3.0568,-3.0568,-3.0568,-2.9931,-2.9685,-2.9498,-2.813,-2.7537,-2.7417,-2.6782,-2.6533,-2.6533,-2.4341,-2.4341,-2.4267,-2.4115,-2.3971,-2.3842,-2.3539,-2.3389,-2.3616,-2.461,-2.5757,-2.6504,-2.6815,-2.6966,-2.7667,-2.8993,-2.8541,-2.7356,-2.5398,-2.6629,-2.7415,-2.744,-2.8324,-2.8727,-2.851,-2.851,-2.8354,-2.8041,-2.7512,-2.6971,-2.6418,-2.5877,-2.5516,-2.5312,-2.5312,-2.5312,-2.5312,-2.5312,-2.5312,-2.5312,-2.5312,-2.5312,-2.5312,-2.5312,-2.5312,-2.5312,-2.5312,-2.5312,-2.5312,-2.5312,-2.5312,-2.5312,-2.5312,-2.5312,-2.5312,-2.5312,-2.5312,-2.5312,-2.5312,-2.5312,-2.5312,-2.5312,-2.5312,-2.5312,-2.5312,-2.5312,-2.5312,-2.5312,-2.5312,-2.5312,-2.5312,-2.5312,-2.5312,-2.5312,-2.5312,-2.5312,-2.5312,-2.5312,-2.5312,-2.5312,-2.5382,-2.5465,-2.5606,-2.5676,-2.5758,-2.591,-2.6756,-2.7604,-2.8298,-2.8698,-2.9345,-3.019,-2.9656,-2.9732,-3.0568,-3.019,-3.019,-3.0568,-3.0568,-3.0568,-3.0568,-3.0568,-3.0568,-3.0568,-3.019,-3.0007,-2.9931,-2.9219,-2.8698,-2.826,-2.7736,-2.7229,-2.6837,-2.6589,-2.6533,-2.6533,-2.3996,-2.3978,-2.384,-2.3446,-2.3277,-2.3235,-2.2832,-2.2674,-2.2722,-2.2778,-2.3842,-2.4726,-2.5142,-2.518,-2.5648,-2.6788,-2.5741,-2.4503,-2.314,-2.5063,-2.6326,-2.6687,-2.7614,-2.8259,-2.851,-2.8366,-2.8089,-2.7717,-2.7019,-2.649,-2.6093,-2.5552,-2.5312,-2.5312,-2.5312,-2.5312,-2.5312,-2.5312,-2.5312,-2.5312,-2.5312,-2.5312,-2.5312,-2.5312,-2.5312,-2.5312,-2.5312,-2.5312,-2.5312,-2.5312,-2.5312,-2.5312,-2.5312,-2.5312,-2.5312,-2.5312,-2.5312,-2.5312,-2.5312,-2.5312,-2.5312,-2.5312,-2.5312,-2.5312,-2.5312,-2.5312,-2.5312,-2.5312,-2.5312,-2.5312,-2.5312,-2.5312,-2.5312,-2.5312,-2.5312,-2.5312,-2.5312,-2.5312,-2.5312,-2.5312,-2.5312,-2.5382,-2.5535,-2.5535,-2.5535,-2.5676,-2.6427,-2.7027,-2.7604,-2.7986,-2.8634,-2.967,-2.8889,-2.8953,-2.9979,-2.9747,-2.9808,-3.0312,-3.0507,-3.0568,-3.0568,-3.0568,-3.0507,-3.0251,-2.9808,-2.9484,-2.9219,-2.8505,-2.792,-2.7484,-2.7297,-2.6905,-2.6533,-2.6533,-2.6533,-2.6533,-2.3329,-2.3547,-2.3428,-2.2939,-2.2866,-2.2729,-2.2401,-2.2327,-2.219,-2.1805,-2.1937,-2.2443,-2.3028,-2.3135,-2.31,-2.3196,-2.3153,-2.313,-2.3119,-2.4263,-2.5413,-2.6687,-2.7035,-2.7603,-2.851,-2.7993,-2.7729,-2.7717,-2.6635,-2.6105,-2.6093,-2.5552,-2.5312,-2.5312,-2.5312,-2.5312,-2.5312,-2.5312,-2.5312,-2.5312,-2.5312,-2.5312,-2.5312,-2.5312,-2.5312,-2.5312,-2.5312,-2.5312,-2.5312,-2.5312,-2.5312,-2.5312,-2.5312,-2.5312,-2.5312,-2.5312,-2.5312,-2.5312,-2.5312,-2.5312,-2.5312,-2.5312,-2.5312,-2.5312,-2.5312,-2.5312,-2.5312,-2.5312,-2.5312,-2.5312,-2.5312,-2.5312,-2.5312,-2.5312,-2.5312,-2.5312,-2.5312,-2.5312,-2.5312,-2.5312,-2.5312,-2.5312,-2.5312,-2.5312,-2.5312,-2.5312,-2.5688,-2.598,-2.6201,-2.704,-2.755,-2.7537,-2.8182,-2.8492,-2.8492,-2.9219,-2.9623,-2.9623,-3.0251,-3.0568,-3.0568,-3.0568,-3.0251,-2.9623,-2.9623,-2.9156,-2.8427,-2.7802,-2.7484,-2.7417,-2.6782,-2.6533,-2.6533,-2.6533,-2.6533,-2.6533,-2.1206,-2.1664,-2.2039,-2.1661,-2.2057,-2.2392,-2.1988,-2.1924,-2.1878,-2.175,-2.1731,-2.1876,-2.2094,-2.246,-2.2707,-2.2833,-2.2708,-2.2621,-2.2515,-2.3553,-2.4395,-2.4935,-2.5222,-2.5643,-2.6255,-2.614,-2.6023,-2.5826,-2.6029,-2.5913,-2.5552,-2.5384,-2.5312,-2.5312,-2.5312,-2.5312,-2.5312,-2.5312,-2.5312,-2.5312,-2.5312,-2.5312,-2.5312,-2.5312,-2.5312,-2.5312,-2.5312,-2.5312,-2.5312,-2.5312,-2.5312,-2.5312,-2.5312,-2.5312,-2.5312,-2.5312,-2.5312,-2.5312,-2.5312,-2.5312,-2.5312,-2.5312,-2.5312,-2.5312,-2.5312,-2.5312,-2.5312,-2.5312,-2.5312,-2.5312,-2.5312,-2.5312,-2.5312,-2.5312,-2.5312,-2.5312,-2.5312,-2.5312,-2.5312,-2.5312,-2.5312,-2.5312,-2.5312,-2.5312,-2.5312,-2.5312,-2.5535,-2.5955,-2.662,-2.6769,-2.7229,-2.8182,-2.7484,-2.7604,-2.8492,-2.8247,-2.8648,-2.9623,-2.9808,-2.9931,-2.9931,-2.9931,-2.9546,-2.8826,-2.839,-2.8065,-2.7802,-2.7095,-2.685,-2.6782,-2.6589,-2.6533,-2.6533,-2.6533,-2.6533,-2.6533,-2.035,-2.0802,-2.1259,-2.1248,-2.1643,-2.2016,-2.1777,-2.1741,-2.1741,-2.1741,-2.1741,-2.1676,-2.152,-2.1757,-2.203,-2.2242,-2.2224,-2.2042,-2.1863,-2.2446,-2.3053,-2.354,-2.366,-2.4168,-2.5007,-2.4893,-2.4884,-2.4975,-2.5392,-2.5433,-2.5111,-2.5241,-2.5241,-2.5111,-2.5241,-2.5312,-2.5312,-2.5312,-2.5312,-2.5312,-2.5312,-2.5312,-2.5312,-2.5312,-2.5312,-2.5312,-2.5312,-2.5312,-2.5312,-2.5312,-2.5312,-2.5312,-2.5312,-2.5312,-2.5312,-2.5312,-2.5312,-2.5312,-2.5312,-2.5312,-2.5312,-2.5312,-2.5312,-2.5312,-2.5312,-2.5312,-2.5312,-2.5312,-2.5312,-2.5312,-2.5312,-2.5312,-2.5312,-2.5312,-2.5312,-2.5312,-2.5312,-2.5312,-2.5312,-2.5312,-2.5312,-2.5312,-2.5312,-2.5312,-2.5312,-2.5382,-2.5606,-2.5955,-2.662,-2.6452,-2.6782,-2.7736,-2.6905,-2.6905,-2.7736,-2.7604,-2.7934,-2.8839,-2.9093,-2.9156,-2.9156,-2.9156,-2.8826,-2.8117,-2.767,-2.7351,-2.7095,-2.6658,-2.6533,-2.6533,-2.6533,-2.6533,-2.6533,-2.6533,-2.6533,-2.6533,-2.0201,-2.0611,-2.087,-2.1437,-2.1553,-2.1642,-2.1731,-2.1741,-2.1722,-2.1695,-2.1695,-2.153,-2.1108,-2.1062,-2.1139,-2.1379,-2.1588,-2.1532,-2.121,-2.1182,-2.1578,-2.2462,-2.2432,-2.306,-2.4502,-2.3996,-2.4145,-2.4814,-2.4722,-2.4634,-2.4718,-2.504,-2.504,-2.4861,-2.5111,-2.5241,-2.5312,-2.5312,-2.5312,-2.5312,-2.5312,-2.5312,-2.5312,-2.5312,-2.5312,-2.5312,-2.5312,-2.5312,-2.5312,-2.5312,-2.5312,-2.5312,-2.5312,-2.5312,-2.5312,-2.5312,-2.5312,-2.5312,-2.5312,-2.5312,-2.5312,-2.5312,-2.5312,-2.5312,-2.5312,-2.5312,-2.5312,-2.5312,-2.5312,-2.5312,-2.5312,-2.5312,-2.5312,-2.5312,-2.5312,-2.5312,-2.5312,-2.5312,-2.5312,-2.5312,-2.5312,-2.5312,-2.5312,-2.5312,-2.5382,-2.5535,-2.5758,-2.598,-2.6131,-2.6213,-2.627,-2.6465,-2.6533,-2.6533,-2.6533,-2.7095,-2.7484,-2.7484,-2.8182,-2.8492,-2.8427,-2.8427,-2.8051,-2.7417,-2.7417,-2.7095,-2.6533,-2.6533,-2.6533,-2.6533,-2.6533,-2.6533,-2.6533,-2.6533,-2.6533,-2.6533,-1.7072,-1.7616,-1.8435,-1.9355,-2.0076,-2.0898,-2.1553,-2.1741,-2.1621,-2.1291,-2.1255,-2.1108,-2.0704,-2.0659,-2.0539,-2.032,-2.0568,-2.0791,-2.0689,-2.0689,-2.0848,-2.1265,-2.0797,-2.0862,-2.1589,-2.1605,-2.1977,-2.2961,-2.2916,-2.3305,-2.4059,-2.3841,-2.4288,-2.5182,-2.4874,-2.4945,-2.5312,-2.5312,-2.5312,-2.5312,-2.5312,-2.5312,-2.5312,-2.5312,-2.5312,-2.5312,-2.5312,-2.5312,-2.5312,-2.5312,-2.5312,-2.5312,-2.5312,-2.5312,-2.5312,-2.5312,-2.5312,-2.5312,-2.5312,-2.5312,-2.5312,-2.5312,-2.5312,-2.5312,-2.5312,-2.5312,-2.5312,-2.5312,-2.5312,-2.5312,-2.5312,-2.5312,-2.5312,-2.5312,-2.5312,-2.5312,-2.5312,-2.5312,-2.5312,-2.5312,-2.5312,-2.5312,-2.5312,-2.5312,-2.5312,-2.5382,-2.5535,-2.5758,-2.598,-2.6131,-2.627,-2.6465,-2.6533,-2.6533,-2.6533,-2.6658,-2.6973,-2.7484,-2.8182,-2.8247,-2.7736,-2.7736,-2.7351,-2.6714,-2.6714,-2.6658,-2.6533,-2.6533,-2.6533,-2.6533,-2.6533,-2.6533,-2.6533,-2.6533,-2.6533,-2.6533,-1.6487,-1.6951,-1.7598,-1.8603,-1.9109,-1.9723,-2.0642,-2.0668,-2.0656,-2.0784,-2.0842,-2.0686,-2.0292,-2.0255,-2.009,-1.9677,-2.0017,-2.0163,-1.9971,-1.9962,-2.0044,-2.0125,-1.9841,-1.9882,-2.0442,-2.0508,-2.1068,-2.2188,-2.2188,-2.2574,-2.318,-2.318,-2.3621,-2.4527,-2.4432,-2.4683,-2.5278,-2.5277,-2.5277,-2.5278,-2.5265,-2.5312,-2.5312,-2.5312,-2.5312,-2.5312,-2.5312,-2.5312,-2.5312,-2.5312,-2.5312,-2.5312,-2.5312,-2.5312,-2.5312,-2.5312,-2.5312,-2.5312,-2.5312,-2.5312,-2.5312,-2.5312,-2.5312,-2.5312,-2.5312,-2.5312,-2.5312,-2.5312,-2.5312,-2.5312,-2.5312,-2.5312,-2.5312,-2.5312,-2.5312,-2.5312,-2.5312,-2.5312,-2.5312,-2.5312,-2.5312,-2.5312,-2.5312,-2.5312,-2.5312,-2.5453,-2.5535,-2.5758,-2.598,-2.6131,-2.627,-2.6465,-2.6533,-2.6533,-2.6533,-2.6533,-2.6658,-2.704,-2.7417,-2.7417,-2.704,-2.704,-2.685,-2.6533,-2.6533,-2.6533,-2.6533,-2.6533,-2.6533,-2.6533,-2.6533,-2.6533,-2.6533,-2.6533,-2.6533,-2.6465,-1.6958,-1.7008,-1.7345,-1.8341,-1.8234,-1.8362,-1.9264,-1.9168,-1.929,-2.0093,-2.0168,-2.0107,-1.9879,-1.9833,-1.9687,-1.9329,-1.9622,-1.9687,-1.932,-1.9301,-1.9301,-1.9301,-1.9301,-1.9539,-2.0079,-2.0089,-2.0615,-2.168,-2.168,-2.1842,-2.2166,-2.2446,-2.2883,-2.3434,-2.3801,-2.4415,-2.5253,-2.5028,-2.4826,-2.4574,-2.4802,-2.4838,-2.4826,-2.4933,-2.5016,-2.5028,-2.5099,-2.517,-2.5241,-2.5241,-2.5241,-2.5312,-2.5312,-2.5312,-2.5312,-2.5312,-2.5312,-2.5312,-2.5312,-2.5312,-2.5312,-2.5312,-2.5312,-2.5312,-2.5312,-2.5312,-2.5312,-2.5312,-2.5312,-2.5312,-2.5312,-2.5312,-2.5312,-2.5312,-2.5312,-2.5312,-2.5312,-2.5312,-2.5312,-2.5312,-2.5312,-2.5312,-2.5312,-2.5312,-2.5382,-2.5535,-2.5606,-2.5758,-2.6131,-2.6201,-2.6339,-2.6465,-2.6533,-2.6533,-2.6533,-2.6533,-2.6533,-2.6533,-2.6533,-2.6533,-2.6533,-2.6533,-2.6533,-2.6533,-2.6533,-2.6533,-2.6533,-2.6533,-2.6533,-2.6533,-2.6533,-2.6533,-2.6533,-2.6533,-2.6383,-2.6245,-1.6015,-1.5819,-1.6005,-1.6992,-1.6892,-1.7029,-1.8001,-1.8135,-1.8247,-1.88,-1.8924,-1.9024,-1.9359,-1.9402,-1.9375,-1.9311,-1.9356,-1.9366,-1.9301,-1.9301,-1.9301,-1.9301,-1.9301,-1.9301,-1.946,-1.946,-1.9529,-1.9766,-1.9766,-2.0226,-2.1068,-2.0769,-2.1364,-2.2798,-2.3036,-2.394,-2.5242,-2.3886,-2.257,-2.1439,-2.2348,-2.2731,-2.2761,-2.3345,-2.3717,-2.3886,-2.4261,-2.4562,-2.4861,-2.4861,-2.5052,-2.5312,-2.5312,-2.5312,-2.5312,-2.5312,-2.5312,-2.5312,-2.5312,-2.5312,-2.5312,-2.5312,-2.5312,-2.5312,-2.5312,-2.5312,-2.5312,-2.5312,-2.5312,-2.5312,-2.5312,-2.5312,-2.5312,-2.5312,-2.5312,-2.5312,-2.5312,-2.5312,-2.5312,-2.5312,-2.5312,-2.5312,-2.5312,-2.5312,-2.5312,-2.5312,-2.5676,-2.591,-2.591,-2.6258,-2.6465,-2.6533,-2.6533,-2.6533,-2.6533,-2.6533,-2.6533,-2.6533,-2.6533,-2.6533,-2.6533,-2.6533,-2.6533,-2.6533,-2.6533,-2.6533,-2.6533,-2.6533,-2.6533,-2.6533,-2.6533,-2.6533,-2.6533,-2.6533,-2.6094,-2.5453,-1.5364,-1.5257,-1.5339,-1.5777,-1.5609,-1.5661,-1.6609,-1.6629,-1.6959,-1.8124,-1.8271,-1.8528,-1.924,-1.9301,-1.9301,-1.9301,-1.9301,-1.9301,-1.9301,-1.9301,-1.9301,-1.9301,-1.9301,-1.9301,-1.9301,-1.9301,-1.9381,-1.9478,-1.9478,-1.9784,-2.0313,-2.0167,-2.0692,-2.1811,-2.1904,-2.2767,-2.3988,-2.2799,-2.153,-2.0367,-2.151,-2.2168,-2.253,-2.343,-2.3548,-2.335,-2.3779,-2.3852,-2.3632,-2.3936,-2.407,-2.4288,-2.4599,-2.4683,-2.4754,-2.4981,-2.5182,-2.5312,-2.5312,-2.5312,-2.5312,-2.5312,-2.5312,-2.5312,-2.5312,-2.5312,-2.5312,-2.5312,-2.5312,-2.5312,-2.5312,-2.5312,-2.5312,-2.5312,-2.5312,-2.5312,-2.5312,-2.5312,-2.5312,-2.5312,-2.5312,-2.5312,-2.5312,-2.5312,-2.5312,-2.5312,-2.5465,-2.5676,-2.591,-2.605,-2.6258,-2.6465,-2.6533,-2.6533,-2.6533,-2.6533,-2.6533,-2.6533,-2.6533,-2.6533,-2.6533,-2.6533,-2.6533,-2.6533,-2.6533,-2.6533,-2.6533,-2.6533,-2.6533,-2.6533,-2.6533,-2.6245,-2.5873,-2.5873,-2.537,-2.4564,-1.4963,-1.491,-1.4863,-1.4863,-1.4616,-1.4674,-1.534,-1.5218,-1.5636,-1.718,-1.7594,-1.7997,-1.8895,-1.9143,-1.9301,-1.9301,-1.9301,-1.9301,-1.9301,-1.9301,-1.9301,-1.9301,-1.9301,-1.9301,-1.9301,-1.9301,-1.9381,-1.9557,-1.9557,-1.9636,-1.9784,-1.9784,-2.0079,-2.076,-2.076,-2.1312,-2.2234,-2.1562,-2.0655,-1.9832,-2.0787,-2.1449,-2.2027,-2.285,-2.2861,-2.251,-2.3169,-2.3158,-2.2861,-2.3327,-2.3475,-2.3548,-2.425,-2.4105,-2.3875,-2.4478,-2.4683,-2.4874,-2.5159,-2.5277,-2.5265,-2.5314,-2.5325,-2.5324,-2.5313,-2.5277,-2.5312,-2.5312,-2.5312,-2.5312,-2.5312,-2.5312,-2.5312,-2.5312,-2.5312,-2.5312,-2.5312,-2.5312,-2.5312,-2.5312,-2.5312,-2.5312,-2.5312,-2.5312,-2.5312,-2.5312,-2.5312,-2.5523,-2.5828,-2.584,-2.605,-2.6396,-2.6465,-2.6533,-2.6533,-2.6533,-2.6533,-2.6533,-2.6533,-2.6533,-2.6533,-2.6533,-2.6533,-2.6533,-2.6533,-2.6533,-2.6533,-2.6527,-2.627,-2.5926,-2.605,-2.57,-2.5016,-2.5016,-2.4492,-2.3768,-1.4963,-1.4743,-1.4556,-1.4556,-1.4309,-1.4122,-1.42,-1.4179,-1.4496,-1.5477,-1.6288,-1.7107,-1.7997,-1.8816,-1.9301,-1.9301,-1.9301,-1.9301,-1.9301,-1.9301,-1.9301,-1.9301,-1.9301,-1.9301,-1.9301,-1.9301,-1.9301,-1.9301,-1.9301,-1.9301,-1.9301,-1.9301,-1.9469,-1.9715,-1.9715,-1.9882,-2.0117,-1.9904,-1.9681,-1.9312,-1.9446,-1.9737,-2.0167,-2.0391,-2.0624,-2.0867,-2.1873,-2.2681,-2.3327,-2.3959,-2.3936,-2.3891,-2.4933,-2.3975,-2.2638,-2.3818,-2.3683,-2.3446,-2.494,-2.5278,-2.5278,-2.533,-2.5313,-2.5301,-2.5325,-2.5266,-2.5312,-2.5312,-2.5312,-2.5312,-2.5312,-2.5312,-2.5312,-2.5312,-2.5312,-2.5312,-2.5312,-2.5312,-2.5312,-2.5312,-2.5312,-2.5312,-2.5312,-2.5312,-2.5312,-2.5312,-2.5453,-2.5606,-2.5606,-2.5828,-2.598,-2.6201,-2.6396,-2.6533,-2.6533,-2.6533,-2.6533,-2.6533,-2.6533,-2.6533,-2.6533,-2.6533,-2.6533,-2.6533,-2.6533,-2.6533,-2.6477,-2.6474,-2.5608,-2.4308,-2.479,-2.4704,-2.4192,-2.4192,-2.3694,-2.3065,-1.4422,-1.4329,-1.4255,-1.4255,-1.4162,-1.4088,-1.4088,-1.4088,-1.4419,-1.5311,-1.5726,-1.6206,-1.7107,-1.7997,-1.8487,-1.8487,-1.8975,-1.9301,-1.9301,-1.9301,-1.9301,-1.9301,-1.9301,-1.9301,-1.9301,-1.9301,-1.9301,-1.9301,-1.9301,-1.9301,-1.9301,-1.9301,-1.9301,-1.939,-1.939,-1.9469,-1.9539,-1.945,-1.9353,-1.9335,-1.945,-1.9548,-1.9784,-2.0469,-2.0547,-2.0255,-2.1011,-2.1155,-2.1068,-2.1538,-2.1669,-2.1735,-2.2499,-2.2199,-2.1745,-2.2403,-2.2702,-2.282,-2.324,-2.3644,-2.4089,-2.5058,-2.4599,-2.4119,-2.5064,-2.5313,-2.5312,-2.5312,-2.5312,-2.5312,-2.5312,-2.5312,-2.5312,-2.5312,-2.5312,-2.5312,-2.5312,-2.5312,-2.5312,-2.5312,-2.5312,-2.5312,-2.5312,-2.5312,-2.5312,-2.5312,-2.5382,-2.5465,-2.5606,-2.591,-2.6131,-2.6213,-2.6396,-2.6533,-2.6533,-2.6533,-2.6533,-2.6533,-2.6533,-2.6533,-2.6533,-2.6533,-2.6533,-2.6452,-2.5955,-2.6066,-2.6474,-2.6463,-2.5577,-2.4031,-2.3284,-2.3285,-2.3638,-2.3508,-2.2905,-2.2252,-1.4088,-1.4088,-1.4088,-1.4088,-1.4088,-1.4088,-1.4088,-1.4088,-1.4334,-1.4901,-1.5235,-1.5636,-1.6206,-1.7107,-1.7594,-1.7594,-1.8158,-1.8567,-1.8895,-1.9143,-1.9301,-1.9301,-1.9301,-1.9301,-1.9301,-1.9301,-1.9301,-1.9301,-1.9301,-1.9301,-1.9301,-1.9301,-1.9301,-1.9301,-1.9301,-1.9301,-1.9301,-1.9301,-1.9301,-1.9301,-1.9469,-1.9478,-1.9548,-2.0304,-2.0226,-1.9775,-2.0382,-2.0313,-2.001,-2.0537,-2.0537,-2.0537,-2.1298,-2.1375,-2.1155,-2.1068,-2.1354,-2.1766,-2.1584,-2.1922,-2.2641,-2.4169,-2.3745,-2.3349,-2.4564,-2.4909,-2.5004,-2.5229,-2.5312,-2.5312,-2.5312,-2.5312,-2.5312,-2.5312,-2.5312,-2.5312,-2.5312,-2.5312,-2.5312,-2.5312,-2.5087,-2.4933,-2.4933,-2.4719,-2.4576,-2.4576,-2.4791,-2.5004,-2.5087,-2.5229,-2.5241,-2.5241,-2.5429,-2.5721,-2.6025,-2.6314,-2.6533,-2.6533,-2.6245,-2.6094,-2.6094,-2.5873,-2.5828,-2.5959,-2.5253,-2.5516,-2.6463,-2.5973,-2.4792,-2.3245,-2.2187,-2.2274,-2.2853,-2.2724,-2.2252,-2.1807,-1.4088,-1.4088,-1.4088,-1.4088,-1.4088,-1.4088,-1.4088,-1.4088,-1.4088,-1.4088,-1.4824,-1.5394,-1.5394,-1.6214,-1.6698,-1.6698,-1.6698,-1.7098,-1.7917,-1.8816,-1.9301,-1.9301,-1.9301,-1.9301,-1.9301,-1.9301,-1.9301,-1.9301,-1.9301,-1.9301,-1.9301,-1.9301,-1.9301,-1.9301,-1.9301,-1.9301,-1.9301,-1.9301,-1.9301,-1.9301,-1.9301,-1.9301,-1.9301,-1.9301,-1.9301,-1.9381,-2.0001,-2.0459,-2.0914,-2.1507,-2.1288,-2.0991,-2.1952,-2.1735,-2.0914,-1.9863,-1.9715,-1.9951,-2.0156,-2.0389,-2.0998,-2.2629,-2.3015,-2.3139,-2.3687,-2.3954,-2.4337,-2.5158,-2.5312,-2.5312,-2.5312,-2.53,-2.5312,-2.5312,-2.5312,-2.5312,-2.53,-2.53,-2.53,-2.53,-2.4564,-2.412,-2.412,-2.3463,-2.3032,-2.3032,-2.3683,-2.412,-2.412,-2.3514,-2.322,-2.322,-2.3368,-2.3963,-2.5016,-2.6025,-2.6465,-2.6465,-2.5664,-2.5312,-2.53,-2.4492,-2.4429,-2.4882,-2.4334,-2.5013,-2.6336,-2.4722,-2.3216,-2.1775,-2.179,-2.1807,-2.1807,-2.1807,-2.1807,-2.1807,-1.4088,-1.4088,-1.4088,-1.4088,-1.4088,-1.4088,-1.4088,-1.4088,-1.4088,-1.4088,-1.4334,-1.4496,-1.4496,-1.5228,-1.5801,-1.5801,-1.6944,-1.7997,-1.8895,-1.9143,-1.9301,-1.9301,-1.9301,-1.9301,-1.9301,-1.9301,-1.9301,-1.9301,-1.9301,-1.9301,-1.9301,-1.9301,-1.9301,-1.9301,-1.9301,-1.9301,-1.9301,-1.9301,-1.9301,-1.9301,-1.9301,-1.9301,-1.9301,-1.9301,-1.9301,-1.9301,-1.9539,-1.9608,-1.9756,-1.9991,-1.9913,-1.9766,-2.006,-2.006,-1.9766,-1.946,-1.9548,-1.9724,-1.9822,-1.9963,-2.0594,-2.2562,-2.2985,-2.3338,-2.4564,-2.4897,-2.5004,-2.5229,-2.5312,-2.5312,-2.5312,-2.4743,-2.4279,-2.4409,-2.4952,-2.4923,-2.3813,-2.3694,-2.3694,-2.3694,-2.3463,-2.3316,-2.3316,-2.3106,-2.3032,-2.3032,-2.3169,-2.3316,-2.3316,-2.3231,-2.322,-2.322,-2.3368,-2.3891,-2.4791,-2.5229,-2.5804,-2.6533,-2.6245,-2.6164,-2.6094,-2.53,-2.504,-2.5088,-2.3875,-2.3897,-2.471,-2.3123,-2.2197,-2.178,-2.1776,-2.1807,-2.1807,-2.1807,-2.1807,-2.1807,-1.4088,-1.4088,-1.4088,-1.4088,-1.4088,-1.4088,-1.4088,-1.4088,-1.4088,-1.4088,-1.4088,-1.4088,-1.4088,-1.458,-1.4908,-1.4908,-1.6124,-1.7188,-1.7755,-1.8078,-1.8407,-1.8807,-1.8816,-1.8975,-1.9301,-1.9301,-1.9301,-1.9301,-1.9301,-1.9301,-1.9301,-1.9301,-1.9301,-1.9301,-1.9301,-1.9301,-1.9301,-1.9301,-1.9301,-1.9301,-1.9301,-1.9301,-1.9301,-1.9301,-1.9301,-1.9301,-1.9301,-1.9301,-1.9301,-1.9301,-1.9301,-1.9301,-1.9301,-1.9301,-1.9301,-1.9301,-1.939,-1.9478,-1.9664,-1.9816,-2.0294,-2.2004,-2.2702,-2.3154,-2.3818,-2.3902,-2.3986,-2.4348,-2.442,-2.442,-2.442,-2.3868,-2.3492,-2.3672,-2.3886,-2.3709,-2.2818,-2.2711,-2.2711,-2.2711,-2.2616,-2.251,-2.251,-2.2209,-2.2209,-2.251,-2.2209,-2.2209,-2.251,-2.2274,-2.2188,-2.2188,-2.2264,-2.2787,-2.3599,-2.3745,-2.448,-2.5804,-2.5134,-2.4921,-2.4992,-2.4131,-2.3852,-2.3852,-2.2916,-2.2778,-2.3123,-2.2164,-2.1807,-2.1807,-2.1807,-2.1807,-2.1807,-2.1807,-2.1807,-2.1807,-1.4088,-1.4088,-1.4088,-1.4088,-1.4088,-1.4088,-1.4088,-1.4088,-1.4088,-1.4088,-1.4088,-1.4088,-1.4088,-1.4088,-1.4088,-1.4088,-1.4908,-1.5394,-1.5477,-1.6288,-1.7025,-1.7836,-1.7917,-1.8238,-1.9054,-1.9222,-1.9301,-1.9301,-1.9301,-1.9301,-1.9301,-1.9301,-1.9301,-1.9301,-1.9301,-1.9301,-1.9301,-1.9301,-1.9301,-1.9301,-1.9301,-1.9301,-1.9301,-1.9301,-1.9301,-1.9301,-1.9301,-1.9301,-1.9301,-1.9301,-1.9301,-1.9301,-1.9301,-1.9301,-1.9301,-1.9301,-1.9301,-1.939,-1.9576,-1.9809,-2.0149,-2.1201,-2.2139,-2.259,-2.2022,-2.1907,-2.2134,-2.2883,-2.3032,-2.3032,-2.3032,-2.2957,-2.2883,-2.2883,-2.2456,-2.2062,-2.2062,-2.2062,-2.2062,-2.2062,-2.1824,-2.169,-2.169,-2.1011,-2.0867,-2.1614,-2.1011,-2.0944,-2.169,-2.1011,-2.0566,-2.0566,-2.0566,-2.1001,-2.1952,-2.1886,-2.2776,-2.4564,-2.3169,-2.2649,-2.2809,-2.2014,-2.1731,-2.1883,-2.1807,-2.1807,-2.1807,-2.1807,-2.1807,-2.1807,-2.1807,-2.1807,-2.1807,-2.1807,-2.1807,-2.1797,-1.4088,-1.4088,-1.4088,-1.4088,-1.4088,-1.4088,-1.4088,-1.4088,-1.4088,-1.4088,-1.4088,-1.4088,-1.4088,-1.4088,-1.4088,-1.4088,-1.4908,-1.5726,-1.637,-1.6617,-1.678,-1.6935,-1.6944,-1.7107,-1.7269,-1.8567,-1.9301,-1.9301,-1.9301,-1.9301,-1.9301,-1.9301,-1.9301,-1.9301,-1.9301,-1.9301,-1.9301,-1.9301,-1.9301,-1.9301,-1.9301,-1.9301,-1.9301,-1.9301,-1.9301,-1.9301,-1.9301,-1.9301,-1.9301,-1.9301,-1.9301,-1.9301,-1.9301,-1.9301,-1.9301,-1.9301,-1.9301,-1.9301,-1.939,-1.9627,-2.0029,-2.0674,-2.0977,-2.1433,-2.2467,-2.2734,-2.2809,-2.2947,-2.3032,-2.3032,-2.3032,-2.251,-2.2059,-2.2059,-2.1431,-2.0961,-2.0961,-2.0961,-2.0961,-2.0961,-2.0924,-2.0867,-2.0867,-2.0712,-2.0634,-2.0867,-2.0712,-2.0644,-2.0867,-2.0722,-2.0566,-2.0566,-2.0566,-2.1011,-2.1832,-2.1231,-2.1973,-2.3963,-2.3672,-2.3599,-2.3756,-2.3054,-2.2703,-2.2703,-2.2101,-2.1807,-2.1807,-2.1807,-2.1807,-2.1807,-2.1807,-2.1807,-2.1807,-2.1807,-2.1807,-2.1745,-1.4088,-1.4088,-1.4088,-1.4088,-1.4088,-1.4088,-1.4088,-1.4088,-1.4088,-1.4088,-1.4088,-1.4088,-1.4088,-1.4088,-1.4088,-1.4088,-1.4496,-1.4985,-1.5394,-1.5477,-1.5643,-1.6041,-1.6049,-1.6288,-1.6698,-1.7594,-1.8078,-1.8078,-1.8078,-1.8078,-1.8078,-1.8078,-1.8523,-1.9261,-1.9261,-1.9295,-1.9301,-1.9301,-1.9301,-1.9301,-1.9301,-1.9301,-1.9301,-1.9301,-1.9301,-1.9301,-1.9301,-1.9301,-1.9301,-1.9301,-1.9301,-1.9301,-1.9301,-1.9301,-1.9301,-1.9301,-1.9301,-1.9292,-1.9283,-1.946,-1.9743,-2.0282,-2.0341,-2.0518,-2.1614,-2.1832,-2.1832,-2.1832,-2.1832,-2.1832,-2.1832,-2.1538,-2.1242,-2.1242,-2.0867,-2.0566,-2.0566,-2.0566,-2.0566,-2.0566,-2.0566,-2.0566,-2.0566,-2.0566,-2.0566,-2.0566,-2.0566,-2.0566,-2.0566,-2.0566,-2.0566,-2.0566,-2.0566,-2.0789,-2.1242,-2.0789,-2.1242,-2.2435,-2.2349,-2.2349,-2.2585,-2.2166,-2.2101,-2.2252,-2.1807,-2.1731,-2.1807,-2.1807,-2.1807,-2.1807,-2.1807,-2.1807,-2.1807,-2.1807,-2.178,-2.1722,-1.4088,-1.4088,-1.4088,-1.4088,-1.4088,-1.4088,-1.4088,-1.4088,-1.4088,-1.4088,-1.4088,-1.4088,-1.4088,-1.4088,-1.4088,-1.4088,-1.4088,-1.4088,-1.4088,-1.4088,-1.4412,-1.5151,-1.5151,-1.556,-1.6206,-1.6296,-1.637,-1.6698,-1.6698,-1.6698,-1.6698,-1.6862,-1.7661,-1.9102,-1.9263,-1.927,-1.9301,-1.9301,-1.9301,-1.9301,-1.9301,-1.9301,-1.9301,-1.9301,-1.9301,-1.9301,-1.9301,-1.9301,-1.9301,-1.9301,-1.9301,-1.9301,-1.9301,-1.9301,-1.9301,-1.9301,-1.9301,-1.9292,-1.9274,-1.9265,-1.9432,-1.9989,-1.9979,-2.002,-2.0411,-2.0489,-2.0566,-2.0566,-2.0566,-2.0566,-2.0566,-2.0566,-2.0566,-2.0566,-2.0566,-2.0566,-2.0566,-2.0566,-2.0566,-2.0566,-2.0566,-2.0566,-2.0566,-2.0566,-2.0566,-2.0566,-2.0566,-2.0566,-2.0566,-2.0566,-2.0566,-2.0566,-2.0566,-2.0566,-2.0566,-2.0566,-2.0654,-2.0829,-2.0654,-2.0731,-2.0984,-2.0984,-2.1205,-2.1578,-2.1578,-2.1655,-2.1807,-2.1807,-2.1756,-2.1683,-2.1683,-2.1631,-2.1569,-2.1772,-2.1627,-2.124,-1.4088,-1.4088,-1.4088,-1.4088,-1.4088,-1.4088,-1.4088,-1.4088,-1.4088,-1.4088,-1.4088,-1.4088,-1.4088,-1.4088,-1.4088,-1.4088,-1.4088,-1.4088,-1.4088,-1.4088,-1.4173,-1.425,-1.425,-1.4334,-1.4412,-1.4412,-1.5151,-1.6698,-1.6698,-1.6698,-1.6698,-1.7504,-1.7925,-1.8193,-1.8931,-1.932,-1.9301,-1.9301,-1.9301,-1.9301,-1.9301,-1.9301,-1.9301,-1.9301,-1.9301,-1.9301,-1.9301,-1.9301,-1.9301,-1.9301,-1.9301,-1.9301,-1.9301,-1.9301,-1.9301,-1.9301,-1.9301,-1.9301,-1.9292,-1.9274,-1.9353,-1.9655,-1.9803,-1.9942,-2.002,-2.0186,-2.042,-2.0566,-2.0566,-2.0566,-2.0566,-2.0566,-2.0566,-2.0566,-2.0566,-2.0566,-2.0566,-2.0566,-2.0566,-2.0566,-2.0566,-2.0566,-2.0566,-2.0566,-2.0566,-2.0566,-2.0566,-2.0566,-2.0566,-2.0566,-2.0566,-2.0566,-2.0566,-2.0566,-2.0566,-2.0566,-2.0644,-2.0644,-2.0644,-2.0876,-2.1436,-2.1436,-2.1502,-2.1731,-2.1731,-2.1807,-2.1807,-2.1807,-2.1473,-2.1007,-2.1007,-2.0865,-2.071,-2.1528,-2.0782,-1.9473,-1.3222,-1.3307,-1.3483,-1.4004,-1.4088,-1.4088,-1.4088,-1.4088,-1.4088,-1.4088,-1.4088,-1.4088,-1.4088,-1.4088,-1.4088,-1.4088,-1.4088,-1.4088,-1.4088,-1.4088,-1.4088,-1.4088,-1.4088,-1.4088,-1.4088,-1.4088,-1.4496,-1.5235,-1.5235,-1.5235,-1.5235,-1.5636,-1.6049,-1.6535,-1.7131,-1.7538,-1.7836,-1.8212,-1.8461,-1.8647,-1.9134,-1.9301,-1.9301,-1.9301,-1.9301,-1.9301,-1.9301,-1.9301,-1.9301,-1.9301,-1.9301,-1.9301,-1.9301,-1.9301,-1.9301,-1.9301,-1.9301,-1.9301,-1.9301,-1.9292,-1.9292,-1.9478,-1.9548,-1.9627,-1.9715,-1.9794,-2.0029,-2.0333,-2.0411,-2.0498,-2.0566,-2.0566,-2.0566,-2.0566,-2.0566,-2.0566,-2.0566,-2.0566,-2.0566,-2.0566,-2.0566,-2.0566,-2.0566,-2.0566,-2.0566,-2.0566,-2.0566,-2.0566,-2.0566,-2.0566,-2.0566,-2.0566,-2.0566,-2.0566,-2.0566,-2.0566,-2.0566,-2.0566,-2.0312,-2.0485,-2.1041,-2.1041,-2.1094,-2.1377,-2.1069,-2.0812,-2.0747,-2.0956,-2.0624,-2.0038,-2.0121,-2.0277,-2.0483,-2.1463,-2.067,-1.9073]},{"header":{"parameterUnit":"m.s-1","parameterCategory":1,"la1":30.6,"la2":28.766,"lo1":-90.7593,"lo2":-88.6598,"dy":0.0162,"dx":0.0183,"nx":116,"ny":114,"refTime":"2023-06-04T06:00:00:Z","depth":0,"parameterNumber":3,"parameterNumberName":"V-component_of_WINDS"},"data":[0.0,0.0,0.0,0.0,0.0,0.0,0.0,0.0,0.0,0.0,0.0,0.0,0.0,0.0,0.0,0.0,0.0,0.0,0.0,0.0,0.0,0.0,0.0,0.0,0.0,0.0,0.0,0.0,0.0,0.0,0.0,0.0,0.0,0.0,0.0,0.0,0.0,0.0,0.0,0.0,0.0,0.0,0.0,0.0,0.0,0.0,0.0,0.0,0.0,0.0,0.0,0.0,0.0,0.0,0.0,0.0,0.0,0.0,0.0,0.0,0.0,0.0,0.0,0.0,0.0,0.0,0.0,0.0,0.0,0.0,0.0,0.0,0.0,0.0,0.0,0.0,0.0,0.0,0.0,0.0,0.0,0.0,0.0,0.0,0.0,0.0,0.0,0.0,0.0,0.0,0.0,0.0,0.0,0.0,0.0,0.0,0.0,0.0,0.0,0.0,0.0,0.0,0.0,0.0,0.0,0.0,0.0,0.0,0.0,0.0,0.0,0.0,0.0,0.0,0.0,0.0,0.0,0.0,0.0,0.0,0.0,0.0,0.0,0.0,0.0,0.0,0.0,0.0,0.0,0.0,0.0,0.0,0.0,0.0,0.0,0.0,0.0,0.0,0.0,0.0,0.0,0.0,0.0,0.0,0.0,0.0,0.0,0.0,0.0,0.0,0.0,0.0,0.0,0.0,0.0,0.0,0.0,0.0,0.0,0.0,0.0,0.0,0.0,0.0,0.0,0.0,0.0,0.0,0.0,0.0,0.0,0.0,0.0,0.0,0.0,0.0,0.0,0.0,0.0,0.0,0.0,0.0,0.0,0.0,0.0,0.0,0.0,0.0,0.0,0.0,0.0,0.0,0.0,0.0,0.0,0.0,0.0,0.0,0.0,0.0,0.0,0.0,0.0,0.0,0.0,0.0,0.0,0.0,0.0,0.0,0.0,0.0,0.0,0.0,0.0,0.0,0.0,0.0,0.0,0.0,0.0,0.0,0.0,0.0,0.0,0.0,0.0,0.0,0.0,0.0,0.0,0.0,0.0,0.0,0.0,0.0,0.0,0.0,0.0,0.0,0.0,0.0,0.0,0.0,0.0,0.0,0.0,0.0,0.0,0.0,0.0,0.0,0.0,0.0,0.0,0.0,0.0,0.0,0.0,0.0,0.0,0.0,0.0,0.0,0.0,0.0,0.0,0.0,0.0,0.0,0.0,0.0,0.0,0.0,0.0,0.0,0.0,0.0,0.0,0.0,0.0,0.0,0.0,0.0,0.0,0.0,0.0,0.0,0.0,0.0,0.0,0.0,0.0,0.0,0.0,0.0,0.0,0.0,0.0,0.0,0.0,0.0,0.0,0.0,0.0,0.0,0.0,0.0,0.0,0.0,0.0,0.0,0.0,0.0,0.0,0.0,0.0,0.0,0.0,0.0,0.0,0.0,0.0,0.0,0.0,0.0,0.0,0.0,0.0,0.0,0.0,0.0,0.0,0.0,0.0,0.0,0.0,0.0,0.0,0.0,0.0,0.0,0.0,0.0,0.0,0.0,0.0,0.0,0.0,0.0,0.0,0.0,0.0,0.0,0.0,0.0,0.0,0.0,0.0,0.0,0.0,0.0,0.0,0.0,0.0,0.0,0.0,0.0,0.0,0.0,0.0,0.0,0.0,0.0,0.0,0.0,0.0,0.0,0.0,0.0,0.0,0.0,0.0,0.0,0.0,0.0,0.0,0.0,0.0,0.0,0.0,0.0,0.0,0.0,0.0,0.0,0.0,0.0,0.0,0.0,0.0,0.0,0.0,0.0,0.0,0.0,0.0,0.0,0.0,0.0,0.0,0.0,0.0,0.0,0.0,0.0,0.0,0.0,0.0,0.0,0.0,0.0,0.0,0.0,0.0,0.0,0.0,0.0,0.0,0.0,0.0,0.0,0.0,0.0,0.0,0.0,0.0,0.0,0.0,0.0,0.0,0.0,0.0,0.0,0.0,0.0,0.0,0.0,0.0,0.0,0.0,0.0,0.0,0.0,0.0,0.0,0.0,0.0,0.0,0.0,0.0,0.0,0.0,0.0,0.0,0.0,0.0,0.0,0.0,0.0,0.0,0.0,0.0,0.0,0.0,0.0,0.0,0.0,0.0,0.0,0.0,0.0,0.0,0.0,0.0,0.0,0.0,0.0,0.0,0.0,0.0,0.0,0.0,0.0,0.0,0.0,0.0,0.0,0.0,0.0,0.0,0.0,0.0,0.0,0.0,0.0,0.0,0.0,0.0,0.0,0.0,0.0,0.0,0.0,0.0,0.0,0.0,0.0,0.0,0.0,0.0,0.0,0.0,0.0,0.0,0.0,0.0,0.0,0.0,0.0,0.0,0.0,0.0,0.0,0.0,0.0,0.0,0.0,0.0,0.0,0.0,0.0,0.0,0.0,0.0,0.0,0.0,0.0,0.0,0.0,0.0,0.0,0.0,0.0,0.0,0.0,0.0,0.0,0.0,0.0,0.0,0.0,0.0,0.0,0.0,0.0,0.0,0.0,0.0,0.0,0.0,0.0,0.0,0.0,0.0,0.0,0.0,0.0,0.0,0.0,0.0,0.0,0.0,0.0,0.0,0.0,0.0,0.0,0.0,0.0,0.0,0.0,0.0,0.0,0.0,0.0,0.0,0.0,0.0,0.0,0.0,0.0,0.0,0.0,0.0,0.0,0.0,0.0,0.0,0.0,0.0,0.0,0.0,0.0,0.0,0.0,0.0,0.0,0.0,0.0,0.0,0.0,0.0,0.0,0.0,0.0,0.0,0.0,0.0,0.0,0.0,0.0,0.0,0.0,0.0,0.0,0.0,0.0,0.0,0.0,0.0,0.0,0.0,0.0,0.0,0.0,0.0,0.0,0.0,0.0,0.0,0.0,0.0,0.0,0.0,0.0,0.0,0.0,0.0,0.0,0.0,0.0,0.0,0.0,0.0,0.0,0.0,0.0,0.0,0.0,0.0,0.0,0.0,0.0,0.0,0.0,0.0,0.0,0.0,0.0,0.0,0.0,0.0,0.0,0.0,0.0,0.0,0.0,0.0,0.0,0.0,0.0,0.0,0.0,0.0,0.0,0.0,0.0,0.0,0.0,0.0,0.0,0.0,0.0,0.0,0.0,0.0,0.0,0.0,0.0,0.0,0.0,0.0,0.0,0.0,0.0,0.0,0.0,0.0,0.0,0.0,0.0,0.0,0.0,0.0,0.0,0.0,0.0,0.0,0.0,0.0,0.0,0.0,0.0,0.0,0.0,0.0,0.0,0.0,0.0,0.0,0.0,0.0,0.0,0.0,0.0,0.0,0.0,0.0,0.0,0.0,0.0,0.0,0.0,0.0,0.0,0.0,0.0,0.0,0.0,0.0,0.0,0.0,0.0,0.0,0.0,0.0,0.0,0.0,0.0,0.0,0.0,0.0,0.0,0.0,0.0,0.0,0.0,0.0,0.0,0.0,0.0,0.0,0.0,0.0,0.0,0.0,0.0,0.0,0.0,0.0,0.0,0.0,0.0,0.0,0.0,0.0,0.0,0.0,0.0,0.0,0.0,0.0,0.0,0.0,0.0,0.0,0.0,0.0,0.0,0.0,0.0,0.0,0.0,0.0,0.0,0.0,0.0,0.0,0.0,0.0,0.0,0.0,0.0,0.0,0.0,0.0,0.0,0.0,0.0,0.0,0.0,0.0,0.0,0.0,0.0,0.0,0.0,0.0,0.0,0.0,0.0,0.0,0.0,0.0,0.0,0.0,0.0,0.0,0.0,0.0,0.0,0.0,0.0,0.0,0.0,0.0,0.0,0.0,0.0,0.0,0.0,0.0,0.0,0.0,0.0,0.0,0.0,0.0,0.0,0.0,0.0,0.0,0.0,0.0,0.0,0.0,0.0,0.0,0.0,0.0,0.0,0.0,0.0,0.0,0.0,0.0,0.0,0.0,0.0,0.0,0.0,0.0,0.0,0.0,0.0,0.0,0.0,0.0,0.0,0.0,0.0,0.0,0.0,0.0,0.0,0.0,0.0,0.0,0.0,0.0,0.0,0.0,0.0,0.0,0.0,0.0,0.0,0.0,0.0,0.0,0.0,0.0,0.0,0.0,0.0,0.0,0.0,0.0,0.0,0.0,0.0,0.0,0.0,0.0,0.0,0.0,0.0,0.0,0.0,0.0,0.0,0.0,0.0,0.0,0.0,0.0,0.0,0.0,0.0,0.0,0.0,0.0,0.0,0.0,0.0,0.0,0.0,0.0,0.0,0.0,0.0,0.0,0.0,0.0,0.0,0.0,0.0,0.0,0.0,0.0,0.0,0.0,0.0,0.0,0.0,0.0,0.0,0.0,0.0,0.0,0.0,0.0,0.0,0.0,0.0,0.0,0.0,0.0,0.0,0.0,0.0,0.0,0.0,0.0,0.0,0.0,0.0,0.0,0.0,0.0,0.0,0.0,0.0,0.0,0.0,0.0,0.0,0.0,0.0,0.0,0.0,0.0,0.0,0.0,0.0,0.0,0.0,0.0,0.0,0.0,0.0,0.0,0.0,0.0,0.0,0.0,0.0,0.0,0.0,0.0,0.0,0.0,0.0,0.0,0.0,0.0,0.0,0.0,0.0,0.0,0.0,0.0,0.0,0.0,0.0,0.0,0.0,0.0,0.0,0.0,0.0,0.0,0.0,0.0,0.0,0.0,0.0,0.0,0.0,0.0,0.0,0.0,0.0,0.0,0.0,0.0,0.0,0.0,0.0,0.0,0.0,0.0,0.0,0.0,0.0,0.0,0.0,0.0,0.0,0.0,0.0,0.0,0.0,0.0,0.0,0.0,0.0,0.0,0.0,0.0,0.0,0.0,0.0,0.0,0.0,0.0,0.0,0.0,0.0,0.0,0.0,0.0,0.0,0.0,0.0,0.0,0.0,0.0,0.0,0.0,0.0,0.0,0.0,0.0,0.0,0.0,0.0,0.0,0.0,0.0,0.0,0.0,0.0,0.0,0.0,0.0,0.0,0.0,0.0,0.0,0.0,0.0,0.0,0.0,0.0,0.0,0.0,0.0,0.0,0.0,0.0,0.0,0.0,0.0,0.0,0.0,0.0,0.0,0.0,0.0,0.0,0.0,0.0,0.0,0.0,0.0,0.0,0.0,0.0,0.0,0.0,0.0,0.0,0.0,0.0,0.0,0.0,0.0,0.0,0.0,0.0,0.0,0.0,0.0,0.0,0.0,0.0,0.0,0.0,0.0,0.0,0.0,0.0,0.0,0.0,0.0,0.0,0.0,0.0,0.0,0.0,0.0,0.0,0.0,0.0,0.0,0.0,0.0,0.0,0.0,0.0,0.0,0.0,0.0,0.0,0.0,0.0,0.0,0.0,0.0,0.0,0.0,0.0,0.0,0.0,0.0,0.0,0.0,0.0,0.0,0.0,0.0,0.0,0.0,0.0,0.0,0.0,0.0,0.0,0.0,0.0,0.0,0.0,0.0,0.0,0.0,0.0,0.0,0.0,0.0,0.0,0.0,0.0,0.0,0.0,0.0,0.0,0.0,0.0,0.0,0.0,0.0,0.0,0.0,0.0,0.0,0.0,0.0,0.0,0.0,0.0,0.0,0.0,0.0,0.0,0.0,0.0,0.0,0.0,0.0,0.0,0.0,0.0,0.0,0.0,0.0,0.0,0.0,0.0,0.0,0.0,0.0,0.0,0.0,0.0,0.0,0.0,0.0,0.0,0.0,0.0,0.0,0.0,0.0,0.0,0.0,0.0,0.0,0.0,0.0,0.0,0.0,0.0,0.0,0.0,0.0,0.0,0.0,0.0,0.0,0.0,0.0,0.0,0.0,0.0,0.0,0.0,0.0,0.0,0.0,0.0,0.0,0.0,0.0,0.0,0.0,0.0,0.0,0.0,0.0,0.0,0.0,0.0,0.0,0.0,0.0,0.0,0.0,0.0,0.0,0.0,0.0,0.0,0.0,0.0,0.0,0.0,0.0,0.0,0.0,0.0,0.0,0.0,0.0,0.0,0.0,0.0,0.0,0.0,0.0,0.0,0.0,0.0,0.0,0.0,0.0,0.0,0.0,0.0,0.0,0.0,0.0,0.0,0.0,0.0,0.0,0.0,0.0,0.0,-2.7928,-2.7523,0.0,0.0,0.0,0.0,0.0,0.0,0.0,0.0,0.0,0.0,0.0,0.0,0.0,0.0,0.0,0.0,0.0,0.0,0.0,0.0,0.0,0.0,0.0,0.0,0.0,0.0,0.0,0.0,0.0,0.0,0.0,0.0,0.0,0.0,0.0,0.0,0.0,0.0,-2.6162,-2.6982,-2.724,-2.7509,-2.7625,-2.764,0.0,0.0,0.0,0.0,0.0,0.0,0.0,0.0,0.0,0.0,0.0,0.0,0.0,0.0,0.0,0.0,0.0,0.0,0.0,0.0,0.0,0.0,0.0,0.0,0.0,0.0,0.0,0.0,0.0,0.0,0.0,0.0,0.0,0.0,0.0,0.0,0.0,0.0,0.0,0.0,0.0,0.0,0.0,0.0,0.0,0.0,0.0,0.0,0.0,0.0,0.0,0.0,0.0,0.0,0.0,0.0,0.0,0.0,0.0,0.0,0.0,0.0,0.0,0.0,0.0,0.0,0.0,0.0,0.0,0.0,-2.8634,-2.8373,0.0,0.0,0.0,0.0,0.0,0.0,0.0,0.0,0.0,0.0,0.0,0.0,0.0,0.0,0.0,0.0,0.0,0.0,0.0,0.0,0.0,0.0,0.0,0.0,-2.4208,-2.4637,-2.4266,-2.4208,0.0,0.0,0.0,0.0,0.0,0.0,0.0,-2.5439,-2.5189,-2.4408,-2.5986,-2.7019,-2.7625,-2.7625,-2.7625,-2.7625,-2.7625,0.0,0.0,0.0,0.0,0.0,0.0,0.0,0.0,0.0,0.0,0.0,0.0,0.0,0.0,0.0,0.0,0.0,0.0,0.0,0.0,0.0,0.0,0.0,0.0,0.0,0.0,0.0,0.0,0.0,0.0,0.0,0.0,0.0,0.0,0.0,0.0,0.0,0.0,0.0,0.0,0.0,0.0,0.0,0.0,0.0,0.0,0.0,0.0,0.0,0.0,0.0,0.0,0.0,0.0,0.0,0.0,0.0,0.0,0.0,0.0,0.0,0.0,0.0,-2.853,-2.91,-2.8745,-2.9307,-2.964,-2.9732,-2.9732,-2.9549,-2.9274,-2.9274,0.0,0.0,0.0,0.0,0.0,0.0,0.0,0.0,0.0,0.0,0.0,0.0,0.0,0.0,0.0,0.0,0.0,0.0,0.0,0.0,0.0,-2.4394,-2.4047,-2.3551,-2.3846,-2.4021,0.0,0.0,0.0,0.0,0.0,0.0,-2.3865,-2.4962,-2.5089,-2.4157,-2.5356,-2.6481,-2.7625,-2.7625,-2.7625,-2.7625,-2.7625,-2.767,-2.7745,0.0,0.0,0.0,0.0,0.0,0.0,0.0,0.0,0.0,0.0,0.0,0.0,0.0,0.0,0.0,0.0,0.0,0.0,0.0,0.0,0.0,0.0,0.0,0.0,0.0,0.0,0.0,0.0,0.0,0.0,0.0,0.0,0.0,0.0,0.0,0.0,0.0,0.0,0.0,0.0,0.0,-2.1807,-2.1807,0.0,0.0,0.0,0.0,0.0,0.0,0.0,0.0,0.0,0.0,0.0,0.0,0.0,-2.4711,-2.5597,-2.7236,-2.8104,-2.8189,-2.8938,-2.9464,-2.9887,-3.0529,-3.1039,-3.1509,-3.1509,0.0,-2.9274,-2.9274,0.0,0.0,0.0,0.0,0.0,0.0,0.0,0.0,0.0,0.0,0.0,0.0,0.0,0.0,0.0,0.0,0.0,0.0,0.0,0.0,0.0,-2.3207,-2.2834,-2.3135,-2.2701,-2.2701,-2.3433,-2.3492,0.0,0.0,0.0,-2.4708,-2.4118,-2.5018,-2.5481,-2.5314,-2.5851,-2.6602,-2.7625,-2.7625,-2.7625,-2.7625,-2.7625,-2.7625,-2.7625,-2.811,0.0,0.0,0.0,0.0,0.0,0.0,0.0,0.0,0.0,0.0,0.0,0.0,0.0,0.0,0.0,0.0,0.0,0.0,0.0,0.0,0.0,0.0,0.0,0.0,0.0,0.0,0.0,0.0,0.0,0.0,0.0,0.0,0.0,0.0,0.0,0.0,0.0,0.0,0.0,-2.1807,-2.1807,-2.1807,-2.1807,-2.1807,0.0,0.0,0.0,0.0,0.0,0.0,0.0,0.0,0.0,-2.3102,-2.4672,-2.5831,-2.6428,-2.7854,-2.8984,-2.986,-3.0407,-3.1026,-3.1575,-3.1836,-3.2084,-3.2319,-3.2319,-3.1888,-3.1143,-3.0503,-3.0241,-3.0228,0.0,0.0,0.0,0.0,-3.0294,-3.0225,0.0,0.0,0.0,0.0,0.0,0.0,0.0,0.0,0.0,0.0,0.0,0.0,-2.3433,-2.2237,-2.1678,-2.2335,-2.1616,-2.1491,-2.2531,-2.2738,0.0,0.0,-2.393,-2.4465,-2.4279,-2.4892,-2.5564,-2.619,-2.6014,-2.6443,-2.7357,-2.7357,-2.7458,-2.7625,-2.7625,-2.766,-2.7795,-2.8304,-2.8528,-2.8717,0.0,0.0,0.0,0.0,0.0,0.0,0.0,0.0,0.0,0.0,0.0,0.0,0.0,0.0,0.0,0.0,0.0,0.0,0.0,0.0,0.0,0.0,0.0,0.0,0.0,0.0,0.0,0.0,0.0,0.0,0.0,0.0,0.0,0.0,0.0,0.0,0.0,-2.1807,-2.1807,-2.1807,-2.1807,-2.1807,0.0,0.0,0.0,0.0,0.0,0.0,-2.2268,-2.3152,-2.3798,-2.426,-2.5631,-2.6864,-2.7852,-2.8925,-3.0126,-3.1431,-3.1849,-3.228,-3.2698,-3.2855,-3.2921,-3.2921,-3.2921,-3.2921,-3.2842,-3.1836,-3.1418,-3.1418,-3.1441,-3.1415,-3.1402,-3.1448,-3.1438,-3.1418,0.0,0.0,0.0,0.0,0.0,0.0,0.0,0.0,0.0,0.0,0.0,-2.4412,-2.2845,-2.2027,-2.129,-2.0515,-2.0858,-2.1123,-2.1187,-2.1851,-2.2247,-2.2247,-2.2871,-2.3327,-2.3636,-2.4221,-2.4978,-2.5948,-2.5342,-2.5646,-2.6736,-2.6736,-2.7049,-2.7625,-2.7625,-2.7845,-2.8304,-2.8826,-2.9257,-2.9572,-3.0199,0.0,0.0,0.0,0.0,0.0,0.0,0.0,0.0,0.0,0.0,0.0,0.0,0.0,0.0,0.0,0.0,0.0,0.0,0.0,0.0,0.0,0.0,0.0,0.0,0.0,0.0,0.0,0.0,0.0,0.0,0.0,0.0,0.0,0.0,0.0,0.0,0.0,0.0,-2.1807,-2.1807,0.0,0.0,0.0,0.0,-2.1807,-2.2211,-2.2829,-2.3635,-2.343,-2.4388,-2.6989,-2.7079,-2.8187,-3.048,-3.1304,-3.1954,-3.2607,-3.2633,-3.2659,-3.2712,-3.3287,-3.3548,-3.3548,-3.3548,-3.3548,-3.3496,-3.2868,-3.2607,-3.2581,-3.2633,-3.2631,-3.2579,-3.2626,-3.2638,-3.2607,0.0,0.0,0.0,0.0,0.0,0.0,0.0,0.0,-2.6176,-2.5342,-2.4738,-2.3787,-2.2151,-2.1342,-2.0782,-2.0409,-1.9955,-2.002,-2.0613,-2.1198,-2.1463,-2.1463,-2.2543,-2.3564,-2.4465,-2.4948,-2.5411,-2.5893,-2.5481,-2.5742,-2.6683,-2.6683,-2.7049,-2.7625,-2.7625,-2.8042,-2.8842,-2.9028,-2.9348,-2.975,-3.03,-3.0468,0.0,0.0,0.0,0.0,0.0,0.0,0.0,0.0,0.0,0.0,0.0,0.0,0.0,0.0,0.0,0.0,0.0,0.0,0.0,0.0,0.0,0.0,0.0,0.0,0.0,0.0,0.0,0.0,0.0,0.0,0.0,0.0,0.0,0.0,0.0,0.0,0.0,-2.1807,-2.1807,0.0,-2.1807,-2.2076,-2.2252,-2.2252,-2.3197,-2.3913,-2.4215,-2.5464,-2.652,-2.7304,-2.8458,-2.9626,-3.0803,-3.147,-3.2287,-3.3273,-3.3273,-3.3456,-3.3796,-3.4018,-3.411,-3.411,-3.411,-3.411,-3.4097,-3.3875,-3.3352,-3.2685,-3.2686,-3.2672,-3.271,-3.2712,-3.2725,-3.2681,0.0,0.0,0.0,0.0,0.0,0.0,0.0,0.0,-2.566,-2.5077,-2.4266,-2.3075,-2.1416,-2.0719,-2.015,-1.9704,-1.9573,-1.9628,-2.0031,-2.0944,-2.1388,-2.1123,-2.2592,-2.3917,-2.5005,-2.5201,-2.5425,-2.5619,-2.5147,-2.5467,-2.6404,-2.6404,-2.6826,-2.7625,-2.7625,-2.814,-2.909,-2.9107,-2.9412,-2.9968,-3.0342,-3.0452,-3.0335,0.0,0.0,0.0,0.0,0.0,0.0,0.0,0.0,0.0,0.0,0.0,0.0,0.0,0.0,0.0,0.0,0.0,0.0,0.0,0.0,0.0,0.0,0.0,0.0,0.0,0.0,0.0,0.0,0.0,0.0,0.0,0.0,0.0,0.0,-2.1807,-2.1807,-2.1807,-2.1807,-2.1869,-2.2025,-2.2315,-2.2563,-2.2718,-2.3684,-2.4421,-2.4719,-2.6132,-2.7364,-2.824,-2.9352,-3.0468,-3.1765,-3.2162,-3.2881,-3.3862,-3.3862,-3.4058,-3.4397,-3.4397,-3.4397,-3.4397,-3.4397,-3.4397,-3.4397,-3.4397,-3.3953,-3.326,-3.326,-3.3284,-3.3251,-3.3251,-3.3251,-3.3251,0.0,0.0,0.0,0.0,0.0,0.0,0.0,-2.6549,-2.566,-2.5007,-2.382,-2.2372,-2.0707,-2.0085,-1.9386,-1.8405,-1.9584,-2.0031,-1.9299,-2.1071,-2.1862,-2.1135,-2.2942,-2.4266,-2.4948,-2.4948,-2.5005,-2.5005,-2.439,-2.465,-2.5783,-2.5783,-2.6428,-2.7625,-2.7625,-2.814,-2.9106,-2.9077,-2.9523,-3.0234,-3.0426,-3.0368,-3.0192,0.0,0.0,0.0,0.0,0.0,0.0,0.0,0.0,0.0,0.0,0.0,0.0,0.0,0.0,0.0,0.0,0.0,0.0,0.0,0.0,0.0,0.0,0.0,0.0,0.0,0.0,0.0,0.0,0.0,0.0,0.0,0.0,0.0,-2.1807,-2.1807,-2.1807,-2.1807,-2.1818,-2.2004,-2.2449,-2.2522,-2.2718,-2.3174,-2.3722,-2.4293,-2.5153,-2.529,-2.6718,-2.9738,-2.9476,-3.0666,-3.3493,-3.3613,-3.3888,-3.4397,-3.4397,-3.4397,-3.4397,-3.4397,-3.4397,-3.4397,-3.4397,-3.4397,-3.4397,-3.4397,-3.4397,-3.4397,-3.4397,-3.4397,-3.4397,-3.4397,-3.4397,-3.4397,0.0,0.0,0.0,0.0,0.0,0.0,0.0,-2.6158,-2.4824,-2.3702,-2.287,-2.1717,-2.0074,-1.9835,-1.9452,-1.8539,-1.8731,-1.8865,-1.8741,-1.9977,-2.1008,-2.1862,-2.2859,-2.3623,-2.4266,-2.435,-2.4536,-2.5005,-2.439,-2.465,-2.5783,-2.5783,-2.6428,-2.7625,-2.7625,-2.8183,-2.9077,-2.9123,-2.956,-3.0335,-3.0415,-3.0349,-3.0178,0.0,0.0,0.0,0.0,0.0,0.0,0.0,0.0,0.0,0.0,0.0,0.0,0.0,0.0,0.0,0.0,0.0,0.0,0.0,0.0,0.0,0.0,0.0,0.0,0.0,0.0,0.0,0.0,0.0,0.0,0.0,-2.1807,-2.1807,-2.1807,-2.1807,-2.1807,-2.1807,-2.2097,-2.2356,-2.248,-2.3111,-2.3557,-2.3681,-2.466,-2.5395,-2.5633,-2.6596,-2.7592,-2.8527,-2.9606,-3.0834,-3.2261,-3.3038,-3.3753,-3.4397,-3.4397,-3.4397,-3.4397,-3.4397,-3.4397,-3.4397,-3.4397,-3.4397,-3.4397,-3.4397,-3.4397,-3.4397,-3.4397,-3.4397,-3.4397,-3.4397,-3.4397,-3.4397,0.0,0.0,0.0,0.0,0.0,0.0,0.0,-2.5781,-2.4584,-2.3715,-2.2457,-2.1175,-2.0139,-1.9704,-1.9264,-1.8549,-1.8674,-1.8741,-1.8414,-1.9452,-2.0869,-2.2519,-2.2919,-2.3492,-2.4394,-2.4234,-2.4421,-2.5005,-2.439,-2.465,-2.5783,-2.5783,-2.6428,-2.7625,-2.7625,-2.8039,-2.8763,-2.9011,-2.95,-3.017,-3.0356,-3.0366,-3.0294,-3.0205,-3.0113,-3.0067,-2.9956,-2.9281,-2.8392,-2.8308,0.0,0.0,0.0,0.0,0.0,0.0,0.0,0.0,0.0,0.0,0.0,0.0,0.0,0.0,0.0,0.0,0.0,0.0,0.0,0.0,0.0,0.0,0.0,0.0,-2.1807,-2.1807,-2.1807,-2.1807,-2.188,-2.2066,-2.2335,-2.2646,-2.3039,-2.3567,-2.396,-2.4146,-2.4872,-2.5263,-2.5263,-2.6384,-2.7408,-2.8184,-2.9753,-3.1161,-3.2431,-3.3377,-3.3979,-3.4397,-3.4397,-3.4397,-3.4397,-3.4397,-3.4397,-3.4397,-3.4397,-3.4397,-3.4397,-3.4397,-3.4397,-3.4397,0.0,0.0,0.0,0.0,-3.4397,-3.4397,0.0,0.0,0.0,0.0,0.0,0.0,0.0,-2.5536,-2.4641,-2.4323,-2.2408,-2.088,-2.0537,-1.9704,-1.9008,-1.8549,-1.9075,-1.9208,-1.8539,-1.9584,-2.1037,-2.2907,-2.2967,-2.3577,-2.4878,-2.4305,-2.4305,-2.5005,-2.439,-2.465,-2.5783,-2.5783,-2.6428,-2.7625,-2.7655,-2.7959,-2.8417,-2.8962,-2.9459,-2.9905,-3.0284,-3.0408,-3.0393,-3.0363,-3.0293,-3.0179,-3.0028,-2.928,-2.8345,-2.8303,0.0,0.0,0.0,0.0,0.0,0.0,0.0,0.0,0.0,0.0,0.0,0.0,0.0,0.0,0.0,0.0,0.0,0.0,0.0,0.0,0.0,0.0,0.0,0.0,-2.1807,-2.1828,-2.189,-2.1901,-2.2045,-2.2449,-2.2594,-2.2977,-2.3795,-2.3929,-2.4115,-2.4509,-2.454,-2.454,-2.454,-2.5312,0.0,0.0,0.0,-3.1491,-3.3104,-3.3979,-3.4397,-3.4397,-3.4397,-3.4397,-3.4397,-3.4397,-3.4397,-3.4397,-3.4397,-3.4397,-3.4397,-3.4397,-3.4397,-3.4397,-3.4397,-3.4397,-3.4397,-3.4397,-3.4397,-3.4397,0.0,0.0,0.0,0.0,0.0,0.0,0.0,-2.5929,-2.4526,-2.3263,-2.2384,-2.1365,-1.9922,-1.9846,-1.9518,-1.8607,-1.8617,-1.9008,-1.9704,-2.0484,-2.1325,-2.2359,-2.2359,-2.2944,-2.415,-2.359,-2.3826,-2.5005,-2.439,-2.465,-2.5783,-2.5783,-2.6428,-2.764,-2.8017,-2.8445,-2.9008,-2.9453,-2.9939,-3.0385,-3.0426,-3.0468,-3.0377,-3.029,-3.029,-3.0351,-3.0084,-2.9416,-2.8602,-2.8369,-2.7649,-2.6779,-2.6779,-2.6779,0.0,0.0,0.0,0.0,0.0,0.0,0.0,0.0,0.0,0.0,0.0,0.0,0.0,0.0,0.0,0.0,0.0,0.0,0.0,-2.1807,-2.1807,-2.1973,-2.2282,-2.2354,-2.2422,-2.2501,-2.3153,-2.3681,-2.3857,-2.4198,-2.4447,-2.4444,-2.454,-2.454,-2.454,-2.5062,-2.5685,-2.6383,-2.8939,-3.0664,-3.1276,-3.3322,-3.4397,-3.4397,-3.4397,0.0,-3.4397,-3.4397,-3.4397,-3.4397,-3.4397,-3.4397,-3.4397,-3.4397,-3.4397,-3.4397,-3.4397,-3.4397,-3.4397,-3.4397,-3.4397,-3.4397,0.0,0.0,0.0,0.0,0.0,0.0,0.0,-2.5686,-2.4368,-2.3513,-2.2457,-2.1439,-2.056,-2.0431,-1.9977,-1.8988,-1.8798,-1.9121,-2.0031,-2.0741,-2.1463,-2.2185,-2.2197,-2.2592,-2.3446,-2.3399,-2.3708,-2.4408,-2.4637,-2.5077,-2.5797,-2.6111,-2.6712,-2.764,-2.8112,-2.8425,-2.8763,-2.9517,-2.996,-3.0153,-3.0418,-3.0468,-3.0435,-3.0326,-3.0342,-3.0375,-3.0091,-2.9424,-2.856,-2.8366,-2.7609,-2.6779,-2.6779,-2.6779,-2.6669,0.0,0.0,0.0,0.0,0.0,0.0,0.0,0.0,0.0,0.0,0.0,0.0,0.0,0.0,-2.1807,-2.1807,0.0,-2.1807,-2.1807,-2.2012,-2.2234,-2.246,-2.2912,-2.3184,-2.3184,-2.3598,-2.396,-2.4188,-2.4405,-2.454,-2.454,-2.454,-2.454,-2.454,-2.4985,-2.5425,-2.5899,-2.855,-3.0272,-3.0882,-3.311,-3.4314,-3.4397,-3.4397,-3.4397,-3.4397,-3.4397,-3.4397,-3.4397,-3.4397,-3.4397,-3.4397,-3.4397,-3.4397,-3.4397,-3.4397,-3.4397,-3.4397,-3.4397,-3.4397,-3.4397,0.0,0.0,0.0,0.0,0.0,0.0,0.0,-2.5439,-2.4279,-2.4092,-2.2665,-2.1588,-2.1388,-2.0944,-2.0172,-1.9177,-1.9177,-1.9441,-2.0031,-2.088,-2.16,-2.2185,-2.2197,-2.2469,-2.304,-2.3339,-2.3636,-2.3917,-2.4894,-2.5467,-2.5783,-2.6397,-2.7033,-2.764,-2.8173,-2.844,-2.851,-2.9526,-2.9946,-2.998,-3.0369,-3.0526,-3.0468,-3.0452,-3.0392,-3.0346,-3.0107,-2.9358,-2.8475,-2.8366,-2.7615,-2.6779,-2.6779,-2.6779,-2.6654,-2.595,-2.5409,0.0,0.0,0.0,0.0,0.0,0.0,0.0,0.0,-2.4337,-2.3756,-2.2531,-2.2025,-2.1807,-2.1807,-2.1807,-2.1838,-2.1952,-2.2224,-2.2569,-2.273,-2.3408,-2.3961,-2.3991,-2.4002,-2.4146,-2.4509,-2.454,-2.454,-2.454,-2.454,-2.454,-2.454,-2.4892,-2.5315,-2.5847,-2.817,-2.9793,-3.0513,-3.2701,-3.3959,-3.423,-3.4314,-3.4397,-3.4397,-3.4515,-3.4567,-3.458,-3.4685,-3.4672,-3.4567,-3.4567,-3.4502,-3.4397,-3.4397,-3.4397,-3.4397,-3.4397,-3.4397,-3.4397,0.0,0.0,0.0,0.0,0.0,0.0,0.0,0.0,-2.4452,-2.4279,-2.3245,-2.2285,-2.1451,-2.0933,-2.002,-1.8529,-1.9375,-2.0031,-2.0096,-2.1336,-2.2123,-2.2197,-2.2197,-2.2592,-2.3518,-2.3292,-2.359,-2.4394,-2.4821,-2.5314,-2.5783,-2.6397,-2.7033,-2.764,-2.8617,-2.9027,-2.9081,-3.0024,-3.0426,-3.0418,-3.0468,-3.0526,-3.0485,-3.0434,-3.0399,-3.0389,-3.0227,-2.9447,-2.8451,-2.8342,-2.7615,-2.6779,-2.6779,-2.6779,-2.6558,-2.5416,-2.5077,-2.4745,-2.3555,-2.3966,-2.4743,-2.4883,-2.5686,-2.6452,0.0,-2.5134,-2.4047,-2.3902,-2.2745,-2.1807,-2.1807,-2.1807,-2.1973,-2.2333,-2.2485,-2.2804,-2.3657,-2.3795,-2.4002,-2.4372,-2.4467,-2.4488,-2.454,-2.454,-2.454,-2.454,-2.454,-2.454,-2.454,-2.4592,-2.4809,-2.53,-2.7015,-2.8334,-2.9301,-3.1625,-3.3046,-3.3484,-3.4147,-3.4397,-3.441,-3.4946,-3.5195,-3.5221,-3.5704,-3.5639,-3.5195,-3.5195,-3.4881,-3.4397,-3.4397,-3.4397,-3.4397,-3.4397,-3.4397,-3.4397,0.0,0.0,0.0,0.0,0.0,0.0,0.0,0.0,0.0,0.0,-2.3198,-2.2247,-2.1925,-2.1262,-2.0602,-1.9966,-2.042,-2.0677,-2.0677,-2.16,-2.2197,-2.2197,-2.2383,-2.2604,-2.2884,-2.3412,-2.3721,-2.3852,-2.5133,-2.5742,-2.5837,-2.6765,-2.735,-2.764,-2.8299,-2.8819,-2.9143,-2.9825,-3.0261,-3.0485,-3.0443,-3.0485,-3.0468,-3.0103,-2.9935,-2.9923,-2.975,-2.9007,0.0,-2.8003,-2.7489,-2.6905,-2.6905,-2.664,-2.6088,-2.5265,-2.4759,-2.4438,-2.4166,-2.4456,-2.4971,-2.5611,-2.6126,-2.6233,-2.5288,-2.4552,-2.3829,-2.2957,-2.2241,-2.1807,-2.1807,-2.2025,-2.2283,-2.2453,-2.296,-2.3468,-2.3804,-2.4091,-2.4317,-2.4454,-2.454,-2.454,-2.454,-2.454,-2.454,-2.454,-2.454,-2.454,-2.454,-2.454,-2.4633,-2.483,-2.6345,-2.7532,-2.8282,-3.0737,-3.2134,-3.2397,-3.4088,-3.4673,-3.4301,-3.5357,-3.577,-3.5783,-3.6005,-3.5796,-3.5299,-3.5299,-3.4933,-3.4397,-3.4397,-3.4397,-3.4397,-3.4397,-3.4397,-3.4397,0.0,0.0,0.0,0.0,0.0,0.0,0.0,0.0,0.0,0.0,-2.3065,-2.2123,-2.1925,-2.14,-2.0996,-2.0869,-2.0996,-2.1123,-2.1123,-2.1788,-2.2247,-2.242,-2.2616,-2.2726,-2.2896,-2.3603,-2.3852,-2.3582,-2.53,-2.6042,-2.5812,-2.7063,-2.7625,-2.764,-2.8112,-2.8541,-2.8922,-2.9564,-2.9996,-3.0311,-3.041,-3.0392,-3.0254,-2.9782,-2.9414,-2.9155,-2.917,-2.8607,-2.7824,-2.7513,-2.7158,-2.6736,-2.6515,-2.6088,-2.5558,-2.4969,-2.4429,-2.4177,-2.452,-2.4808,-2.5156,-2.5822,-2.6064,-2.5804,-2.4409,-2.3975,-2.3475,-2.2392,-2.1959,-2.1849,-2.1973,-2.2273,-2.2573,-2.2832,-2.3421,-2.3919,-2.4075,-2.4281,-2.454,-2.454,-2.454,-2.454,-2.454,-2.454,-2.454,-2.454,-2.454,-2.454,-2.454,-2.454,-2.454,-2.454,-2.5819,-2.6799,-2.7361,-2.9827,-3.1296,-3.1896,-3.4002,-3.4917,-3.4744,-3.5843,-3.6449,-3.6606,-3.6606,-3.6279,-3.5757,-3.5587,-3.5168,-3.4633,-3.4463,-3.4397,-3.4397,-3.4397,-3.4397,-3.4397,0.0,0.0,0.0,0.0,0.0,0.0,0.0,0.0,0.0,0.0,0.0,0.0,0.0,-2.1123,-2.0869,-2.0161,-2.0741,-2.1123,-2.1123,-2.1788,-2.2469,-2.3027,-2.2836,-2.315,-2.4002,-2.3793,-2.3747,-2.4054,-2.5245,-2.584,-2.58,-2.7018,-2.7625,-2.764,-2.8112,-2.8319,-2.8408,-2.9376,-2.9823,-2.9856,-3.0294,-3.0244,-2.9833,-2.9669,-2.8904,-2.8038,-2.8664,-2.8384,-2.7648,-2.7036,-2.6513,-2.5979,-2.5293,-2.5156,-2.5087,-2.436,-2.4078,-2.4023,-2.4042,-2.4782,-2.544,-2.4735,-2.4927,-2.5087,-2.4264,-2.3559,-2.3001,-2.3001,-2.2327,-2.1942,-2.2387,-2.248,-2.2791,-2.3691,-2.3846,-2.4054,-2.4436,-2.4529,-2.454,-2.454,-2.454,-2.454,-2.454,-2.454,-2.454,-2.454,-2.454,-2.454,-2.454,-2.454,-2.454,-2.454,-2.5409,-2.6115,-2.663,-2.8797,-3.0696,-3.2412,-3.362,-3.4902,-3.6083,-3.6698,-3.7299,-3.7848,-3.7848,-3.7508,-3.6907,-3.6319,-3.5757,-3.5208,-3.462,-3.4397,-3.4397,-3.4397,-3.4397,-3.4397,0.0,0.0,0.0,0.0,0.0,0.0,0.0,0.0,0.0,0.0,0.0,0.0,0.0,0.0,0.0,0.0,-2.1726,-2.1862,-2.1862,-2.2061,-2.2309,-2.2469,-2.2775,-2.3138,-2.3424,-2.3747,-2.3995,-2.4112,-2.5245,-2.5785,-2.5814,-2.7018,-2.7625,-2.7625,-2.7765,-2.8017,-2.8303,-2.867,-2.9198,-2.9778,-2.954,-2.9576,-2.973,-2.8982,-2.8411,-2.7961,0.0,-2.7033,-2.6616,-2.6386,-2.5939,-2.5453,-2.5211,-2.4818,-2.4262,-2.3103,-2.3389,-2.3965,-2.3899,-2.4735,-2.5485,-2.516,-2.518,-2.4945,-2.3632,-2.3213,-2.2852,-2.2327,-2.1949,-2.1952,-2.2408,-2.2749,-2.3153,-2.3774,-2.4084,-2.4322,-2.4509,-2.454,-2.454,-2.454,-2.454,-2.454,-2.454,-2.454,-2.454,-2.454,-2.454,-2.454,-2.454,-2.454,-2.4674,-2.4985,-2.5228,-2.596,-2.7028,-2.8555,-2.9927,-3.1185,-3.3615,-3.543,-3.6724,-3.7325,-3.7717,-3.79,-3.79,-3.756,-3.6985,-3.6789,-3.6149,-3.5273,-3.5077,-3.475,-3.4397,-3.4397,-3.4397,-3.4397,0.0,0.0,0.0,0.0,0.0,0.0,0.0,0.0,0.0,0.0,0.0,0.0,0.0,0.0,0.0,0.0,0.0,-2.2197,-2.2197,-2.2197,-2.2247,-2.242,-2.2714,-2.2957,-2.3125,-2.3556,-2.3878,-2.3878,-2.5145,-2.5785,-2.5812,-2.7063,-2.7625,-2.7625,-2.7625,-2.7765,-2.8082,-2.8247,-2.8654,-2.9239,-2.9058,-2.9074,-2.9104,-2.8431,-2.7894,0.0,-2.6693,-2.5992,-2.5453,-2.5442,-2.5261,-2.4917,-2.4281,-2.3731,-2.3095,-2.2283,-2.2838,-2.3752,-2.3649,-2.43,-2.4981,-2.4577,-2.4443,-2.4154,-2.2841,-2.2553,-2.2402,-2.1883,-2.1807,-2.1994,-2.2625,-2.2987,-2.3391,-2.4012,-2.4353,-2.454,-2.454,-2.454,-2.454,-2.454,-2.454,-2.454,-2.454,-2.454,-2.454,-2.454,-2.454,-2.454,-2.454,-2.4695,-2.4923,-2.5223,-2.5544,-2.6114,-2.7029,-2.8195,-2.9499,-3.1221,-3.407,-3.5878,-3.6711,-3.7312,-3.7586,-3.7599,-3.7808,-3.7691,-3.7312,-3.709,-3.6449,-3.5574,-3.5365,-3.4933,-3.4397,-3.4397,-3.4397,-3.4397,0.0,0.0,0.0,0.0,0.0,0.0,0.0,0.0,0.0,0.0,0.0,0.0,0.0,0.0,0.0,0.0,0.0,0.0,-2.2197,-2.2197,-2.242,-2.2811,-2.2592,-2.258,-2.3027,-2.3258,-2.3403,-2.3403,-2.497,-2.5757,-2.5824,-2.7019,-2.756,-2.7625,-2.7625,-2.7625,-2.764,-2.8062,-2.8274,-2.8356,-2.8795,-2.8654,-2.8076,-2.8027,-2.7312,-2.6283,-2.6229,-2.5412,-2.4345,-2.4287,-2.4481,-2.4395,-2.2651,-2.1971,-2.1773,-2.1789,-2.2542,-2.3259,-2.3279,-2.367,-2.3913,-2.3213,-2.3001,-2.2777,-2.1959,-2.1807,-2.1807,-2.1807,-2.1807,-2.2087,-2.3018,-2.3184,-2.3484,-2.4395,-2.454,-2.455,-2.4571,-2.4581,-2.4495,-2.4602,-2.4592,-2.4581,-2.4581,-2.4464,-2.454,-2.454,-2.454,-2.454,-2.454,-2.4985,-2.5244,-2.5264,-2.6113,-2.6579,-2.6692,-2.7681,-2.9583,-3.2449,-3.4882,-3.6057,-3.6083,-3.6684,-3.6972,-3.7037,-3.7612,-3.7874,-3.7861,-3.7286,-3.6698,-3.6096,-3.5547,-3.4972,-3.4437,-3.441,-3.4397,-3.4397,0.0,0.0,0.0,0.0,0.0,0.0,0.0,0.0,0.0,0.0,0.0,0.0,0.0,0.0,0.0,0.0,0.0,0.0,-2.2197,-2.2197,-2.2185,-2.2161,-2.2285,-2.242,-2.242,-2.309,-2.3403,-2.3403,-2.4589,-2.5425,-2.581,-2.6579,-2.717,-2.7625,-2.7625,-2.7625,-2.7625,-2.775,-2.7989,-2.8258,-2.7944,-2.7959,-2.8027,-2.721,-2.6654,-2.6176,-2.5287,-2.4865,-2.4677,-2.4514,-2.3813,-2.2955,-2.2747,-2.2303,-2.1818,-2.1948,-2.2606,-2.3216,-2.2723,-2.334,-2.3937,-2.3172,-2.3001,-2.2777,-2.1959,-2.1807,-2.1807,-2.1807,-2.1807,-2.2087,-2.3018,-2.3184,-2.3484,-2.4395,-2.454,-2.4664,-2.5006,-2.5057,-2.5171,-2.5502,-2.5254,-2.5057,-2.5057,-2.4747,-2.454,-2.454,-2.454,-2.454,-2.454,-2.4985,-2.5378,-2.5699,-2.6268,-2.691,-2.763,-2.9109,-3.0898,-3.2892,-3.4073,-3.4938,-3.5521,-3.6083,-3.658,-3.7011,-3.7168,-3.7482,-3.79,-3.7743,-3.7312,-3.6711,-3.6136,-3.5561,-3.5012,-3.4567,-3.4397,-3.4397,0.0,0.0,0.0,0.0,0.0,0.0,0.0,0.0,0.0,0.0,0.0,0.0,0.0,0.0,0.0,0.0,0.0,0.0,0.0,-2.2135,-2.1999,-2.1812,-2.1913,-2.1913,-2.1737,-2.258,-2.3065,-2.3065,-2.4589,-2.5508,-2.583,-2.6681,-2.728,-2.7625,-2.7625,-2.7625,-2.7625,-2.7625,-2.771,0.0,0.0,-2.7408,-2.7261,-2.6707,-2.6068,-2.5453,-2.4865,-2.435,-2.3897,-2.3726,-2.3009,-2.2166,-2.2304,-2.2092,-2.1773,-2.1881,-2.226,-2.2562,-2.22,-2.2815,-2.3416,-2.2628,-2.2777,-2.2777,-2.1959,-2.1807,-2.1807,-2.1807,-2.1807,-2.2087,-2.3018,-2.3184,-2.3484,-2.4395,-2.454,-2.4705,-2.5171,-2.5233,-2.5388,-2.5823,-2.5668,-2.5513,-2.5513,-2.5109,-2.484,-2.484,-2.4654,-2.4633,-2.484,-2.5264,-2.572,-2.6165,-2.663,-2.7181,-2.7715,-2.894,-3.0371,-3.2031,-3.3233,-3.4187,-3.492,-3.5495,-3.6057,-3.6619,-3.6894,-3.7351,-3.79,-3.79,-3.7547,-3.6972,-3.6632,-3.6149,-3.5587,-3.5012,-3.4789,-3.4763,0.0,0.0,0.0,0.0,0.0,0.0,0.0,0.0,0.0,0.0,0.0,0.0,0.0,0.0,0.0,0.0,0.0,0.0,0.0,0.0,-2.1812,-2.1698,-2.1537,-2.1336,-2.1221,-2.2113,-2.2592,-2.2592,-2.4585,-2.5633,-2.5837,-2.6864,-2.7458,-2.7625,-2.7625,-2.7625,-2.7625,-2.7625,-2.7473,-2.7335,-2.7423,-2.6982,-2.6229,0.0,-2.5522,-2.4523,-2.4536,-2.3793,-2.2702,-2.2507,-2.2185,-2.1861,-2.1705,-2.1704,-2.1744,-2.1795,-2.178,-2.1807,-2.1807,-2.2349,-2.268,-2.1939,-2.2327,-2.2628,-2.1949,-2.1807,-2.1807,-2.1807,-2.1807,-2.2087,-2.3018,-2.3184,-2.3484,-2.4395,-2.454,-2.4705,-2.5171,-2.5285,-2.5471,-2.5906,-2.5958,-2.5989,-2.603,-2.5606,-2.5347,-2.5409,-2.4985,-2.4871,-2.5213,-2.5699,-2.6185,-2.6641,-2.7055,-2.7262,-2.7262,-2.7989,-2.9149,-3.0765,-3.2488,-3.3641,-3.4256,-3.4933,-3.5482,-3.6031,-3.6619,-3.722,-3.7795,-3.7874,-3.7599,-3.7116,-3.7037,-3.6684,-3.6162,-3.5613,-3.5404,-3.5325,0.0,0.0,0.0,0.0,0.0,0.0,0.0,0.0,0.0,0.0,-2.5467,-2.4343,0.0,0.0,0.0,0.0,0.0,0.0,0.0,0.0,0.0,-2.1698,-2.1537,-2.1336,-2.1221,-2.2113,-2.2592,-2.2592,-2.3806,-2.4848,-2.5783,-2.6,-2.6654,-2.7625,-2.7625,-2.7625,-2.7625,-2.7625,-2.7306,-2.6788,-2.6721,-2.6283,-2.5673,-2.5063,0.0,0.0,-2.3551,-2.2825,-2.2427,-2.1912,-2.1715,-2.1697,-2.1996,-2.1927,-2.1786,-2.2187,-2.2077,-2.1807,-2.1807,-2.1873,-2.1939,-2.1797,-2.1883,-2.1959,-2.1807,-2.1807,-2.1807,-2.1807,-2.1807,-2.2087,-2.3018,-2.3184,-2.3484,-2.4395,-2.454,-2.4705,-2.5171,-2.5544,-2.5906,-2.6381,-2.6495,-2.6465,-2.6462,-2.6013,-2.5927,-2.631,-2.5906,-2.5523,-2.5244,-2.5999,-2.6662,-2.7127,-2.722,-2.7262,-2.7262,-2.8204,-2.9279,-3.0661,-3.1937,-3.2846,-3.3569,-3.4263,-3.4881,-3.5469,-3.6018,-3.6606,-3.7194,-3.7691,-3.7848,-3.7691,-3.7194,-3.6946,-3.6776,-3.6188,-3.5966,-3.5953,0.0,0.0,0.0,0.0,0.0,0.0,0.0,-2.9704,-2.894,-2.7327,-2.6398,-2.5255,-2.3608,-2.3159,-2.3015,0.0,0.0,0.0,0.0,0.0,0.0,0.0,0.0,0.0,-2.1588,-2.2237,-2.2725,-2.3005,0.0,-2.4991,-2.5783,-2.6122,-2.6759,-2.7625,-2.7625,-2.7625,-2.7575,-2.7255,-2.693,-2.6563,-2.6283,-2.5742,-2.5147,0.0,0.0,0.0,-2.3009,-2.255,-2.2329,-2.2093,-2.2114,-2.2239,-2.2291,-2.2153,-2.2104,-2.2359,-2.2153,-2.1807,-2.1807,-2.2145,-2.2339,-2.1863,-2.2101,-2.2327,-2.1883,-2.1807,-2.1807,-2.1807,-2.1807,-2.2087,-2.3018,-2.3184,-2.3484,-2.4395,-2.454,-2.4705,-2.5171,-2.5602,-2.6076,-2.6566,-2.6444,-2.6303,-2.632,-2.5923,-2.5734,-2.5989,-2.6403,-2.6506,-2.6299,-2.6693,-2.7034,-2.7251,-2.7262,-2.7262,-2.7262,-2.8416,-2.9368,-3.0205,-3.1637,-3.2673,-3.3398,-3.4063,-3.4724,-3.5325,-3.5874,-3.6449,-3.705,-3.7652,-3.79,-3.7874,-3.7586,-3.7469,-3.7403,-3.6789,-3.6567,-3.6528,0.0,0.0,0.0,0.0,0.0,0.0,0.0,-2.996,-2.9198,-2.7683,-2.7144,-2.618,-2.4335,-2.3905,-2.3773,0.0,0.0,0.0,0.0,0.0,0.0,0.0,0.0,0.0,-2.1951,0.0,0.0,-2.3403,-2.4319,0.0,0.0,0.0,0.0,0.0,-2.7357,-2.7357,-2.7188,-2.6721,-2.6404,0.0,0.0,-2.5327,-2.4865,0.0,0.0,0.0,0.0,-2.2509,-2.2524,-2.2484,-2.2695,-2.2867,-2.2578,-2.2475,-2.2478,-2.2402,-2.2101,-2.1807,-2.1807,-2.2274,-2.2606,-2.1939,-2.2252,-2.2553,-2.1949,-2.1807,-2.1807,-2.1807,-2.1807,-2.2087,-2.3018,-2.3184,-2.3484,-2.4395,-2.4368,-2.4492,-2.4939,-2.5388,-2.5903,-2.6422,-2.6276,-2.6134,-2.6063,-2.5806,-2.5619,-2.5724,-2.6809,-2.7407,-2.7407,-2.7314,-2.7262,-2.7262,-2.7262,-2.7262,-2.7262,-2.8355,-2.9172,-2.9635,-3.1323,-3.2488,-3.3215,-3.4063,-3.4659,-3.5142,-3.5809,-3.6371,-3.6867,-3.7599,-3.79,-3.79,-3.79,-3.79,-3.7848,-3.7377,-3.7194,-3.7129,0.0,0.0,0.0,0.0,0.0,0.0,0.0,-3.0251,-2.9546,-2.7736,-2.7432,-2.6845,-2.5308,-2.4338,-2.3773,0.0,0.0,0.0,0.0,0.0,0.0,0.0,0.0,0.0,0.0,0.0,0.0,-2.3403,-2.3936,0.0,0.0,0.0,0.0,0.0,0.0,-2.6496,-2.5946,-2.5906,0.0,0.0,0.0,0.0,0.0,0.0,0.0,0.0,0.0,-2.2777,-2.3233,-2.2973,-2.2928,-2.301,-2.2936,-2.2968,-2.2852,-2.2478,-2.2101,-2.1807,-2.1807,-2.1873,-2.1873,-2.1807,-2.1883,-2.1883,-2.1807,-2.1807,-2.1807,-2.1807,-2.1807,-2.2087,-2.3018,-2.3184,-2.3484,-2.4395,-2.4024,-2.3861,-2.4506,-2.4773,-2.5199,-2.5849,-2.6064,-2.61,-2.6073,-2.61,-2.621,-2.6606,-2.7354,-2.7862,-2.7862,-2.7479,-2.7262,-2.7262,-2.7262,-2.7262,-2.7262,-2.782,-2.8373,-2.8817,-3.0777,-3.194,-3.2488,-3.3784,-3.4424,-3.4541,-3.5626,-3.6136,-3.6279,-3.7429,-3.79,-3.79,-3.79,-3.79,-3.79,-3.7848,-3.7821,-3.7808,0.0,0.0,0.0,0.0,0.0,0.0,-3.1204,-3.0673,-2.9732,-2.8155,-2.7657,-2.6934,-2.5441,-2.4939,-2.4699,-2.4699,0.0,0.0,0.0,0.0,0.0,0.0,0.0,0.0,0.0,0.0,-2.3979,-2.433,-2.4551,0.0,0.0,0.0,0.0,0.0,0.0,-2.6554,-2.6357,-2.6357,0.0,0.0,0.0,0.0,0.0,0.0,0.0,0.0,0.0,0.0,-2.3458,-2.2791,-2.3058,-2.3677,-2.3446,-2.3224,-2.2852,-2.2252,-2.2101,-2.2101,-2.1883,-2.1807,-2.1807,-2.1807,-2.1959,-2.2101,-2.1883,-2.1959,-2.2111,-2.1883,-2.1807,-2.2087,-2.3018,-2.3184,-2.3484,-2.4395,-2.4282,-2.4024,-2.3937,-2.4223,-2.4616,-2.5167,-2.4708,-2.4849,-2.5966,-2.5664,-2.5986,-2.7394,-2.7482,-2.7521,-2.7521,-2.7355,-2.7262,-2.7262,-2.6993,-2.6848,-2.6848,-2.7101,-2.7227,-2.75,-2.998,-3.1281,-3.1552,-3.3533,-3.4397,-3.445,-3.526,-3.5626,-3.5678,-3.6488,-3.6828,-3.6828,-3.6828,-3.7037,-3.7364,-3.7364,-3.7586,-3.79,0.0,0.0,0.0,0.0,0.0,-3.1682,-3.1682,-3.0911,-2.9856,-2.8643,-2.7894,-2.7002,-2.5791,-2.5441,-2.5312,-2.5312,-2.4963,0.0,0.0,0.0,0.0,0.0,0.0,0.0,0.0,0.0,-2.4898,-2.5,-2.5172,-2.544,0.0,0.0,-2.5595,-2.584,0.0,0.0,0.0,0.0,0.0,0.0,0.0,0.0,0.0,0.0,0.0,0.0,0.0,0.0,0.0,0.0,0.0,-2.397,-2.3519,-2.3298,-2.3075,-2.2327,-2.2252,-2.2327,-2.1883,-2.1949,-2.2101,-2.2025,-2.2252,-2.2478,-2.2101,-2.2176,-2.2317,-2.1873,-2.1942,-2.2273,-2.3047,-2.3408,-2.3794,-2.4416,-2.4519,-2.4348,-2.358,-2.3877,-2.4177,-2.4467,-2.3755,-2.3892,-2.5625,-2.5441,-2.5966,-2.7785,-2.7386,-2.7117,-2.7251,-2.7003,-2.6848,-2.6848,-2.6537,-2.6361,-2.6361,-2.6393,-2.6483,-2.6662,-2.9236,-3.0457,-3.0737,-3.3104,-3.4162,-3.4201,-3.4959,-3.5299,-3.5338,-3.5874,-3.6109,-3.6109,-3.6109,-3.6358,-3.6763,-3.6933,-3.7273,-3.7665,0.0,0.0,0.0,0.0,0.0,0.0,-3.1682,-3.0911,-3.004,-2.9275,-2.822,-2.7217,-2.6483,-2.5721,-2.5312,-2.5312,-2.53,0.0,0.0,0.0,0.0,0.0,0.0,0.0,0.0,0.0,-2.5421,-2.5,-2.5497,-2.5811,-2.5811,-2.6404,-2.6344,-2.5826,0.0,0.0,0.0,0.0,0.0,0.0,0.0,0.0,0.0,0.0,0.0,0.0,0.0,0.0,0.0,0.0,0.0,0.0,0.0,-2.3298,-2.3519,-2.3075,-2.2703,-2.2327,-2.1883,-2.2402,-2.2927,-2.2478,-2.2703,-2.2927,-2.2478,-2.2381,-2.2295,-2.1873,-2.2185,-2.2628,-2.3092,-2.3879,-2.4481,-2.4457,-2.4659,-2.4467,-2.358,-2.3673,-2.3816,-2.3718,-2.3376,-2.3675,-2.4749,-2.5596,-2.656,-2.7796,-2.7086,-2.6775,-2.7241,-2.6392,-2.5885,-2.5885,-2.5885,-2.5885,-2.5885,-2.5885,-2.6135,-2.6662,-2.8459,-2.9581,-3.0109,-3.2472,-3.36,-3.3666,-3.4803,-3.5299,-3.5338,-3.5874,-3.6109,-3.6109,-3.6109,-3.6109,-3.6188,-3.6789,-3.6998,-3.7103,0.0,0.0,0.0,0.0,0.0,0.0,0.0,-3.1204,-3.0389,-2.9338,-2.822,-2.7217,-2.6483,-2.5721,-2.5312,-2.5312,-2.5312,0.0,0.0,0.0,0.0,0.0,0.0,0.0,0.0,0.0,-2.5967,-2.5629,-2.6128,-2.6437,-2.6422,-2.6171,-2.6003,-2.5853,-2.6427,-2.6614,0.0,0.0,0.0,0.0,0.0,0.0,-2.4343,0.0,0.0,0.0,0.0,0.0,0.0,0.0,0.0,0.0,0.0,0.0,0.0,-2.3446,-2.3298,-2.3075,-2.2402,-2.2628,-2.3001,-2.2852,-2.315,-2.3213,-2.2521,-2.2841,-2.3057,-2.2392,-2.2615,-2.3175,-2.3921,-2.4349,-2.473,-2.5316,-2.5538,-2.5009,-2.3464,-2.366,-2.393,-2.3763,-2.5039,-2.5932,-2.5781,-2.6476,-2.6999,-2.7013,-2.6734,-2.6361,-2.5896,-2.5595,-2.5575,-2.5875,-2.5595,-2.544,-2.544,-2.5119,-2.5291,-2.6033,-2.7797,-2.9047,-2.9813,-3.1886,-3.2745,-3.2865,-3.3714,-3.4136,-3.4175,-3.4711,-3.4933,-3.4933,-3.4933,-3.5195,-3.5574,-3.577,-3.607,-3.6475,0.0,0.0,0.0,0.0,0.0,0.0,0.0,-3.1437,-3.0703,-2.9983,-2.8478,-2.7351,-2.6892,-2.5931,-2.5312,-2.5312,-2.5312,0.0,0.0,0.0,0.0,0.0,0.0,0.0,0.0,-2.6139,-2.6539,-2.5931,-2.6627,-2.7026,-2.6961,-2.6643,-2.6463,-2.6466,-2.6829,-2.6857,0.0,0.0,0.0,0.0,0.0,0.0,-2.4299,0.0,0.0,0.0,0.0,0.0,0.0,0.0,0.0,0.0,0.0,0.0,0.0,0.0,-2.3604,-2.3677,-2.2852,-2.3001,-2.3446,-2.3298,-2.353,-2.3666,-2.2979,-2.3235,-2.3433,-2.2846,-2.3171,-2.3801,-2.4375,-2.4877,-2.5431,-2.5852,-2.5884,-2.5263,-2.3704,-2.3877,-2.4025,-2.4002,-2.5491,-2.6486,-2.6177,-2.6717,-2.6879,-2.6589,-2.6258,-2.5823,-2.5264,-2.5068,-2.5099,-2.5357,-2.5109,-2.4974,-2.4974,-2.4685,-2.4775,-2.5348,-2.713,-2.8269,-2.885,-3.0968,-3.1978,-3.2016,-3.2839,-3.318,0.0,-3.3862,-3.4097,-3.411,-3.4319,-3.4633,-3.4986,-3.5221,-3.5508,-3.5874,0.0,0.0,0.0,0.0,0.0,0.0,0.0,-3.1595,-3.097,-3.097,-2.8939,-2.7484,-2.7484,-2.6195,-2.5312,-2.5312,0.0,0.0,0.0,0.0,0.0,0.0,0.0,0.0,-2.4861,-2.6471,-2.6867,-2.5861,-2.6905,-2.7456,-2.743,-2.7456,-2.7523,-2.7523,-2.7523,-2.7224,0.0,0.0,0.0,0.0,0.0,0.0,0.0,0.0,0.0,0.0,0.0,0.0,0.0,0.0,0.0,0.0,0.0,0.0,0.0,0.0,0.0,0.0,0.0,-2.3604,-2.4116,-2.3751,-2.3897,-2.4116,-2.3655,-2.3649,0.0,-2.3235,-2.3859,-2.4508,-2.4598,-2.567,-2.6373,-2.6063,-2.5863,-2.54,-2.4382,-2.4155,-2.422,-2.43,-2.5006,-2.565,-2.5962,-2.639,-2.6506,-2.6475,-2.5699,-2.5223,-2.5181,-2.4778,-2.454,-2.454,-2.454,-2.454,-2.454,-2.454,-2.454,-2.4615,-2.6577,-2.7476,-2.7649,-3.0007,-3.115,-3.1176,-3.2003,-3.2329,-3.238,-3.3206,-3.3522,-3.3587,-3.4123,-3.4332,-3.441,-3.5012,-3.5234,-3.5312,0.0,0.0,0.0,0.0,0.0,0.0,0.0,0.0,0.0,0.0,-2.8698,-2.7484,-2.7484,-2.6195,-2.5312,0.0,0.0,0.0,0.0,0.0,0.0,0.0,0.0,0.0,-2.5052,-2.5664,-2.5873,-2.5441,-2.6427,-2.6896,-2.693,-2.7311,-2.7523,-2.7523,-2.7523,-2.7214,0.0,0.0,0.0,0.0,0.0,0.0,0.0,0.0,0.0,0.0,-2.42,-2.4116,0.0,0.0,0.0,0.0,0.0,0.0,0.0,0.0,-2.4043,-2.4127,-2.397,0.0,-2.42,-2.4043,-2.4127,-2.4093,0.0,-2.4118,-2.452,-2.4187,-2.4838,-2.5628,-2.592,-2.6329,-2.6622,-2.6809,-2.6268,-2.5652,-2.5231,-2.5188,-2.5155,-2.504,-2.5751,-2.6092,-2.547,-2.5839,-2.5906,-2.5575,-2.5347,-2.5078,-2.4726,-2.4602,-2.454,-2.454,-2.454,-2.454,-2.454,-2.454,-2.4861,-2.5505,-2.6659,-2.7557,-2.8303,-2.9724,-3.0342,-3.0381,-3.1163,-3.1485,-3.1523,-3.2354,-3.2668,-3.2733,-3.348,-3.3688,-3.3589,-3.416,-3.4367,-3.4445,0.0,0.0,0.0,0.0,0.0,0.0,0.0,0.0,0.0,0.0,0.0,0.0,0.0,0.0,0.0,0.0,0.0,0.0,0.0,0.0,0.0,0.0,0.0,-2.5241,-2.5123,-2.5873,-2.6082,-2.5734,-2.6782,-2.7271,-2.7074,-2.7338,-2.7523,-2.7469,-2.6973,-2.6633,0.0,0.0,0.0,0.0,-2.4394,0.0,0.0,0.0,0.0,0.0,-2.42,-2.42,0.0,-2.42,-2.42,-2.42,0.0,0.0,0.0,0.0,-2.42,-2.42,-2.42,-2.42,-2.42,-2.42,-2.42,-2.4177,-2.3952,-2.442,-2.4861,-2.4668,-2.5447,-2.6214,-2.6472,-2.6704,-2.688,-2.7149,-2.6434,-2.5652,-2.5073,-2.4609,-2.4584,-2.5434,-2.5675,-2.5826,-2.5875,-2.5878,-2.5748,-2.5254,-2.5037,-2.4809,-2.4464,-2.454,-2.454,-2.454,-2.454,-2.454,-2.454,-2.454,-2.47,-2.5179,-2.6494,-2.7395,-2.7891,-2.9353,-2.9934,-2.9959,-3.047,-3.0675,-3.0803,-3.1523,-3.19,-3.2031,-3.2707,-3.2846,-3.2885,-3.3101,-3.3217,-3.3351,0.0,0.0,0.0,0.0,0.0,0.0,0.0,0.0,0.0,0.0,0.0,0.0,0.0,0.0,0.0,0.0,0.0,0.0,0.0,0.0,0.0,0.0,0.0,-2.5453,-2.5453,-2.6414,-2.6701,-2.6151,-2.7323,-2.7669,-2.7255,-2.739,-2.7469,-2.7323,-2.6346,-2.5931,0.0,0.0,-2.4539,-2.4933,-2.4394,0.0,0.0,0.0,0.0,0.0,0.0,0.0,0.0,-2.42,-2.42,-2.42,-2.42,0.0,0.0,0.0,0.0,0.0,-2.42,-2.42,-2.42,-2.42,-2.42,-2.42,-2.42,-2.4636,-2.5002,-2.5126,-2.5916,-2.6623,-2.6625,-2.6962,-2.7231,-2.7231,-2.6528,-2.5746,-2.4829,-2.3983,-2.4048,-2.5656,-2.5427,-2.5399,-2.6271,-2.604,-2.5633,-2.5207,-2.4757,-2.454,-2.454,-2.454,-2.454,-2.454,-2.454,-2.454,-2.454,-2.454,-2.454,-2.454,-2.6257,-2.7069,-2.7151,-2.8961,-2.9792,-2.9792,-3.0011,-3.0088,-3.0113,-3.0726,-3.1151,-3.1345,-3.1768,-3.2079,-3.2184,-3.2102,-3.222,-3.2393,0.0,0.0,0.0,0.0,0.0,0.0,0.0,0.0,0.0,0.0,0.0,0.0,0.0,0.0,0.0,0.0,0.0,0.0,0.0,0.0,0.0,-2.5312,-2.5931,-2.6539,-2.7136,-2.6879,-2.6458,-2.5824,-2.6552,-2.6645,-2.6139,-2.704,-2.7255,-2.6782,-2.6151,-2.5931,-2.5861,-2.4683,-2.4539,-2.4933,-2.4394,0.0,0.0,0.0,0.0,0.0,0.0,0.0,0.0,-2.42,-2.42,-2.42,-2.42,0.0,0.0,0.0,0.0,0.0,-2.42,-2.42,-2.42,-2.42,-2.42,-2.42,-2.42,-2.4912,-2.5612,-2.5615,-2.6371,-2.7058,-2.7126,-2.7149,-2.7231,-2.7231,-2.7056,-2.6704,-2.5746,-2.6102,-2.6313,-2.5855,-2.6034,-2.5994,-2.5488,-2.5349,-2.5307,-2.5221,-2.4742,-2.454,-2.454,-2.454,-2.454,-2.454,-2.454,-2.454,-2.454,-2.454,-2.454,-2.454,-2.6257,-2.7069,-2.7151,-2.8961,-2.9792,-2.9792,-2.9869,-2.9869,-2.9869,-3.0176,-3.0279,-3.0407,-3.1033,-3.1342,-3.1472,-3.1893,-3.2233,-3.2419,0.0,0.0,0.0,0.0,0.0,0.0,0.0,0.0,0.0,0.0,0.0,0.0,0.0,0.0,0.0,0.0,0.0,0.0,0.0,0.0,0.0,-2.5861,-2.6208,-2.6552,-2.6879,-2.7204,-2.7191,-2.6718,-2.6892,-2.6769,-2.6358,-2.6564,-2.6483,-2.6289,-2.6,-2.5931,-2.5849,-2.5016,-2.4731,-2.4933,0.0,0.0,0.0,0.0,0.0,0.0,0.0,0.0,0.0,0.0,-2.42,-2.42,-2.42,0.0,0.0,0.0,0.0,0.0,-2.4527,-2.4394,-2.4261,-2.4539,-2.4394,-2.42,-2.42,-2.4981,-2.5716,-2.5716,-2.6519,-2.7231,-2.7231,-2.7231,-2.7231,-2.7231,-2.6787,-2.6268,-2.583,-2.5663,-2.5589,-2.5746,-2.5913,-2.5924,-2.5946,-2.5863,-2.5695,-2.52,-2.5031,-2.4786,-2.454,-2.454,-2.454,-2.454,-2.454,-2.454,-2.454,-2.454,-2.454,-2.454,-2.5757,-2.6648,-2.7151,-2.8462,-2.9378,-2.9792,-2.9792,-2.9792,-2.9792,-2.9856,-3.0011,-3.01,-3.0367,-3.0533,-3.0636,-3.1021,-3.1292,-3.1539,0.0,0.0,0.0,0.0,0.0,0.0,0.0,0.0,0.0,0.0,0.0,0.0,0.0,0.0,0.0,0.0,0.0,0.0,0.0,0.0,-2.5581,-2.6139,-2.6471,-2.6676,-2.6744,-2.7591,-2.7802,-2.7417,-2.743,-2.7242,-2.6863,-2.6358,-2.607,-2.607,-2.607,-2.607,-2.607,-2.5429,-2.5229,-2.5146,0.0,0.0,0.0,0.0,0.0,0.0,0.0,0.0,0.0,0.0,0.0,0.0,0.0,0.0,0.0,-2.4273,-2.42,-2.4334,-2.4874,-2.4599,-2.4334,-2.4874,-2.4599,-2.42,-2.42,-2.4981,-2.5716,-2.5716,-2.6519,-2.7231,-2.7231,-2.7231,-2.7231,-2.7231,-2.661,-2.6091,-2.6091,-2.5411,-2.5158,-2.6008,-2.6008,-2.6091,-2.661,-2.6528,-2.6196,-2.5454,-2.5274,-2.5031,-2.454,-2.454,-2.454,-2.454,-2.454,-2.454,-2.454,-2.454,-2.454,-2.454,-2.5337,-2.6235,-2.7151,-2.8051,-2.8961,-2.9792,-2.9792,-2.9792,-2.9792,-2.9792,-2.9869,-3.0011,-2.9869,-2.9934,-3.0152,-3.0369,-3.0611,-3.0737,0.0,0.0,0.0,0.0,0.0,0.0,0.0,0.0,0.0,0.0,0.0,0.0,0.0,0.0,0.0,0.0,0.0,0.0,0.0,0.0,-2.5312,-2.5382,-2.6663,-2.7537,-2.7855,-2.7986,-2.7736,-2.7229,-2.7802,-2.7802,-2.7456,-2.6918,-2.6645,-2.6645,-2.6645,-2.6645,-2.6577,-2.607,-2.5861,-2.5861,-2.5791,0.0,0.0,0.0,0.0,0.0,0.0,0.0,0.0,0.0,0.0,0.0,0.0,0.0,-2.4874,-2.4334,-2.42,-2.4334,-2.4874,-2.4599,-2.4334,-2.4874,-2.4599,-2.42,-2.42,-2.4981,-2.5716,-2.5716,-2.6519,-2.7231,-2.7231,-2.7231,-2.7231,-2.7231,-2.7138,-2.7056,-2.7056,-2.7056,-2.6974,-2.7056,-2.7056,-2.7056,-2.7138,-2.6787,-2.629,-2.5895,-2.5432,-2.5009,-2.454,-2.454,-2.454,-2.454,-2.454,-2.454,-2.454,-2.454,-2.454,-2.454,-2.5337,-2.6235,-2.7151,-2.8051,-2.8961,-2.9792,-2.9792,-2.9792,-2.9792,-2.9792,-2.9792,-2.9792,-2.9792,-2.9921,-3.0114,-3.0572,-3.0672,-3.0732,0.0,0.0,0.0,0.0,0.0,0.0,0.0,0.0,0.0,0.0,0.0,0.0,0.0,0.0,0.0,0.0,0.0,0.0,0.0,-2.6139,-2.5791,-2.5312,-2.6731,-2.7338,-2.7002,-2.7894,-2.83,-2.8039,-2.7523,-2.6985,-2.6483,-2.6289,-2.6358,-2.6714,-2.6714,-2.6863,-2.7188,-2.6645,-2.6427,-2.6358,-2.6,-2.5791,0.0,0.0,0.0,0.0,0.0,0.0,0.0,0.0,-2.5158,-2.5016,-2.5229,-2.537,-2.5441,-2.4886,-2.4671,-2.4802,-2.5429,-2.5158,-2.4814,-2.5441,-2.5158,-2.4599,-2.4261,-2.4981,-2.5716,-2.5716,-2.6519,-2.7231,-2.7231,-2.7231,-2.7231,-2.7231,-2.7231,-2.7231,-2.7231,-2.7231,-2.7231,-2.7231,-2.7231,-2.7231,-2.7231,-2.7056,-2.6644,-2.5979,-2.5746,-2.5305,-2.454,-2.454,-2.454,-2.454,-2.454,-2.454,-2.454,-2.454,-2.454,-2.454,-2.5337,-2.6235,-2.7151,-2.8051,-2.8961,-2.9792,-2.9792,-2.9792,-2.9792,-2.9792,-2.9792,-2.9792,-2.9792,-2.9894,-3.0151,-3.0253,-3.047,-3.0706,0.0,0.0,0.0,0.0,0.0,0.0,0.0,0.0,0.0,0.0,0.0,0.0,0.0,0.0,0.0,0.0,0.0,0.0,-2.7069,-2.6879,-2.6539,-2.5988,-2.7056,-2.7404,-2.6947,-2.7908,-2.8392,-2.8262,-2.7188,-2.6577,-2.6414,-2.6208,-2.6427,-2.6918,-2.6918,-2.7188,-2.7469,-2.7121,-2.685,-2.6645,-2.6496,-2.6277,0.0,0.0,0.0,0.0,0.0,0.0,0.0,0.0,-2.5721,-2.5581,-2.5791,-2.6,-2.607,-2.5441,-2.5253,-2.5431,-2.6013,-2.5721,-2.5358,-2.5791,-2.5419,-2.4897,-2.4345,-2.4855,-2.5509,-2.5681,-2.6519,-2.7231,-2.7231,-2.7231,-2.7231,-2.7231,-2.7231,-2.7231,-2.7231,-2.7231,-2.7231,-2.7231,-2.7231,-2.7231,-2.7231,-2.7231,-2.6891,-2.6135,-2.5997,-2.5568,-2.4786,-2.4625,-2.454,-2.454,-2.454,-2.454,-2.454,-2.454,-2.454,-2.454,-2.5673,-2.6483,-2.7151,-2.8051,-2.8961,-2.9792,-2.9792,-2.9792,-2.9792,-2.9792,-2.9792,-2.9792,-2.9792,-2.9907,-3.0035,-3.006,-3.0292,-3.0545,0.0,0.0,0.0,0.0,0.0,0.0,0.0,0.0,0.0,0.0,0.0,0.0,0.0,0.0,0.0,0.0,0.0,0.0,-2.8492,-2.7855,-2.7484,-2.7484,-2.7802,-2.7986,-2.7986,-2.8052,-2.7881,-2.7523,-2.6998,-2.6985,-2.7456,-2.6998,-2.6985,-2.7523,-2.7523,-2.7523,-2.7523,-2.7523,-2.7188,-2.6782,-2.7268,-2.7188,-2.6714,0.0,0.0,0.0,0.0,0.0,0.0,0.0,-2.6289,-2.6577,-2.607,-2.6289,-2.6577,-2.6082,-2.5902,-2.6,-2.6559,-2.6289,-2.5931,-2.5931,-2.5468,-2.4868,-2.4307,-2.4568,-2.5061,-2.5612,-2.6519,-2.7219,-2.7231,-2.7231,-2.7231,-2.7231,-2.7231,-2.7231,-2.7231,-2.7231,-2.7231,-2.7231,-2.7231,-2.7231,-2.7231,-2.7231,-2.6974,-2.6528,-2.6135,-2.5717,-2.52,-2.4786,-2.454,-2.454,-2.454,-2.454,-2.454,-2.454,-2.454,-2.454,-2.6246,-2.7069,-2.7151,-2.8051,-2.8961,-2.9792,-2.9792,-2.9792,-2.9792,-2.9792,-2.9792,-2.9792,-2.9792,-2.9792,-2.9804,-3.0035,-3.0072,-3.0112,0.0,0.0,0.0,0.0,0.0,0.0,0.0,0.0,0.0,0.0,0.0,0.0,0.0,0.0,0.0,0.0,0.0,0.0,-2.8492,-2.8298,-2.7855,-2.7162,-2.8222,-2.8287,-2.7284,-2.7523,-2.7603,-2.7523,-2.7323,-2.7323,-2.7523,-2.7323,-2.7323,-2.7523,-2.7523,-2.7523,-2.7523,-2.7523,-2.739,-2.7268,-2.7469,-2.739,-2.7255,0.0,0.0,0.0,0.0,0.0,0.0,0.0,0.0,0.0,-2.6973,-2.7108,-2.7188,-2.6645,-2.6465,-2.6502,-2.6658,-2.6615,-2.649,-2.644,-2.6079,-2.5445,-2.4921,-2.4838,-2.5164,-2.606,-2.6485,-2.6795,-2.7162,-2.7231,-2.7231,-2.7231,-2.7231,-2.7231,-2.7231,-2.7231,-2.7231,-2.7231,-2.7231,-2.7231,-2.7231,-2.7231,-2.6974,-2.6528,-2.6367,-2.6014,-2.5253,-2.504,-2.4805,-2.454,-2.454,-2.454,-2.454,-2.454,-2.454,-2.454,-2.5673,-2.6483,-2.7151,-2.8712,-2.9546,-2.9792,-2.9792,-2.9792,-2.9792,-2.9792,-2.9792,-2.9792,-2.9792,-2.9792,-2.9792,-2.9894,-2.9945,-3.0137,0.0,0.0,0.0,0.0,0.0,0.0,0.0,0.0,0.0,0.0,0.0,0.0,0.0,0.0,0.0,0.0,0.0,0.0,0.0,-2.8789,-2.8468,-2.7829,-2.8379,-2.8249,-2.7242,-2.739,-2.7523,-2.7523,-2.7523,-2.7523,-2.7523,-2.7523,-2.7523,-2.7523,-2.7523,-2.7523,-2.7523,-2.7523,-2.7523,-2.7523,-2.7523,-2.7523,-2.7523,0.0,0.0,0.0,0.0,0.0,0.0,0.0,0.0,0.0,-2.739,-2.7523,-2.7469,-2.7121,-2.6985,-2.6985,-2.6985,-2.7024,-2.6969,-2.6726,-2.644,-2.6013,-2.5229,-2.4985,-2.5084,-2.5716,-2.6014,-2.6267,-2.6565,-2.6622,-2.6622,-2.6622,-2.6622,-2.6622,-2.6622,-2.6622,-2.6622,-2.6622,-2.6806,-2.6921,-2.6921,-2.7116,-2.7056,-2.6798,-2.658,-2.6206,-2.5546,-2.5317,-2.4882,-2.4263,-2.4251,-2.4291,-2.4221,-2.4291,-2.4312,-2.454,-2.5757,-2.6565,-2.7151,-2.8633,-2.9456,-2.9792,-2.9792,-2.9792,-2.9792,-2.9792,-2.9792,-2.9792,-2.9792,-2.9792,-2.9792,-2.9792,-2.9919,-3.0072,0.0,0.0,0.0,0.0,0.0,0.0,0.0,0.0,0.0,0.0,0.0,0.0,0.0,0.0,0.0,0.0,0.0,0.0,0.0,0.0,-2.9099,-2.9035,-2.8392,-2.7868,-2.7523,-2.7523,-2.7523,-2.7523,-2.7523,-2.7523,-2.7523,-2.7523,-2.7523,-2.7523,-2.7523,-2.7523,-2.7523,-2.7523,-2.7523,-2.7523,-2.7523,-2.7523,-2.7523,-2.7523,0.0,0.0,0.0,0.0,0.0,0.0,0.0,0.0,-2.7523,-2.7523,-2.7523,-2.7523,-2.7523,-2.7523,-2.7523,-2.7523,-2.739,-2.6918,-2.6764,-2.6447,-2.5322,-2.5022,-2.4929,-2.49,-2.5302,-2.5658,-2.5704,-2.5716,-2.5716,-2.5716,-2.5716,-2.5716,-2.5716,-2.5716,-2.5716,-2.5716,-2.6117,-2.6393,-2.6393,-2.6818,-2.7093,-2.7093,-2.6653,-2.6188,-2.5821,-2.5326,-2.4703,-2.3858,-2.3874,-2.3857,-2.3835,-2.3857,-2.3992,-2.4416,-2.6041,-2.6932,-2.7013,-2.8084,-2.904,-2.9792,-2.9792,-2.9792,-2.9792,-2.9792,-2.9792,-2.9792,-2.9792,-2.9792,-2.9792,-2.9792,-2.9919,-3.006,0.0,0.0,0.0,0.0,0.0,0.0,0.0,0.0,0.0,0.0,0.0,0.0,0.0,0.0,0.0,0.0,0.0,0.0,0.0,0.0,-2.8844,-2.8341,-2.7868,-2.7603,-2.7523,-2.7523,-2.7523,-2.7523,-2.7523,-2.7523,-2.7523,-2.7523,-2.7523,-2.7523,-2.7523,-2.7523,-2.7523,-2.7523,-2.7523,-2.7523,-2.7523,-2.7523,-2.7523,-2.7523,-2.7523,0.0,0.0,0.0,0.0,0.0,0.0,0.0,-2.7523,-2.7523,-2.7523,-2.7523,-2.7523,-2.7523,-2.7523,-2.7523,-2.7456,-2.7335,-2.7015,-2.6514,-2.5849,-2.5313,-2.4929,-2.4906,-2.5004,-2.521,-2.5635,-2.5716,-2.5716,-2.5716,-2.5716,-2.5716,-2.5716,-2.5716,-2.5716,-2.5716,-2.5807,-2.5876,-2.5876,-2.5968,-2.6037,-2.6037,-2.5927,-2.5576,-2.4766,-2.4636,-2.419,-2.3387,-2.3356,-2.3339,-2.3361,-2.335,-2.336,-2.3474,-2.4475,-2.5239,-2.598,-2.8414,-2.9624,-2.9792,-2.9792,-2.9792,-2.9792,-2.9792,-2.9792,-2.9792,-2.9792,-2.9792,-2.9792,-2.9792,-2.9804,-2.9894,0.0,0.0,0.0,0.0,0.0,0.0,0.0,0.0,0.0,0.0,0.0,0.0,0.0,0.0,0.0,0.0,0.0,0.0,0.0,0.0,-2.8392,-2.7815,-2.7603,-2.7523,-2.7523,-2.7523,-2.7523,-2.7523,-2.7523,-2.7523,-2.7523,-2.7523,-2.7523,-2.7523,-2.7523,-2.7523,-2.7523,-2.7523,-2.7523,-2.7523,-2.7523,-2.7523,-2.7523,-2.7523,-2.7523,-2.7523,-2.7523,0.0,0.0,0.0,0.0,0.0,0.0,0.0,-2.7523,-2.7523,-2.7523,-2.7523,-2.7523,-2.7523,-2.7523,-2.7523,-2.7121,-2.6645,-2.6358,-2.5652,-2.5016,-2.4926,-2.4777,-2.4659,-2.4935,-2.4981,-2.4981,-2.4981,-2.4981,-2.4981,-2.4981,-2.4981,-2.4981,-2.4981,-2.5187,-2.5325,-2.5325,-2.5566,-2.5716,-2.5716,-2.5727,-2.5426,-2.4737,-2.447,-2.4061,-2.315,-2.2945,-2.2853,-2.2853,-2.2853,-2.2967,-2.3184,-2.4014,-2.5004,-2.6247,-2.8161,-2.8988,-2.8988,-2.8988,-2.9126,-2.9377,-2.9377,-2.9541,-2.9792,-2.9792,-2.9792,-2.9792,-2.9792,-2.9894,-2.9932,0.0,0.0,0.0,0.0,0.0,0.0,0.0,0.0,0.0,0.0,0.0,0.0,0.0,0.0,0.0,0.0,0.0,0.0,0.0,0.0,0.0,-2.7523,-2.7523,-2.7523,-2.7523,-2.7523,-2.7523,-2.7523,-2.7523,-2.7523,-2.7523,-2.7523,-2.7523,-2.7523,-2.7523,-2.7523,-2.7523,-2.7523,-2.7523,-2.7523,-2.7523,-2.7523,-2.7523,-2.7523,-2.7523,-2.7523,-2.7523,-2.7523,-2.7523,-2.7523,0.0,0.0,0.0,0.0,-2.7523,-2.7523,-2.7523,-2.7523,-2.7523,-2.7523,-2.7523,-2.7523,-2.7188,-2.685,-2.685,-2.607,-2.53,-2.53,-2.4671,-2.42,-2.42,-2.42,-2.42,-2.42,-2.42,-2.42,-2.42,-2.42,-2.42,-2.42,-2.4545,-2.4786,-2.4786,-2.5187,-2.5451,-2.5451,-2.5431,-2.5269,-2.4755,-2.4457,-2.3897,-2.3015,-2.2685,-2.2455,-2.2377,-2.2377,-2.2573,-2.2946,-2.3924,-2.5207,-2.6649,-2.7432,-2.7921,-2.8109,-2.8109,-2.836,-2.8787,-2.8787,-2.9126,-2.9641,-2.9641,-2.9704,-2.9792,-2.9792,-2.9919,-3.0047,0.0,0.0,0.0,0.0,0.0,0.0,0.0,0.0,0.0,0.0,-2.9602,0.0,0.0,0.0,0.0,0.0,0.0,0.0,-2.821,0.0,0.0,-2.7523,-2.7523,-2.7523,-2.7523,-2.7523,-2.7523,-2.7523,-2.7523,-2.7523,-2.7523,-2.7523,-2.7523,-2.7523,-2.7523,-2.7523,-2.7523,-2.7523,-2.7523,-2.7523,-2.7523,-2.7523,-2.7523,-2.7523,-2.7523,-2.7523,-2.7523,-2.7523,-2.7523,-2.7523,-2.7523,0.0,0.0,0.0,-2.7523,-2.7523,-2.7523,-2.7523,-2.7523,-2.7523,-2.7523,-2.7523,-2.7469,-2.739,-2.739,-2.6918,-2.6496,-2.6496,-2.5241,-2.42,-2.42,-2.42,-2.42,-2.42,-2.42,-2.42,-2.42,-2.42,-2.42,-2.42,-2.4258,-2.4292,-2.4292,-2.4361,-2.4395,-2.4395,-2.4372,-2.4192,-2.3801,-2.375,-2.3345,-2.251,-2.2477,-2.2271,-2.1901,-2.1901,-2.1932,-2.1983,-2.3442,-2.4618,-2.5516,-2.6317,-2.7205,-2.8109,-2.8109,-2.8147,-2.821,-2.821,-2.8549,-2.9038,-2.9038,-2.9352,-2.9792,-2.9792,-2.9804,-2.9804,0.0,0.0,0.0,0.0,0.0,0.0,0.0,0.0,0.0,0.0,0.0,-2.954,0.0,0.0,0.0,-2.8587,-2.8406,-2.8131,-2.7802,-2.7603,-2.7523,-2.7523,-2.7523,-2.7523,-2.7523,-2.7523,-2.7523,-2.7523,-2.7523,-2.7523,-2.7523,-2.7523,-2.7523,-2.7523,-2.7523,-2.7523,-2.7523,-2.7523,-2.7523,-2.7523,-2.7523,-2.7523,-2.7523,-2.7523,-2.7523,-2.7523,-2.7523,-2.7523,-2.7523,-2.7523,-2.7523,-2.7523,-2.7523,0.0,0.0,0.0,-2.7523,-2.7523,-2.7523,-2.7523,-2.7523,-2.7523,-2.7523,-2.7523,-2.7523,-2.7053,-2.6714,-2.6714,-2.5873,-2.5028,-2.4743,-2.4394,-2.42,-2.42,-2.42,-2.42,-2.42,-2.42,-2.42,-2.42,-2.42,-2.42,-2.42,-2.42,-2.42,-2.42,-2.42,-2.4116,-2.397,-2.3751,-2.3298,-2.2777,-2.2553,-2.2176,-2.1807,-2.1807,-2.1807,-2.1807,-2.2979,-2.3925,-2.4636,-2.5441,-2.6355,-2.718,-2.718,-2.7356,-2.7645,-2.7645,-2.7971,-2.8461,-2.8461,-2.8812,-2.9315,-2.9315,-2.9515,-2.9792,0.0,0.0,0.0,0.0,0.0,0.0,0.0,0.0,0.0,0.0,0.0,0.0,0.0,0.0,0.0,0.0,-2.8292,-2.796,-2.7536,-2.7523,-2.7523,-2.7523,-2.7523,-2.7523,-2.7523,-2.7523,-2.7523,-2.7523,-2.7523,-2.7523,-2.7523,-2.7523,-2.7523,-2.7523,-2.7523,-2.7523,-2.7523,-2.7523,-2.7523,-2.7523,-2.7523,-2.7523,-2.7523,-2.7523,-2.7523,-2.7523,-2.7523,-2.7523,-2.7523,-2.7523,-2.7523,-2.7523,-2.7523,-2.7523,0.0,0.0,0.0,-2.7523,-2.7523,-2.7523,-2.7523,-2.7523,-2.7523,-2.7523,-2.7523,-2.7188,-2.6918,-2.6918,-2.6496,-2.6,-2.5511,-2.5028,-2.4611,-2.4394,-2.4394,-2.4334,-2.4189,-2.42,-2.42,-2.42,-2.42,-2.42,-2.42,-2.42,-2.42,-2.42,-2.42,-2.42,-2.42,-2.3897,-2.3593,-2.315,-2.2777,-2.2327,-2.1959,-2.1883,-2.1807,-2.1807,-2.2841,-2.3559,-2.412,-2.5146,-2.5955,-2.6533,-2.6533,-2.676,-2.708,-2.708,-2.7394,-2.7896,-2.7896,-2.8235,-2.8725,-2.8725,-2.8988,-2.939,0.0,0.0,0.0,0.0,0.0,0.0,0.0,0.0,0.0,0.0,0.0,0.0,-3.0474,-3.04,-3.0106,-2.9482,-2.8811,-2.8098,-2.7562,-2.7523,-2.7523,-2.7523,-2.7523,0.0,-2.7523,-2.7523,-2.7523,-2.7523,-2.7523,-2.7523,-2.7523,-2.7523,-2.7523,-2.7523,-2.7523,-2.7523,-2.7523,-2.7523,-2.7523,-2.7523,-2.7523,-2.7523,-2.7523,-2.7523,-2.7523,-2.7523,-2.7523,-2.7523,-2.7523,-2.7523,-2.7523,-2.7523,-2.7523,-2.7523,-2.7523,0.0,0.0,0.0,-2.7523,-2.7523,-2.7523,-2.7523,-2.7523,-2.7523,-2.7523,-2.7469,-2.7469,-2.7469,-2.7053,-2.6645,-2.6645,-2.6151,-2.5652,-2.5075,-2.4945,-2.4802,-2.4261,-2.42,-2.42,-2.42,-2.42,-2.42,-2.42,-2.42,-2.42,-2.42,-2.42,-2.42,-2.42,-2.4189,-2.397,-2.3593,-2.315,-2.2777,-2.2402,-2.1949,-2.1807,-2.1807,-2.3327,-2.4047,-2.4181,-2.5721,-2.6452,-2.6533,-2.6533,-2.6546,-2.6571,-2.6571,-2.6829,-2.7318,-2.7318,-2.7657,-2.8147,-2.8147,-2.816,-2.826,0.0,0.0,0.0,0.0,0.0,0.0,0.0,0.0,0.0,0.0,0.0,0.0,0.0,-3.0703,-3.0323,-2.9268,-2.8317,-2.7745,-2.7536,-2.7523,-2.7523,-2.7523,-2.7523,-2.7523,-2.7523,-2.7523,-2.7523,-2.7523,-2.7523,-2.7523,-2.7523,-2.7523,-2.7523,-2.7523,-2.7523,-2.7523,-2.7523,-2.7523,-2.7523,-2.7523,-2.7523,-2.7523,-2.7523,-2.7523,-2.7523,-2.7523,-2.7523,-2.7523,-2.7523,-2.7523,-2.7523,-2.7523,-2.7523,-2.7523,-2.7523,-2.7523,-2.7523,-2.7523,-2.7523,-2.7523,-2.7523,-2.7523,-2.7523,-2.7523,-2.7523,-2.7523,-2.7523,-2.7523,-2.7323,-2.7188,-2.7188,-2.6496,-2.5709,-2.5075,-2.5004,-2.4802,-2.4261,-2.42,-2.42,-2.42,-2.42,-2.42,-2.42,-2.42,-2.42,-2.42,-2.42,-2.42,-2.42,-2.42,-2.4043,-2.3593,-2.3224,-2.2703,-2.2025,-2.1883,-2.1807,-2.1807,-2.2392,-2.3106,-2.412,-2.4696,-2.5499,-2.6533,-2.6533,-2.6533,-2.6533,-2.6533,-2.6647,-2.6753,-2.6753,-2.7092,-2.7582,-2.7582,-2.7795,-2.8134,0.0,0.0,0.0,0.0,0.0,0.0,0.0,0.0,0.0,-3.2553,0.0,0.0,0.0,0.0,-3.0705,-2.9249,-2.8116,-2.7523,-2.7523,-2.7523,-2.7523,-2.7523,-2.7523,-2.7523,-2.7523,-2.7523,-2.7523,-2.7523,-2.7523,-2.7523,-2.7523,-2.7523,-2.7523,-2.7523,-2.7523,-2.7523,-2.7523,-2.7523,-2.7523,-2.7523,-2.7523,-2.7523,-2.7523,-2.7523,-2.7523,-2.7523,-2.7523,-2.7523,-2.7523,-2.7523,-2.7523,-2.7523,-2.7523,-2.7523,-2.7523,-2.7523,-2.7523,-2.7523,-2.7523,-2.7523,-2.7523,-2.7523,-2.7523,-2.7523,-2.7523,-2.7523,-2.7523,-2.7523,-2.7523,-2.7523,-2.7523,-2.6905,-2.6277,-2.5652,-2.5441,-2.5087,-2.4539,-2.4334,-2.42,-2.42,-2.42,-2.42,-2.42,-2.42,-2.42,-2.42,-2.42,-2.42,-2.42,-2.42,-2.397,-2.3446,-2.315,-2.2628,-2.1807,-2.1807,-2.1807,-2.1807,-2.2101,-2.2756,-2.3768,-2.4276,-2.5075,-2.6094,-2.6383,-2.6533,-2.6533,-2.6533,-2.6533,-2.6533,-2.6533,-2.6747,-2.7005,-2.7005,-2.7243,-2.7582,0.0,0.0,0.0,0.0,0.0,0.0,0.0,0.0,-3.4195,-3.3206,0.0,0.0,0.0,0.0,0.0,-2.9437,-2.8203,-2.7523,-2.7523,-2.7523,-2.7523,-2.7523,-2.7523,-2.7523,-2.7523,-2.7523,-2.7523,-2.7523,-2.7523,-2.7523,-2.7523,-2.7523,-2.7523,-2.7523,-2.7523,-2.7523,-2.7523,-2.7523,-2.7523,-2.7523,-2.7523,-2.7523,-2.7523,-2.7523,-2.7523,-2.7523,-2.7523,-2.7523,-2.7523,-2.7523,-2.7523,-2.7523,-2.7523,-2.7523,-2.7523,-2.7523,-2.7523,-2.7523,0.0,0.0,0.0,-2.7523,-2.7523,-2.7523,-2.7523,-2.7523,-2.7523,-2.7523,-2.7523,-2.7523,-2.7523,-2.7523,-2.7323,-2.6794,-2.6289,-2.5721,-2.5075,-2.4527,-2.4189,-2.42,-2.42,-2.42,-2.42,-2.42,-2.42,-2.42,-2.42,-2.42,-2.42,-2.42,-2.3824,-2.3075,-2.3001,-2.2628,-2.1807,-2.1807,-2.1807,-2.1807,-2.2628,-2.3001,-2.3075,-2.4587,-2.53,-2.5312,-2.6164,-2.6533,-2.6533,-2.6533,-2.6533,-2.6533,-2.6533,-2.6533,-2.6533,-2.6533,-2.6533,-2.6596,0.0,0.0,0.0,0.0,0.0,-3.3583,-3.4091,-3.4439,-3.4727,0.0,0.0,0.0,-3.3636,-3.1958,-3.0564,-2.9754,-2.8326,-2.7523,-2.7523,-2.7523,-2.7523,-2.7523,-2.7523,-2.7523,-2.7523,-2.7523,-2.7523,-2.7523,-2.7523,-2.7523,-2.7523,-2.7523,-2.7523,-2.7523,-2.7523,-2.7523,-2.7523,-2.7523,-2.7523,-2.7523,-2.7523,-2.7523,-2.7523,-2.7523,-2.7523,-2.7523,-2.7523,-2.7523,-2.7523,-2.7523,-2.7523,-2.7523,-2.7523,-2.7523,-2.7523,-2.7523,-2.7523,-2.7523,-2.7523,0.0,0.0,0.0,0.0,0.0,-2.7523,-2.7523,-2.7523,-2.7523,-2.7523,-2.7523,-2.7523,-2.7523,-2.7456,-2.7323,-2.685,-2.6151,-2.5146,-2.4874,-2.4599,-2.4261,-2.42,-2.42,-2.42,-2.42,-2.42,-2.42,-2.42,-2.42,-2.42,-2.42,-2.397,-2.3446,-2.3446,-2.3075,-2.2252,-2.2252,-2.2111,-2.1807,-2.2035,-2.2402,-2.3001,-2.3986,-2.4719,-2.5312,-2.6164,-2.6533,-2.6533,-2.6533,-2.6533,-2.6533,-2.6533,-2.6533,-2.6533,-2.6533,-2.6533,-2.6546,0.0,0.0,0.0,0.0,0.0,-3.3644,-3.4368,-3.4789,-3.5199,0.0,0.0,0.0,-3.3575,-3.1652,-3.0119,-2.9507,-2.8249,-2.7523,-2.7523,-2.7523,-2.7523,-2.7523,-2.7523,-2.7523,-2.7523,-2.7523,-2.7523,-2.7523,-2.7523,-2.7523,-2.7523,-2.7523,-2.7523,-2.7523,-2.7523,-2.7523,-2.7523,-2.7523,-2.7523,-2.7523,-2.7523,-2.7523,-2.7523,-2.7523,-2.7523,-2.7523,-2.7523,-2.7523,-2.7523,-2.7523,-2.7523,-2.7523,-2.7523,-2.7523,-2.7523,-2.7523,-2.7523,-2.7523,-2.7523,-2.7523,-2.7523,-2.7523,0.0,0.0,-2.7523,-2.7523,-2.7523,-2.7523,-2.7523,-2.7523,-2.7523,-2.7523,-2.7523,-2.7523,-2.7255,-2.6701,-2.5861,-2.5511,-2.5158,-2.4599,-2.4539,-2.4467,-2.4189,-2.42,-2.42,-2.42,-2.42,-2.42,-2.42,-2.42,-2.4043,-2.3593,-2.3593,-2.3298,-2.2628,-2.2478,-2.2252,-2.2025,-2.1883,-2.2035,-2.2553,-2.3265,-2.4059,-2.4862,-2.5664,-2.6164,-2.6533,-2.6533,-2.6533,-2.6533,-2.6533,-2.6533,-2.6533,-2.6533,-2.6533,-2.6533,0.0,0.0,-3.2398,-3.2398,-3.2952,-3.3614,-3.426,-3.4937,-3.5447,0.0,-3.5525,-3.4708,-3.2677,-3.1265,-3.0025,-2.8958,-2.8119,-2.759,-2.7523,-2.7523,-2.7523,-2.7523,-2.7523,-2.7523,-2.7523,-2.7523,-2.7523,-2.7523,-2.7523,-2.7523,-2.7523,-2.7523,-2.7523,-2.7523,-2.7523,-2.7523,-2.7523,-2.7523,-2.7523,-2.7523,-2.7523,-2.7523,-2.7523,-2.7523,-2.7523,-2.7523,-2.7523,-2.7523,-2.7523,-2.7523,-2.7523,-2.7523,-2.7523,-2.7523,-2.7523,-2.7523,-2.7523,-2.7523,-2.7523,-2.7523,-2.7523,-2.7523,-2.7523,0.0,-2.7523,-2.7523,-2.7523,-2.7523,-2.7523,-2.7523,-2.7523,-2.7523,-2.7523,-2.7523,-2.7523,-2.7323,-2.6782,-2.6289,-2.5791,-2.5146,-2.5075,-2.4874,-2.4334,-2.4261,-2.4261,-2.42,-2.42,-2.42,-2.42,-2.42,-2.4043,-2.3677,-2.3677,-2.3446,-2.3075,-2.2703,-2.2478,-2.2402,-2.2025,-2.1807,-2.1807,-2.2628,-2.3423,-2.4108,-2.4933,-2.5746,-2.6533,-2.6533,-2.6533,-2.6533,-2.6533,-2.6533,-2.6533,-2.6533,-2.6533,-2.6533,0.0,-3.2398,-3.2398,-3.2398,-3.2952,-3.346,-3.3583,-3.4214,-3.4722,-3.4726,-3.4349,-3.3395,-3.1569,-3.1203,-3.0392,-2.8647,-2.8372,-2.8105,-2.7523,-2.7523,-2.7523,-2.7523,-2.7523,-2.7523,-2.7523,-2.7523,-2.7523,-2.7523,-2.7523,-2.7523,-2.7523,-2.7523,-2.7523,-2.7523,-2.7523,-2.7523,-2.7523,-2.7523,-2.7523,-2.7523,-2.7523,-2.7523,-2.7523,-2.7523,-2.7523,-2.7523,-2.7523,-2.7523,-2.7523,-2.7523,-2.7523,-2.7523,-2.7523,-2.7523,-2.7523,-2.7523,-2.7523,-2.7523,-2.7523,-2.7523,-2.7523,-2.7523,-2.7523,0.0,-2.7523,-2.7523,-2.7523,-2.7523,-2.7523,-2.7523,-2.7523,-2.7523,-2.7523,-2.7523,-2.7523,-2.7323,-2.6782,-2.6577,-2.6358,-2.5791,-2.5721,-2.5499,-2.4874,-2.4874,-2.4671,-2.4261,-2.42,-2.42,-2.42,-2.42,-2.4189,-2.4127,-2.4043,-2.3897,-2.353,-2.3372,-2.3075,-2.2402,-2.2327,-2.2101,-2.1807,-2.2628,-2.3423,-2.4108,-2.4933,-2.5746,-2.6533,-2.6533,-2.6533,-2.6533,-2.6533,-2.6533,-2.6533,-2.6533,-2.6533,-2.6521,-3.2398,-3.2398,-3.2398,-3.2398,-3.2675,-3.3013,-3.3352,-3.3706,-3.4183,-3.4891,-3.482,-3.423,-3.3048,-3.26,-3.1833,-3.0491,-3.0252,-2.9941,-2.9481,-2.9195,-2.8835,-2.8532,-2.8186,-2.7842,-2.7523,-2.7523,-2.7523,-2.7523,-2.7523,-2.7523,-2.7523,-2.7523,-2.7681,-2.8013,-2.7668,-2.7681,-2.8013,-2.7655,-2.7523,-2.7523,-2.7523,-2.7617,-2.7815,-2.7802,-2.7868,-2.8065,-2.7855,-2.7669,-2.7523,-2.7523,-2.7523,-2.7523,-2.7523,-2.7523,-2.7523,-2.7523,-2.7523,-2.7523,-2.7523,-2.7523,-2.7523,-2.7523,-2.7523,0.0,0.0,-2.7736,-2.759,-2.7908,-2.7723,-2.7523,-2.7523,-2.7523,-2.7523,-2.7523,-2.7523,-2.739,-2.7121,-2.7121,-2.6918,-2.6358,-2.6289,-2.6082,-2.5499,-2.5146,-2.4802,-2.4261,-2.42,-2.42,-2.42,-2.42,-2.42,-2.42,-2.42,-2.4116,-2.3897,-2.3666,-2.3298,-2.2703,-2.2478,-2.2176,-2.1807,-2.2252,-2.3043,-2.412,-2.4564,-2.537,-2.6533,-2.6533,-2.6533,-2.6533,-2.6533,-2.6533,-2.6533,-2.6533,-2.6533,-2.6533,-3.2398,-3.2398,-3.2398,-3.2398,-3.2398,-3.2628,-3.3306,-3.3398,-3.386,-3.5122,-3.5369,-3.5226,-3.4557,-3.3966,-3.3235,-3.2356,-3.2105,-3.1846,-3.1453,-3.0895,-3.0211,-2.9604,-2.8903,-2.8199,-2.7693,-2.7708,-2.7681,-2.7681,-2.7801,-2.7907,-2.7894,-2.7774,-2.8013,-2.8505,-2.7961,-2.7961,-2.8279,-2.7894,-2.7709,-2.7656,-2.759,-2.7776,-2.8074,-2.8224,-2.8473,-2.8719,-2.8475,-2.8027,-2.7603,-2.7603,-2.7536,-2.7523,-2.7523,-2.7523,-2.7523,-2.7523,-2.7523,-2.7523,-2.7523,-2.7523,-2.7523,-2.7523,-2.7523,-2.763,0.0,0.0,0.0,-2.8338,-2.7973,-2.7523,-2.7656,-2.759,-2.7484,-2.7512,-2.7524,-2.7484,-2.7512,-2.7524,-2.7323,-2.6918,-2.685,-2.6645,-2.6139,-2.5429,-2.4802,-2.4406,-2.4261,-2.42,-2.42,-2.42,-2.42,-2.42,-2.42,-2.42,-2.42,-2.3897,-2.3519,-2.3075,-2.2703,-2.2327,-2.1873,-2.1807,-2.267,-2.4108,-2.4108,-2.4992,-2.6533,-2.6533,-2.6533,-2.6533,-2.6533,-2.6533,-2.6533,-2.6533,-2.6533,-2.6533,-3.2398,-3.2398,-3.2398,-3.2398,-3.2398,-3.2628,-3.3306,-3.3398,-3.369,-3.4491,-3.4645,-3.4332,-3.3453,-3.3849,-3.3561,-3.2176,-3.2509,-3.2396,-3.1321,-3.0823,-3.031,-2.9803,-2.8913,-2.835,-2.8281,-2.8384,-2.8399,-2.8399,-2.9013,-2.9281,-2.9281,-2.8665,-2.8425,-2.8492,-2.8597,-2.8244,-2.7642,-2.8379,-2.839,-2.8065,-2.8052,-2.8039,-2.8157,-2.8679,-2.9107,-2.936,-2.9374,-2.8784,-2.8013,-2.8013,-2.7802,-2.7523,-2.7523,-2.7523,-2.7523,-2.7523,-2.7523,-2.7523,-2.7523,-2.7523,-2.7523,-2.7523,-2.7523,-2.7523,-2.7577,0.0,-2.7675,-2.8336,0.0,-2.7656,-2.8287,0.0,0.0,-2.7601,-2.7511,-2.7538,-2.7588,-2.7524,-2.7469,-2.739,-2.739,-2.7188,-2.6645,-2.5652,-2.4933,-2.4945,-2.4467,-2.42,-2.42,-2.42,-2.42,-2.42,-2.42,-2.42,-2.42,-2.4116,-2.3897,-2.353,-2.315,-2.2703,-2.2327,-2.1949,-2.267,-2.4108,-2.4108,-2.4992,-2.6533,-2.6533,-2.6533,-2.6533,-2.6533,-2.6533,-2.6533,-2.6533,-2.6533,-2.6533,-3.2552,-3.2398,-3.2521,-3.2906,-3.2982,-3.3213,-3.3921,-3.4352,-3.4722,-3.5014,-3.5399,-3.5508,-3.514,-3.537,-3.5232,-3.4483,-3.4688,-3.464,-3.3986,-3.3489,-3.2869,-3.2264,-3.1471,-3.0886,-3.0477,-3.0414,-3.0232,-2.9923,-3.0029,-2.9974,-2.9633,-2.9251,-2.9324,-2.9827,-2.951,-2.9473,-2.9498,-2.9233,-2.9187,-2.9296,-2.9023,-2.9226,-2.9697,-2.9642,-2.9668,-2.98,-2.98,-2.9168,-2.8406,-2.8406,-2.8131,-2.7868,-2.7868,-2.7669,-2.7523,-2.7523,-2.7523,-2.7523,-2.7523,-2.7523,-2.7523,-2.7523,-2.7523,-2.767,-2.847,-2.8339,-2.8366,-2.9428,0.0,0.0,0.0,0.0,0.0,0.0,-2.8661,-2.8552,-2.8143,-2.8434,-2.839,-2.759,-2.7523,-2.7255,-2.6782,-2.6289,-2.5861,-2.5581,-2.5016,-2.4671,-2.4671,-2.4406,-2.42,-2.42,-2.42,-2.42,-2.42,-2.42,-2.397,-2.3593,-2.3224,-2.2777,-2.2402,-2.1959,-2.267,-2.4108,-2.4108,-2.4992,-2.6533,-2.6533,-2.6533,-2.6533,-2.6533,-2.6533,-2.6533,-2.6533,-2.6533,-2.6533,-3.3167,-3.2967,-3.3121,-3.3614,-3.369,-3.3937,-3.4645,-3.5322,-3.5753,-3.5753,-3.6184,-3.6569,-3.6738,-3.6769,-3.6706,-3.6549,-3.6549,-3.6346,-3.5973,-3.5377,-3.476,-3.4139,-3.3392,-3.2771,-3.2227,-3.216,-3.1917,-3.1579,-3.1294,-3.1034,-3.0654,-3.0131,-3.0236,-3.0829,-3.0242,-3.0245,-3.0702,-2.9978,-3.0003,-3.0538,-3.0214,-3.0671,-3.1439,-3.0874,-3.0543,-3.0391,-3.0391,-2.9697,-2.8716,-2.8716,-2.8522,-2.821,-2.821,-2.8,-2.7669,-2.7669,-2.7723,-2.7723,-2.7523,-2.7655,-2.7761,-2.7802,-2.7762,-2.8061,-2.9204,-2.9004,-2.8862,-3.0208,-2.9407,0.0,0.0,0.0,-2.8911,-2.9417,0.0,-2.9324,-2.8809,-2.9157,-2.9016,-2.7643,-2.7523,-2.7323,-2.6998,-2.6782,-2.6508,-2.6139,-2.5581,-2.5229,-2.5229,-2.4743,-2.4394,-2.4394,-2.4261,-2.42,-2.42,-2.42,-2.4043,-2.3751,-2.3372,-2.2927,-2.2553,-2.2176,-2.2745,-2.4108,-2.4108,-2.4992,-2.6533,-2.6533,-2.6533,-2.6533,-2.6533,-2.6521,-2.6521,-2.6577,-2.6521,-2.664,-3.4414,-3.4398,-3.4414,-3.4429,-3.4429,-3.4675,-3.5353,-3.603,-3.6461,-3.6461,-3.6476,-3.6738,-3.74,-3.7461,-3.7477,-3.7461,-3.7461,-3.6978,-3.5797,-3.5305,-3.4883,-3.4336,-3.3393,-3.2915,-3.2849,-3.2905,-3.2927,-3.2918,-3.2942,-3.2903,-3.2872,-3.1535,-3.0979,-3.0969,-3.0658,-3.0329,-3.0054,-3.0495,-3.0954,-3.1464,-3.1575,-3.2231,-3.3097,-3.2546,-3.1977,-3.1457,-3.1457,-3.0397,-2.9099,-2.9099,-2.8844,-2.8587,-2.8587,-2.8341,-2.8079,-2.8079,-2.8249,-2.8352,-2.7656,-2.7946,-2.8492,-2.8498,-2.8466,-2.8664,-2.9358,-2.8983,-2.8878,-3.024,-2.9407,-2.8917,-3.0208,-2.995,-2.9445,-2.9521,-2.949,0.0,0.0,-2.9505,-2.9016,-2.7643,-2.7523,-2.7456,-2.7469,-2.6985,-2.6714,-2.6658,-2.6151,-2.5861,-2.5861,-2.53,-2.4933,-2.4933,-2.4467,-2.42,-2.42,-2.42,-2.4189,-2.42,-2.374,-2.3372,-2.3001,-2.2553,-2.3043,-2.4108,-2.4108,-2.4992,-2.6533,-2.6533,-2.6533,-2.6533,-2.6533,-2.6589,-2.6714,-2.6676,-2.6658,-2.6772,-3.702,-3.669,-3.6169,-3.5334,-3.5137,-3.5368,-3.6045,-3.6338,-3.6492,-3.6492,-3.6892,-3.7246,-3.7477,-3.7908,-3.8188,-3.8145,-3.8145,-3.7972,-3.7597,-3.7437,-3.7075,-3.6401,-3.6094,-3.5714,-3.5277,-3.5145,-3.4946,-3.4651,-3.3983,-3.3453,-3.3077,-3.2144,-3.1702,-3.1796,-3.1667,-3.1637,-3.161,-3.1901,-3.239,-3.2956,-3.3202,-3.3243,-3.3279,-3.3072,-3.237,-3.1485,-3.1485,-3.062,-2.9415,-2.9415,-2.9226,-2.8908,-2.8908,-2.8716,-2.8406,-2.8406,-2.8651,-2.8894,-2.8739,-2.9018,-2.927,-2.8794,-2.9011,-2.9351,-2.951,-2.9676,-3.009,-3.0955,-3.0464,-3.0086,-3.097,-3.0584,-3.0317,-3.0734,-3.0822,-3.0704,0.0,-2.9746,-2.9504,-2.9518,-2.8712,-2.8157,-2.8157,-2.7577,-2.7255,-2.7255,-2.6701,-2.6427,-2.6427,-2.5511,-2.5004,-2.5004,-2.4467,-2.42,-2.42,-2.42,-2.42,-2.42,-2.3824,-2.353,-2.3372,-2.3338,-2.3841,-2.4707,-2.504,-2.5767,-2.6658,-2.6658,-2.6658,-2.6658,-2.6658,-2.6726,-2.6875,-2.6782,-2.6794,-2.7108,-3.8351,-3.7796,-3.7156,-3.6315,-3.6012,-3.5984,-3.643,-3.6492,-3.6584,-3.6815,-3.723,-3.7692,-3.8169,-3.8616,-3.8882,-3.8874,-3.8859,-3.8731,-3.8527,-3.8512,-3.8327,-3.7877,-3.7631,-3.7292,-3.6861,-3.6475,-3.6152,-3.5844,-3.4973,-3.4208,-3.3655,-3.2879,-3.242,-3.2231,-3.2079,-3.2176,-3.2404,-3.2717,-3.3246,-3.4016,-3.449,-3.4356,-3.3811,-3.3582,-3.2681,-3.1485,-3.1485,-3.067,-2.9602,-2.9602,-2.9477,-2.9289,-2.9463,-2.9275,-2.9085,-2.9261,-2.9498,-2.9747,-2.9608,-2.9865,-3.0107,-2.967,-2.9897,-3.0247,-3.0332,-3.0569,-3.0881,-3.1524,-3.1131,-3.0881,-3.1582,-3.1321,-3.119,-3.1582,-3.1655,-3.1524,0.0,-3.0524,-3.0389,-3.0777,-2.9656,-2.8776,-2.8532,-2.8105,-2.7789,-2.7523,-2.7188,-2.6985,-2.6985,-2.6139,-2.5511,-2.53,-2.4743,-2.4394,-2.42,-2.42,-2.42,-2.42,-2.397,-2.3751,-2.3593,-2.3913,-2.4337,-2.5004,-2.5545,-2.6195,-2.6794,-2.6794,-2.6794,-2.6794,-2.6794,-2.693,-2.7079,-2.693,-2.733,-2.8067,-3.839,-3.7895,-3.746,-3.7417,-3.6892,-3.6492,-3.6492,-3.6522,-3.6769,-3.7415,-3.7569,-3.8092,-3.9385,-3.9554,-3.9524,-3.9565,-3.9565,-3.9262,-3.8662,-3.858,-3.8555,-3.8519,-3.7923,-3.7538,-3.7507,-3.683,-3.6492,-3.6492,-3.5813,-3.5186,-3.4461,-3.3767,-3.3023,-3.2398,-3.1951,-3.1951,-3.2419,-3.2841,-3.3577,-3.457,-3.5364,-3.5335,-3.4758,-3.4153,-3.2941,-3.1509,-3.1509,-3.0707,-2.9665,-2.9665,-2.9665,-2.9727,-3.019,-3.0129,-2.9931,-3.0404,-3.0748,-3.0925,-3.0254,-3.0555,-3.1028,-3.1043,-3.1028,-3.1233,-3.1796,-3.148,-3.1233,-3.1868,-3.148,-3.1233,-3.1868,-3.1996,-3.1996,-3.1996,-3.1996,-3.194,-3.1841,-3.1597,-3.1482,-3.1539,-3.0389,-2.9331,-2.8661,-2.8546,-2.8222,-2.759,-2.7523,-2.7523,-2.7523,-2.6985,-2.644,-2.5931,-2.5358,-2.4814,-2.4261,-2.4261,-2.4261,-2.4273,-2.4273,-2.4043,-2.3666,-2.4215,-2.4707,-2.5075,-2.5615,-2.6333,-2.7024,-2.7024,-2.7024,-2.7024,-2.7024,-2.7146,-2.7335,-2.7335,-2.8292,-2.9597,-3.9679,-3.9135,-3.8479,-3.7578,-3.6892,-3.6492,-3.6492,-3.6923,-3.7307,-3.7477,-3.8369,-3.9139,-3.9477,-3.997,-4.0262,-4.0232,-4.0232,-4.0185,-4.0009,-4.0009,-3.9772,-3.9298,-3.8576,-3.8015,-3.7507,-3.683,-3.6492,-3.6492,-3.5815,-3.5183,-3.4457,-3.3752,-3.3059,-3.2398,-3.2287,-3.2287,-3.2444,-3.3062,-3.3832,-3.4713,-3.5419,-3.5051,-3.4153,-3.3977,-3.302,-3.182,-3.182,-3.1297,-3.0613,-3.0613,-3.0613,-3.0673,-3.0792,-3.0777,-3.0732,-3.0837,-3.1131,-3.1364,-3.1306,-3.1595,-3.1766,-3.1246,-3.1507,-3.1766,-3.1349,-3.148,-3.1796,-3.194,-3.1868,-3.1796,-3.1996,-3.1996,-3.1996,-3.1996,-3.1898,-3.1898,-3.194,-3.1712,-3.1539,-3.1727,-3.1278,-3.0718,-3.0025,-2.9107,-2.8417,-2.8287,-2.7776,-2.7523,-2.7523,-2.6985,-2.6645,-2.6508,-2.5931,-2.5581,-2.5441,-2.5441,-2.5229,-2.4802,-2.4802,-2.4731,-2.4659,-2.5217,-2.5779,-2.6289,-2.6837,-2.7108,-2.7214,-2.7214,-2.7214,-2.7214,-2.7214,-2.759,-2.8208,-2.8179,-2.8739,-2.9589,-4.1342,-4.0704,-3.9952,-3.8926,-3.8511,-3.8009,-3.7094,-3.7507,-3.8046,-3.8354,-3.9046,-3.9631,-3.9924,-4.0293,-4.0524,-4.0524,-4.0524,-4.0524,-4.0524,-4.0524,-4.0347,-3.9979,-3.9041,-3.8323,-3.7954,-3.6984,-3.6492,-3.6492,-3.6107,-3.543,-3.446,-3.406,-3.3336,-3.2398,-3.2398,-3.2398,-3.2444,-3.3121,-3.3854,-3.4623,-3.5003,-3.4602,0.0,-3.3726,-3.3095,-3.2229,-3.2123,-3.1618,-3.1029,-3.1029,-3.1029,-3.1029,-3.1263,-3.1321,-3.1321,-3.1537,-3.1766,-3.1879,-3.2007,-3.212,-3.2176,-3.1849,-3.1977,-3.2176,-3.1694,-3.1879,-3.2191,-3.2191,-3.2191,-3.2191,-3.2191,-3.2191,-3.2191,-3.2191,-3.2038,-3.1996,-3.2094,-3.1868,-3.1769,-3.1883,-3.1727,-3.1467,-3.1087,-2.978,-2.8839,-2.8546,-2.7908,-2.7523,-2.7523,-2.7188,-2.6918,-2.6714,-2.6427,-2.6139,-2.5931,-2.5931,-2.5721,-2.5358,-2.5358,-2.5358,-2.5429,-2.6,-2.6427,-2.6714,-2.7255,-2.7469,-2.7403,-2.7403,-2.7403,-2.7403,-2.7723,-2.8105,-2.8597,-2.9136,-2.9608,-3.0059,-4.2774,-4.2216,-4.151,-4.0753,-4.0818,-4.0302,-3.8309,-3.8441,-3.8963,-3.9565,-3.9653,-3.9878,-4.0462,-4.0524,-4.0524,-4.0524,-4.0524,-4.0524,-4.0524,-4.0524,-4.0478,-4.0355,-3.917,-3.8477,-3.8385,-3.7138,-3.6492,-3.6492,-3.6492,-3.5799,-3.4475,-3.4475,-3.3737,-3.2398,-3.2398,-3.2398,-3.2444,-3.3121,-3.3767,-3.4337,-3.4429,-3.4163,-3.3638,-3.3456,-3.305,-3.2579,-3.243,-3.1879,-3.119,-3.119,-3.119,-3.1248,-3.1667,-3.1781,-3.1894,-3.2287,-3.2398,-3.2398,-3.2398,-3.2398,-3.2398,-3.2398,-3.2398,-3.2398,-3.2398,-3.2398,-3.2398,-3.2398,-3.2398,-3.2398,-3.2398,-3.2398,-3.2398,-3.2398,-3.2302,-3.2191,-3.2247,-3.2094,-3.1996,-3.2038,-3.1898,0.0,-3.1799,-3.0464,-2.9331,-2.8661,-2.8039,-2.759,-2.7523,-2.7523,-2.7268,-2.6794,-2.6782,-2.6577,-2.6139,-2.6139,-2.607,-2.6,-2.6,-2.6,-2.6,-2.6508,-2.6726,-2.685,-2.7323,-2.7523,-2.7523,-2.7523,-2.7523,-2.759,-2.8222,-2.8532,-2.8789,-3.004,-3.0545,-3.0733,-4.2602,-4.2428,-4.2075,-4.1359,-4.1872,-4.1972,-4.0929,-4.0498,-4.0324,-4.0354,-4.0308,-4.0401,-4.0524,-4.0524,-4.0524,-4.0524,-4.0524,-4.0524,-4.0524,-4.0524,-4.0254,-3.9683,-3.8948,-3.8246,-3.7692,-3.6892,-3.6492,-3.6492,-3.6492,-3.5799,-3.4475,-3.4475,-3.3737,-3.2398,-3.2398,-3.2398,-3.2444,-3.3121,-3.3475,-3.3644,-3.4245,-3.4063,-3.3453,-3.3387,-3.3003,-3.2425,-3.2428,-3.2272,-3.216,-3.216,-3.216,-3.216,-3.2231,-3.2287,-3.2287,-3.2398,-3.2398,-3.2398,-3.2398,-3.2398,-3.2398,-3.2398,-3.2398,-3.2398,-3.2398,-3.2398,-3.2398,-3.2398,-3.2398,-3.2398,-3.2398,-3.2398,-3.2398,-3.2398,-3.2302,-3.2247,-3.2342,-3.2135,-3.2038,-3.2135,-3.194,-3.1799,-3.1799,-3.0896,-3.0086,-2.9393,-2.8712,-2.8105,-2.7523,-2.7523,-2.7469,-2.739,-2.739,-2.7323,-2.7255,-2.7255,-2.6985,-2.6577,-2.6577,-2.6577,-2.6577,-2.6645,-2.6918,-2.7403,-2.7469,-2.7523,-2.7523,-2.7523,-2.7523,-2.759,-2.8222,-2.8839,-2.9393,-3.0233,-3.0835,-3.1367,-4.3938,-4.392,-4.3761,-4.3365,-4.3669,-4.3833,-4.3404,-4.289,-4.2154,-4.1149,-4.1006,-4.0904,-4.0524,-4.0201,-3.9994,-3.9994,-3.9673,-3.9482,-3.9482,-3.9428,-3.9344,-3.9029,-3.8342,-3.7831,-3.7507,-3.683,-3.6492,-3.6492,-3.6138,-3.546,-3.446,-3.4091,-3.3367,-3.2398,-3.2398,-3.2398,-3.2413,-3.2736,-3.2875,-3.2906,-3.326,-3.3198,-3.2875,-3.2875,-3.2675,-3.2398,-3.2398,-3.2398,-3.2398,-3.2398,-3.2398,-3.2398,-3.2398,-3.2398,-3.2398,-3.2398,-3.2398,-3.2398,-3.2398,-3.2398,-3.2398,-3.2398,-3.2398,-3.2398,-3.2398,-3.2398,-3.2398,-3.2398,-3.2398,-3.2398,-3.2398,-3.2398,-3.2398,-3.2398,-3.2342,-3.2342,-3.2398,-3.2302,-3.2247,-3.2302,-3.215,-3.1996,-3.1883,-3.1467,-3.0837,-3.0072,-2.9093,-2.8352,-2.8039,-2.7723,-2.7523,-2.7523,-2.7523,-2.7523,-2.7523,-2.7523,-2.739,-2.7121,-2.7121,-2.7121,-2.7121,-2.7121,-2.7255,-2.7523,-2.7523,-2.7523,-2.7523,-2.7523,-2.7723,-2.8105,-2.8776,-2.9456,-3.0086,-3.0762,-3.1205,-3.1482,-4.5247,-4.5177,-4.5177,-4.5032,-4.514,-4.5072,-4.4827,-4.4415,-4.3647,-4.2189,-4.1709,-4.1304,-4.0754,-3.993,-3.9496,-3.9451,-3.8849,-3.8523,-3.85,-3.8504,-3.8438,-3.828,-3.7754,-3.743,-3.7292,-3.6769,-3.6492,-3.6492,-3.5814,-3.5137,-3.446,-3.3737,-3.3044,-3.2398,-3.2398,-3.2398,-3.2398,-3.2398,-3.2398,-3.2398,-3.2398,-3.2398,-3.2398,-3.2398,-3.2398,-3.2398,-3.2398,-3.2398,-3.2398,-3.2398,-3.2398,-3.2398,-3.2398,-3.2398,-3.2398,-3.2398,-3.2398,-3.2398,-3.2398,-3.2398,-3.2398,-3.2398,-3.2398,-3.2398,-3.2398,-3.2398,-3.2398,-3.2398,-3.2398,-3.2398,-3.2398,-3.2398,-3.2398,-3.2398,-3.2398,-3.2398,-3.2398,-3.2398,-3.2398,-3.2398,-3.2302,-3.2135,-3.2038,-3.194,-3.1582,-3.0896,-2.9656,-2.8853,-2.8725,-2.8105,-2.7723,-2.7723,-2.759,-2.7523,-2.7523,-2.7523,-2.7523,-2.7523,-2.7523,-2.7523,-2.7523,-2.7523,-2.7523,-2.7523,-2.7523,-2.7523,-2.7523,-2.7656,-2.8039,-2.8597,-2.9393,-3.0011,-3.0584,-3.1219,-3.1482,-3.1482,-4.5247,-4.5177,-4.5177,-4.5032,-4.514,-4.49,-4.4143,-4.4076,-4.396,-4.3623,-4.2441,-4.1549,-4.1335,-4.0182,-3.939,-3.9373,-3.8827,-3.8491,-3.8529,-3.8482,-3.8216,-3.7639,-3.7542,-3.7215,-3.6599,-3.6522,-3.6492,-3.6492,-3.5814,-3.5137,-3.446,-3.3737,-3.3044,-3.2398,-3.2398,-3.2398,-3.2398,-3.2398,-3.2398,-3.2398,-3.2398,-3.2398,-3.2398,-3.2398,-3.2398,-3.2398,-3.2398,-3.2398,-3.2398,-3.2398,-3.2398,-3.2398,-3.2398,-3.2398,-3.2398,-3.2398,-3.2398,-3.2398,-3.2398,-3.2398,-3.2398,-3.2398,-3.2398,-3.2398,-3.2398,-3.2398,-3.2398,-3.2398,-3.2398,-3.2398,-3.2398,-3.2398,-3.2398,-3.2398,-3.2398,-3.2398,-3.2398,-3.2398,-3.2398,-3.2398,-3.2302,-3.2206,-3.2191,-3.2038,-3.194,-3.1868,-3.0881,-3.0086,-2.9442,-2.8776,-2.8417,-2.8417,-2.7842,-2.7523,-2.7523,-2.7523,-2.7523,-2.7523,-2.7523,-2.7523,-2.7523,-2.7523,-2.7523,-2.7523,-2.7523,-2.7523,-2.7523,-2.8157,-2.8417,-2.861,-2.9903,-3.045,-3.0584,-3.1219,-3.1482,-3.1482,-4.53,-4.53,-4.5163,-4.4646,-4.4612,-4.4371,-4.358,-4.3528,-4.3494,-4.3277,-4.2239,-4.1403,-4.09,-3.9978,-3.9329,-3.9361,-3.8748,-3.8352,-3.8372,-3.803,-3.7733,-3.7424,-3.708,-3.6769,-3.6492,-3.6492,-3.6292,-3.5891,-3.5214,-3.4522,-3.3814,-3.3121,-3.2659,-3.2398,-3.2398,-3.2398,-3.2398,-3.2398,-3.2398,-3.2398,-3.2398,-3.2398,-3.2398,-3.2398,-3.2398,-3.2398,-3.2398,-3.2398,-3.2398,-3.2398,-3.2398,-3.2398,-3.2398,-3.2398,-3.2398,-3.2398,-3.2398,-3.2398,-3.2398,-3.2398,-3.2398,-3.2398,-3.2398,-3.2398,-3.2398,-3.2398,-3.2398,-3.2398,-3.2398,-3.2398,-3.2398,-3.2398,-3.2398,-3.2398,-3.2398,-3.2398,-3.2398,-3.2398,-3.2398,-3.2398,-3.2342,-3.2302,-3.2191,-3.2135,-3.2094,-3.1996,-3.119,-3.0389,-2.969,-2.9331,-2.8712,-2.7908,-2.839,-2.8338,-2.7523,-2.7908,-2.7908,-2.7523,-2.7523,-2.7523,-2.7523,-2.7523,-2.7523,-2.7523,-2.7908,-2.8105,-2.8157,-2.8839,-2.9331,-2.978,-3.0269,-3.0777,-3.1146,-3.1409,-3.1482,-3.1482,-4.513,-4.5096,-4.4837,-4.4096,-4.4008,-4.3699,-4.294,-4.2869,-4.2733,-4.2393,-4.1714,-4.1151,-4.0829,-3.9908,-3.9306,-3.9344,-3.8707,-3.8278,-3.8321,-3.7867,-3.7598,-3.7414,-3.698,-3.6662,-3.6492,-3.6307,-3.5953,-3.5476,-3.4583,-3.3906,-3.3398,-3.2705,-3.2398,-3.2398,-3.2398,-3.2398,-3.2398,-3.2398,-3.2398,-3.2398,-3.2398,-3.2398,-3.2398,-3.2398,-3.2398,-3.2398,-3.2398,-3.2398,-3.2398,-3.2398,-3.2398,-3.2398,-3.2398,-3.2398,-3.2398,-3.2398,-3.2398,-3.2398,-3.2398,-3.2398,-3.2398,-3.2398,-3.2398,-3.2398,-3.2398,-3.2398,-3.2398,-3.2398,-3.2398,-3.2398,-3.2398,-3.2398,-3.2398,-3.2398,-3.2398,-3.2398,-3.2398,-3.2398,-3.2398,-3.2398,-3.2398,-3.2342,-3.2247,-3.2247,-3.2247,-3.2135,-3.1495,-3.0955,-3.0389,-3.0011,-2.9393,-2.8403,-2.9142,-2.9079,-2.8078,-2.8352,-2.8287,-2.7776,-2.759,-2.7523,-2.7523,-2.7523,-2.759,-2.7842,-2.8287,-2.8597,-2.8839,-2.9518,-3.0072,-3.0524,-3.0718,-3.1087,-3.1482,-3.1482,-3.1482,-3.1482,-4.4577,-4.4285,-4.4061,-4.337,-4.3232,-4.2973,-4.213,-4.1992,-4.1733,-4.1009,-4.0827,-4.0908,-4.1544,-4.0273,-3.9413,-3.9379,-3.8723,-3.8304,-3.8288,-3.8269,-3.8033,-3.7414,-3.7381,-3.7134,-3.6492,-3.583,-3.5491,-3.5476,-3.4091,-3.3413,-3.3398,-3.2705,-3.2398,-3.2398,-3.2398,-3.2398,-3.2398,-3.2398,-3.2398,-3.2398,-3.2398,-3.2398,-3.2398,-3.2398,-3.2398,-3.2398,-3.2398,-3.2398,-3.2398,-3.2398,-3.2398,-3.2398,-3.2398,-3.2398,-3.2398,-3.2398,-3.2398,-3.2398,-3.2398,-3.2398,-3.2398,-3.2398,-3.2398,-3.2398,-3.2398,-3.2398,-3.2398,-3.2398,-3.2398,-3.2398,-3.2398,-3.2398,-3.2398,-3.2398,-3.2398,-3.2398,-3.2398,-3.2398,-3.2398,-3.2398,-3.2398,-3.2398,-3.2398,-3.2398,-3.2398,-3.2398,-3.215,-3.194,-3.1784,-3.097,-3.0464,-3.045,-2.9827,-2.9504,-2.9504,-2.8839,-2.8481,-2.8481,-2.7842,-2.7523,-2.7523,-2.7523,-2.7842,-2.8481,-2.8481,-2.8903,-2.9566,-3.0208,-3.0524,-3.0584,-3.1219,-3.1482,-3.1482,-3.1482,-3.1482,-3.1482,-4.4459,-4.4173,-4.3724,-4.2975,-4.2597,-4.2112,-4.1354,-4.1233,-4.1147,-4.0905,-4.0871,-4.0927,-4.112,-4.0519,-4.0135,-4.0153,-3.9932,-3.978,-3.9795,-3.9394,-3.904,-3.8767,-3.7926,-3.7311,-3.6979,-3.5979,-3.5169,-3.4585,-3.3769,-3.3167,-3.2705,-3.249,-3.2398,-3.2398,-3.2398,-3.2398,-3.2398,-3.2398,-3.2398,-3.2398,-3.2398,-3.2398,-3.2398,-3.2398,-3.2398,-3.2398,-3.2398,-3.2398,-3.2398,-3.2398,-3.2398,-3.2398,-3.2398,-3.2398,-3.2398,-3.2398,-3.2398,-3.2398,-3.2398,-3.2398,-3.2398,-3.2398,-3.2398,-3.2398,-3.2398,-3.2398,-3.2398,-3.2398,-3.2398,-3.2398,-3.2398,-3.2398,-3.2398,-3.2398,-3.2398,-3.2398,-3.2398,-3.2398,-3.2398,-3.2398,-3.2398,-3.2398,-3.2398,-3.2398,-3.2398,-3.2398,-3.2247,-3.191,-3.1306,-3.1204,-3.0777,-2.9827,-3.0524,-3.0389,-2.9504,-2.9766,-2.9407,-2.8481,-2.8287,-2.8157,-2.8157,-2.8157,-2.8532,-2.9205,-2.9656,-2.9964,-3.0208,-3.0896,-3.1161,-3.1219,-3.1409,-3.1482,-3.1482,-3.1482,-3.1482,-3.1482,-4.3891,-4.3613,-4.3109,-4.2155,-4.1799,-4.1405,-4.0957,-4.0888,-4.0888,-4.0888,-4.0888,-4.0767,-4.0474,-4.0281,-4.0155,-4.0127,-4.0092,-3.997,-3.9645,-3.9272,-3.8942,-3.8603,-3.7864,-3.7216,-3.6728,-3.5716,-3.4886,-3.4218,-3.3543,-3.2996,-3.2578,-3.2453,-3.2453,-3.2578,-3.2453,-3.2398,-3.2398,-3.2398,-3.2398,-3.2398,-3.2398,-3.2398,-3.2398,-3.2398,-3.2398,-3.2398,-3.2398,-3.2398,-3.2398,-3.2398,-3.2398,-3.2398,-3.2398,-3.2398,-3.2398,-3.2398,-3.2398,-3.2398,-3.2398,-3.2398,-3.2398,-3.2398,-3.2398,-3.2398,-3.2398,-3.2398,-3.2398,-3.2398,-3.2398,-3.2398,-3.2398,-3.2398,-3.2398,-3.2398,-3.2398,-3.2398,-3.2398,-3.2398,-3.2398,-3.2398,-3.2398,-3.2398,-3.2398,-3.2398,-3.2398,-3.2342,-3.2191,-3.191,-3.1306,-3.1524,-3.1219,-3.0269,-3.1087,-3.1087,-3.0269,-3.0389,-3.0086,-2.9219,-2.8967,-2.8903,-2.8903,-2.8903,-2.9205,-2.9889,-3.0329,-3.0644,-3.0896,-3.1351,-3.1482,-3.1482,-3.1482,-3.1482,-3.1482,-3.1482,-3.1482,-3.1482,-4.3076,-4.273,-4.2321,-4.118,-4.0965,-4.0918,-4.0871,-4.0888,-4.0853,-4.0802,-4.0802,-4.0491,-3.9698,-3.9612,-3.9549,-3.9375,-3.935,-3.9046,-3.8265,-3.8213,-3.7946,-3.7384,-3.7334,-3.6903,-3.5986,-3.5243,-3.4643,-3.4311,-3.341,-3.2989,-3.2951,-3.2633,-3.2633,-3.2843,-3.2578,-3.2453,-3.2398,-3.2398,-3.2398,-3.2398,-3.2398,-3.2398,-3.2398,-3.2398,-3.2398,-3.2398,-3.2398,-3.2398,-3.2398,-3.2398,-3.2398,-3.2398,-3.2398,-3.2398,-3.2398,-3.2398,-3.2398,-3.2398,-3.2398,-3.2398,-3.2398,-3.2398,-3.2398,-3.2398,-3.2398,-3.2398,-3.2398,-3.2398,-3.2398,-3.2398,-3.2398,-3.2398,-3.2398,-3.2398,-3.2398,-3.2398,-3.2398,-3.2398,-3.2398,-3.2398,-3.2398,-3.2398,-3.2398,-3.2398,-3.2342,-3.2247,-3.2094,-3.194,-3.1841,-3.1799,-3.1727,-3.1539,-3.1482,-3.1482,-3.1482,-3.0896,-3.0524,-3.0524,-2.9827,-2.9504,-2.9566,-2.9566,-2.995,-3.0584,-3.0584,-3.0896,-3.1482,-3.1482,-3.1482,-3.1482,-3.1482,-3.1482,-3.1482,-3.1482,-3.1482,-3.1482,-4.3341,-4.3059,-4.2651,-4.1984,-4.1622,-4.1237,-4.0965,-4.0888,-4.0664,-4.0043,-3.9974,-3.9698,-3.8939,-3.8853,-3.8629,-3.8016,-3.8481,-3.8694,-3.8504,-3.8504,-3.8397,-3.8167,-3.7712,-3.7251,-3.6835,-3.578,-3.5,-3.4363,-3.4134,-3.3751,-3.3266,-3.3423,-3.3124,-3.2523,-3.2711,-3.2656,-3.2398,-3.2398,-3.2398,-3.2398,-3.2398,-3.2398,-3.2398,-3.2398,-3.2398,-3.2398,-3.2398,-3.2398,-3.2398,-3.2398,-3.2398,-3.2398,-3.2398,-3.2398,-3.2398,-3.2398,-3.2398,-3.2398,-3.2398,-3.2398,-3.2398,-3.2398,-3.2398,-3.2398,-3.2398,-3.2398,-3.2398,-3.2398,-3.2398,-3.2398,-3.2398,-3.2398,-3.2398,-3.2398,-3.2398,-3.2398,-3.2398,-3.2398,-3.2398,-3.2398,-3.2398,-3.2398,-3.2398,-3.2398,-3.2398,-3.2342,-3.2247,-3.2094,-3.194,-3.1841,-3.1727,-3.1539,-3.1482,-3.1482,-3.1482,-3.1351,-3.1029,-3.0524,-2.9827,-2.9766,-3.0269,-3.0269,-3.0644,-3.1278,-3.1278,-3.1351,-3.1482,-3.1482,-3.1482,-3.1482,-3.1482,-3.1482,-3.1482,-3.1482,-3.1482,-3.1482,-4.3232,-4.3032,-4.275,-4.2279,-4.1689,-4.112,-4.0732,-4.0346,-3.9891,-3.9295,-3.9198,-3.8905,-3.8163,-3.8094,-3.7784,-3.7008,-3.7646,-3.7922,-3.756,-3.7542,-3.7499,-3.7455,-3.712,-3.681,-3.6502,-3.5881,-3.5237,-3.4496,-3.4496,-3.4268,-3.3885,-3.3885,-3.3578,-3.2996,-3.3018,-3.2904,-3.2647,-3.2499,-3.2499,-3.2647,-3.2484,-3.2398,-3.2398,-3.2398,-3.2398,-3.2398,-3.2398,-3.2398,-3.2398,-3.2398,-3.2398,-3.2398,-3.2398,-3.2398,-3.2398,-3.2398,-3.2398,-3.2398,-3.2398,-3.2398,-3.2398,-3.2398,-3.2398,-3.2398,-3.2398,-3.2398,-3.2398,-3.2398,-3.2398,-3.2398,-3.2398,-3.2398,-3.2398,-3.2398,-3.2398,-3.2398,-3.2398,-3.2398,-3.2398,-3.2398,-3.2398,-3.2398,-3.2398,-3.2398,-3.2398,-3.2287,-3.2247,-3.2094,-3.194,-3.1841,-3.1727,-3.1539,-3.1482,-3.1482,-3.1482,-3.1482,-3.1351,-3.097,-3.0584,-3.0584,-3.097,-3.097,-3.1161,-3.1482,-3.1482,-3.1482,-3.1482,-3.1482,-3.1482,-3.1482,-3.1482,-3.1482,-3.1482,-3.1482,-3.1482,-3.1539,-4.305,-4.2904,-4.2663,-4.2181,-4.1439,-4.0762,-4.0387,-3.974,-3.9115,-3.8599,-3.8538,-3.8217,-3.7387,-3.7301,-3.7025,-3.6353,-3.6904,-3.7025,-3.6335,-3.6301,-3.6301,-3.6301,-3.6301,-3.6174,-3.5854,-3.5871,-3.5526,-3.4864,-3.4864,-3.4785,-3.4626,-3.4399,-3.4086,-3.3781,-3.3523,-3.3297,-3.306,-3.2765,-3.2796,-3.3058,-3.2765,-3.2664,-3.2648,-3.2641,-3.2602,-3.2617,-3.2563,-3.2508,-3.2453,-3.2453,-3.2453,-3.2398,-3.2398,-3.2398,-3.2398,-3.2398,-3.2398,-3.2398,-3.2398,-3.2398,-3.2398,-3.2398,-3.2398,-3.2398,-3.2398,-3.2398,-3.2398,-3.2398,-3.2398,-3.2398,-3.2398,-3.2398,-3.2398,-3.2398,-3.2398,-3.2398,-3.2398,-3.2398,-3.2398,-3.2398,-3.2398,-3.2398,-3.2398,-3.2398,-3.2342,-3.2247,-3.2191,-3.2094,-3.1841,-3.1784,-3.167,-3.1539,-3.1482,-3.1482,-3.1482,-3.1482,-3.1482,-3.1482,-3.1482,-3.1482,-3.1482,-3.1482,-3.1482,-3.1482,-3.1482,-3.1482,-3.1482,-3.1482,-3.1482,-3.1482,-3.1482,-3.1482,-3.1482,-3.1482,-3.1582,-3.1697,-4.341,-4.2878,-4.2245,-4.1795,-4.1034,-4.0363,-3.9961,-3.9793,-3.9354,-3.8333,-3.8163,-3.7742,-3.6602,-3.649,-3.6439,-3.6318,-3.6404,-3.6422,-3.6301,-3.6301,-3.6301,-3.6301,-3.6301,-3.6301,-3.6216,-3.6216,-3.6156,-3.6028,-3.6028,-3.5749,-3.5237,-3.5436,-3.5035,-3.4119,-3.4313,-3.419,-3.3803,-3.3798,-3.3778,-3.3815,-3.3925,-3.3859,-3.3744,-3.3652,-3.3559,-3.3487,-3.324,-3.3043,-3.2843,-3.2843,-3.2648,-3.2398,-3.2398,-3.2398,-3.2398,-3.2398,-3.2398,-3.2398,-3.2398,-3.2398,-3.2398,-3.2398,-3.2398,-3.2398,-3.2398,-3.2398,-3.2398,-3.2398,-3.2398,-3.2398,-3.2398,-3.2398,-3.2398,-3.2398,-3.2398,-3.2398,-3.2398,-3.2398,-3.2398,-3.2398,-3.2398,-3.2398,-3.2398,-3.2398,-3.2398,-3.2398,-3.2135,-3.1996,-3.1996,-3.1712,-3.1539,-3.1482,-3.1482,-3.1482,-3.1482,-3.1482,-3.1482,-3.1482,-3.1482,-3.1482,-3.1482,-3.1482,-3.1482,-3.1482,-3.1482,-3.1482,-3.1482,-3.1482,-3.1482,-3.1482,-3.1482,-3.1482,-3.1482,-3.1482,-3.1796,-3.2287,-4.2213,-4.1919,-4.1577,-4.1371,-4.0662,-4.0013,-3.9608,-3.9175,-3.8543,-3.7576,-3.7461,-3.7161,-3.6377,-3.6301,-3.6301,-3.6301,-3.6301,-3.6301,-3.6301,-3.6301,-3.6301,-3.6301,-3.6301,-3.6301,-3.6301,-3.6301,-3.6259,-3.6251,-3.6251,-3.6062,-3.5722,-3.5827,-3.5481,-3.4736,-3.4885,-3.4725,-3.4418,-3.4283,-3.4289,-3.4404,-3.4256,-3.4136,-3.4039,-3.3617,-3.363,-3.3815,-3.3491,-3.3439,-3.3594,-3.3403,-3.3282,-3.3124,-3.2942,-3.2904,-3.285,-3.2703,-3.2523,-3.2398,-3.2398,-3.2398,-3.2398,-3.2398,-3.2398,-3.2398,-3.2398,-3.2398,-3.2398,-3.2398,-3.2398,-3.2398,-3.2398,-3.2398,-3.2398,-3.2398,-3.2398,-3.2398,-3.2398,-3.2398,-3.2398,-3.2398,-3.2398,-3.2398,-3.2398,-3.2398,-3.2398,-3.2398,-3.2302,-3.2135,-3.1996,-3.1883,-3.1712,-3.1539,-3.1482,-3.1482,-3.1482,-3.1482,-3.1482,-3.1482,-3.1482,-3.1482,-3.1482,-3.1482,-3.1482,-3.1482,-3.1482,-3.1482,-3.1482,-3.1482,-3.1482,-3.1482,-3.1482,-3.1697,-3.1951,-3.1951,-3.2327,-3.2895,-4.1111,-4.0965,-4.0836,-4.0836,-4.0157,-3.9511,-3.9195,-3.8634,-3.7982,-3.7266,-3.7094,-3.69,-3.6492,-3.6385,-3.6301,-3.6301,-3.6301,-3.6301,-3.6301,-3.6301,-3.6301,-3.6301,-3.6301,-3.6301,-3.6301,-3.6301,-3.6259,-3.6208,-3.6208,-3.6165,-3.6062,-3.6062,-3.5854,-3.5419,-3.5419,-3.5295,-3.5069,-3.4844,-3.4891,-3.5052,-3.4767,-3.4662,-3.4576,-3.4037,-3.4053,-3.4333,-3.3869,-3.3853,-3.4053,-3.3783,-3.3681,-3.363,-3.3224,-3.333,-3.3471,-3.3081,-3.2904,-3.2711,-3.264,-3.2499,-3.2484,-3.2693,-3.2561,-3.2413,-3.2545,-3.2499,-3.2398,-3.2398,-3.2398,-3.2398,-3.2398,-3.2398,-3.2398,-3.2398,-3.2398,-3.2398,-3.2398,-3.2398,-3.2398,-3.2398,-3.2398,-3.2398,-3.2398,-3.2398,-3.2398,-3.2398,-3.2398,-3.2231,-3.2038,-3.2053,-3.1883,-3.1597,-3.1539,-3.1482,-3.1482,-3.1482,-3.1482,-3.1482,-3.1482,-3.1482,-3.1482,-3.1482,-3.1482,-3.1482,-3.1482,-3.1482,-3.1482,-3.1614,-3.1727,-3.1732,-3.1883,-3.2165,-3.2602,-3.2602,-3.2949,-3.3475,-4.1111,-4.0506,-3.9992,-3.9992,-3.9313,-3.8799,-3.875,-3.8695,-3.8515,-3.8068,-3.7685,-3.7321,-3.69,-3.6533,-3.6301,-3.6301,-3.6301,-3.6301,-3.6301,-3.6301,-3.6301,-3.6301,-3.6301,-3.6301,-3.6301,-3.6301,-3.6301,-3.6301,-3.6301,-3.6301,-3.6301,-3.6301,-3.6233,-3.6122,-3.6122,-3.6053,-3.5922,-3.5907,-3.5874,-3.5941,-3.6002,-3.5977,-3.5827,-3.5677,-3.5543,-3.5424,-3.4835,-3.4267,-3.3783,-3.3435,-3.3403,-3.3339,-3.2641,-3.3303,-3.4202,-3.3391,-3.3511,-3.3797,-3.3248,-3.2795,-3.2647,-3.3614,-3.3137,-3.253,-3.3005,-3.2779,-3.2398,-3.2398,-3.2398,-3.2398,-3.2398,-3.2398,-3.2398,-3.2398,-3.2398,-3.2398,-3.2398,-3.2398,-3.2398,-3.2398,-3.2398,-3.2398,-3.2398,-3.2398,-3.2398,-3.2398,-3.2287,-3.2191,-3.2191,-3.2038,-3.194,-3.1784,-3.1597,-3.1482,-3.1482,-3.1482,-3.1482,-3.1482,-3.1482,-3.1482,-3.1482,-3.1482,-3.1482,-3.1482,-3.1482,-3.1482,-3.1554,-3.2116,-3.2338,-3.2404,-3.2897,-3.3083,-3.3145,-3.3145,-3.3527,-3.4034,-3.9625,-3.9368,-3.9166,-3.9166,-3.8909,-3.8707,-3.8707,-3.8707,-3.8564,-3.8135,-3.7966,-3.7721,-3.7321,-3.69,-3.6678,-3.6678,-3.6451,-3.6301,-3.6301,-3.6301,-3.6301,-3.6301,-3.6301,-3.6301,-3.6301,-3.6301,-3.6301,-3.6301,-3.6301,-3.6301,-3.6301,-3.6301,-3.6301,-3.6276,-3.6276,-3.6233,-3.6174,-3.6199,-3.6207,-3.6172,-3.6199,-3.6191,-3.6062,-3.5633,-3.5588,-3.58,-3.5316,-3.5207,-3.5237,-3.4975,-3.4847,-3.4783,-3.4317,-3.4512,-3.48,-3.4333,-3.4137,-3.4152,-3.4293,-3.361,-3.3003,-3.3404,-3.2942,-3.2447,-3.2664,-3.2545,-3.2398,-3.2398,-3.2398,-3.2398,-3.2398,-3.2398,-3.2398,-3.2398,-3.2398,-3.2398,-3.2398,-3.2398,-3.2398,-3.2398,-3.2398,-3.2398,-3.2398,-3.2398,-3.2398,-3.2398,-3.2342,-3.2302,-3.2191,-3.1996,-3.1841,-3.1799,-3.1597,-3.1482,-3.1482,-3.1482,-3.1482,-3.1482,-3.1482,-3.1482,-3.1482,-3.1482,-3.1482,-3.1524,-3.191,-3.2046,-3.2116,-3.268,-3.2884,-3.2924,-3.3099,-3.3409,-3.3758,-3.3729,-3.4118,-3.4594,-3.8707,-3.8707,-3.8707,-3.8707,-3.8707,-3.8707,-3.8707,-3.8707,-3.8596,-3.8318,-3.8186,-3.7982,-3.7721,-3.7321,-3.7094,-3.7094,-3.6821,-3.6638,-3.6492,-3.6385,-3.6301,-3.6301,-3.6301,-3.6301,-3.6301,-3.6301,-3.6301,-3.6301,-3.6301,-3.6301,-3.6301,-3.6301,-3.6301,-3.6301,-3.6301,-3.6301,-3.6301,-3.6301,-3.6301,-3.6301,-3.6233,-3.6251,-3.6191,-3.5705,-3.5749,-3.6045,-3.5661,-3.5722,-3.5915,-3.5571,-3.5571,-3.5571,-3.5098,-3.5052,-3.5207,-3.5237,-3.5018,-3.4833,-3.5221,-3.4411,-3.3566,-3.3884,-3.3443,-3.2886,-3.2895,-3.2757,-3.2586,-3.2437,-3.2398,-3.2398,-3.2398,-3.2398,-3.2398,-3.2398,-3.2398,-3.2398,-3.2398,-3.2398,-3.2398,-3.2398,-3.2547,-3.2641,-3.2641,-3.2803,-3.2911,-3.2911,-3.2749,-3.2586,-3.2547,-3.2437,-3.2453,-3.2453,-3.2256,-3.2048,-3.1853,-3.164,-3.1482,-3.1482,-3.1697,-3.1796,-3.1796,-3.1951,-3.2038,-3.2057,-3.2468,-3.2659,-3.268,-3.3244,-3.3504,-3.3508,-3.3681,-3.3974,-3.4364,-3.4333,-3.4594,-3.4899,-3.8707,-3.8707,-3.8707,-3.8707,-3.8707,-3.8707,-3.8707,-3.8707,-3.8707,-3.8707,-3.8368,-3.8101,-3.8101,-3.7739,-3.7505,-3.7505,-3.7505,-3.7303,-3.6939,-3.6533,-3.6301,-3.6301,-3.6301,-3.6301,-3.6301,-3.6301,-3.6301,-3.6301,-3.6301,-3.6301,-3.6301,-3.6301,-3.6301,-3.6301,-3.6301,-3.6301,-3.6301,-3.6301,-3.6301,-3.6301,-3.6301,-3.6301,-3.6301,-3.6301,-3.6301,-3.6259,-3.5898,-3.5616,-3.5328,-3.4925,-3.5081,-3.5283,-3.4624,-3.4783,-3.5328,-3.6019,-3.6122,-3.5993,-3.599,-3.5138,-3.4435,-3.535,-3.4772,-3.3984,-3.3986,-3.3582,-3.3039,-3.2492,-3.2398,-3.2398,-3.2398,-3.2382,-3.2398,-3.2398,-3.2398,-3.2398,-3.2382,-3.2382,-3.2382,-3.2382,-3.2895,-3.3198,-3.3198,-3.3665,-3.3986,-3.3986,-3.3511,-3.3198,-3.3198,-3.3582,-3.3786,-3.3786,-3.3684,-3.3287,-3.2602,-3.1853,-3.1539,-3.1539,-3.212,-3.2398,-3.2382,-3.2949,-3.3165,-3.317,-3.3187,-3.3193,-3.3257,-3.3871,-3.4097,-3.418,-3.4703,-3.4899,-3.4899,-3.4899,-3.4899,-3.4899,-3.8707,-3.8707,-3.8707,-3.8707,-3.8707,-3.8707,-3.8707,-3.8707,-3.8707,-3.8707,-3.8596,-3.8515,-3.8515,-3.8168,-3.7913,-3.7913,-3.7395,-3.69,-3.6492,-3.6385,-3.6301,-3.6301,-3.6301,-3.6301,-3.6301,-3.6301,-3.6301,-3.6301,-3.6301,-3.6301,-3.6301,-3.6301,-3.6301,-3.6301,-3.6301,-3.6301,-3.6301,-3.6301,-3.6301,-3.6301,-3.6301,-3.6301,-3.6301,-3.6301,-3.6301,-3.6301,-3.6174,-3.6114,-3.6011,-3.5881,-3.5924,-3.6028,-3.582,-3.582,-3.6028,-3.6216,-3.6191,-3.614,-3.6131,-3.583,-3.5313,-3.4743,-3.3758,-3.287,-3.2895,-3.2742,-3.2586,-3.2437,-3.2398,-3.2398,-3.2398,-3.2687,-3.2961,-3.2986,-3.3263,-3.3529,-3.3539,-3.3527,-3.3527,-3.3527,-3.3665,-3.3767,-3.3767,-3.3935,-3.3986,-3.3986,-3.3869,-3.3767,-3.3767,-3.3802,-3.3786,-3.3786,-3.3684,-3.3339,-3.2749,-3.2437,-3.2007,-3.1482,-3.1697,-3.1739,-3.1796,-3.2382,-3.2633,-3.2695,-3.3471,-3.3814,-3.3855,-3.4443,-3.4676,-3.4686,-3.4849,-3.4899,-3.4899,-3.4899,-3.4899,-3.4899,-3.8707,-3.8707,-3.8707,-3.8707,-3.8707,-3.8707,-3.8707,-3.8707,-3.8707,-3.8707,-3.8707,-3.8707,-3.8707,-3.8483,-3.8336,-3.8336,-3.7756,-3.7283,-3.7017,-3.686,-3.6719,-3.6516,-3.6533,-3.6451,-3.6301,-3.6301,-3.6301,-3.6301,-3.6301,-3.6301,-3.6301,-3.6301,-3.6301,-3.6301,-3.6301,-3.6301,-3.6301,-3.6301,-3.6301,-3.6301,-3.6301,-3.6301,-3.6301,-3.6301,-3.6301,-3.6301,-3.6301,-3.6301,-3.6301,-3.6301,-3.6301,-3.6301,-3.6301,-3.6301,-3.6301,-3.6301,-3.6276,-3.6251,-3.6217,-3.5933,-3.5508,-3.4706,-3.4137,-3.3689,-3.3391,-3.3355,-3.3319,-3.3055,-3.3002,-3.3002,-3.3002,-3.3308,-3.355,-3.3495,-3.3798,-3.4018,-3.3989,-3.3989,-3.3989,-3.3989,-3.417,-3.4333,-3.4333,-3.4529,-3.4529,-3.4333,-3.4529,-3.4529,-3.4333,-3.4464,-3.4496,-3.4496,-3.4447,-3.4103,-3.3547,-3.3443,-3.2933,-3.2007,-3.2461,-3.2625,-3.2571,-3.3214,-3.3439,-3.3439,-3.4134,-3.4414,-3.4443,-3.479,-3.4899,-3.4899,-3.4899,-3.4899,-3.4899,-3.4899,-3.4899,-3.4899,-3.8707,-3.8707,-3.8707,-3.8707,-3.8707,-3.8707,-3.8707,-3.8707,-3.8707,-3.8707,-3.8707,-3.8707,-3.8707,-3.8707,-3.8707,-3.8707,-3.8336,-3.8101,-3.8068,-3.7685,-3.7358,-3.6978,-3.6939,-3.6781,-3.6409,-3.6343,-3.6301,-3.6301,-3.6301,-3.6301,-3.6301,-3.6301,-3.6301,-3.6301,-3.6301,-3.6301,-3.6301,-3.6301,-3.6301,-3.6301,-3.6301,-3.6301,-3.6301,-3.6301,-3.6301,-3.6301,-3.6301,-3.6301,-3.6301,-3.6301,-3.6301,-3.6301,-3.6301,-3.6301,-3.6301,-3.6301,-3.6301,-3.6276,-3.6242,-3.5736,-3.5254,-3.5111,-3.5429,-3.563,-3.4903,-3.4721,-3.4577,-3.4086,-3.3986,-3.3986,-3.3986,-3.4036,-3.4086,-3.4086,-3.4088,-3.4136,-3.4136,-3.4136,-3.4136,-3.4136,-3.4589,-3.488,-3.488,-3.5316,-3.5424,-3.4927,-3.5316,-3.5379,-3.488,-3.5316,-3.5622,-3.5622,-3.5622,-3.5299,-3.4624,-3.4688,-3.4087,-3.2895,-3.3869,-3.4219,-3.4136,-3.4723,-3.4947,-3.4851,-3.4899,-3.4899,-3.4899,-3.4899,-3.4899,-3.4899,-3.4899,-3.4899,-3.4899,-3.4899,-3.4899,-3.4883,-3.8707,-3.8707,-3.8707,-3.8707,-3.8707,-3.8707,-3.8707,-3.8707,-3.8707,-3.8707,-3.8707,-3.8707,-3.8707,-3.8707,-3.8707,-3.8707,-3.8336,-3.7966,-3.765,-3.7542,-3.7469,-3.7377,-3.7395,-3.7321,-3.7246,-3.6638,-3.6301,-3.6301,-3.6301,-3.6301,-3.6301,-3.6301,-3.6301,-3.6301,-3.6301,-3.6301,-3.6301,-3.6301,-3.6301,-3.6301,-3.6301,-3.6301,-3.6301,-3.6301,-3.6301,-3.6301,-3.6301,-3.6301,-3.6301,-3.6301,-3.6301,-3.6301,-3.6301,-3.6301,-3.6301,-3.6301,-3.6301,-3.6301,-3.6276,-3.6148,-3.5949,-3.5808,-3.579,-3.5496,-3.4431,-3.4185,-3.4136,-3.402,-3.3986,-3.3986,-3.3986,-3.4333,-3.4625,-3.4625,-3.4971,-3.5232,-3.5232,-3.5232,-3.5232,-3.5232,-3.5345,-3.5424,-3.5424,-3.5515,-3.556,-3.5424,-3.5515,-3.5577,-3.5424,-3.5532,-3.5622,-3.5622,-3.5622,-3.5316,-3.4769,-3.5161,-3.4657,-3.3287,-3.3495,-3.3547,-3.3459,-3.4018,-3.43,-3.43,-3.4691,-3.4899,-3.4899,-3.4899,-3.4899,-3.4899,-3.4899,-3.4899,-3.4899,-3.4899,-3.4899,-3.48,-3.8707,-3.8707,-3.8707,-3.8707,-3.8707,-3.8707,-3.8707,-3.8707,-3.8707,-3.8707,-3.8707,-3.8707,-3.8707,-3.8707,-3.8707,-3.8707,-3.8515,-3.8285,-3.8101,-3.8068,-3.8,-3.7791,-3.7809,-3.7685,-3.7505,-3.7094,-3.686,-3.686,-3.686,-3.686,-3.686,-3.686,-3.6748,-3.6609,-3.6609,-3.6481,-3.6301,-3.6301,-3.6301,-3.6301,-3.6301,-3.6301,-3.6301,-3.6301,-3.6301,-3.6301,-3.6301,-3.6301,-3.6301,-3.6301,-3.6301,-3.6301,-3.6301,-3.6301,-3.6301,-3.6301,-3.6301,-3.6284,-3.6266,-3.6216,-3.6174,-3.6031,-3.5953,-3.5718,-3.4927,-3.4769,-3.4769,-3.4769,-3.4769,-3.4769,-3.4769,-3.4975,-3.5178,-3.5178,-3.5424,-3.5622,-3.5622,-3.5622,-3.5622,-3.5622,-3.5622,-3.5622,-3.5622,-3.5622,-3.5622,-3.5622,-3.5622,-3.5622,-3.5622,-3.5622,-3.5622,-3.5622,-3.5622,-3.547,-3.5178,-3.547,-3.5178,-3.4382,-3.4415,-3.4415,-3.4284,-3.4626,-3.4691,-3.4594,-3.4899,-3.4947,-3.4899,-3.4899,-3.4899,-3.4899,-3.4899,-3.4899,-3.4899,-3.4899,-3.4686,-3.4261,-3.8707,-3.8707,-3.8707,-3.8707,-3.8707,-3.8707,-3.8707,-3.8707,-3.8707,-3.8707,-3.8707,-3.8707,-3.8707,-3.8707,-3.8707,-3.8707,-3.8707,-3.8707,-3.8707,-3.8707,-3.8546,-3.8219,-3.8219,-3.8034,-3.7721,-3.7703,-3.765,-3.7505,-3.7505,-3.7505,-3.7505,-3.7432,-3.7235,-3.6891,-3.6807,-3.6627,-3.6301,-3.6301,-3.6301,-3.6301,-3.6301,-3.6301,-3.6301,-3.6301,-3.6301,-3.6301,-3.6301,-3.6301,-3.6301,-3.6301,-3.6301,-3.6301,-3.6301,-3.6301,-3.6301,-3.6301,-3.6301,-3.6284,-3.6249,-3.6232,-3.6165,-3.6061,-3.6044,-3.5932,-3.5711,-3.5667,-3.5622,-3.5622,-3.5622,-3.5622,-3.5622,-3.5622,-3.5622,-3.5622,-3.5622,-3.5622,-3.5622,-3.5622,-3.5622,-3.5622,-3.5622,-3.5622,-3.5622,-3.5622,-3.5622,-3.5622,-3.5622,-3.5622,-3.5622,-3.5622,-3.5622,-3.5622,-3.5622,-3.5622,-3.5622,-3.5622,-3.5594,-3.5537,-3.5594,-3.5549,-3.5446,-3.5446,-3.5291,-3.5041,-3.5041,-3.4994,-3.4899,-3.4899,-3.4816,-3.47,-3.47,-3.4618,-3.4518,-3.4506,-3.4112,-3.3502,-3.8707,-3.8707,-3.8707,-3.8707,-3.8707,-3.8707,-3.8707,-3.8707,-3.8707,-3.8707,-3.8707,-3.8707,-3.8707,-3.8707,-3.8707,-3.8707,-3.8707,-3.8707,-3.8707,-3.8707,-3.8676,-3.8627,-3.8627,-3.8596,-3.8546,-3.8546,-3.8219,-3.7505,-3.7505,-3.7505,-3.7505,-3.7114,-3.6956,-3.6891,-3.6561,-3.6335,-3.6301,-3.6301,-3.6301,-3.6301,-3.6301,-3.6301,-3.6301,-3.6301,-3.6301,-3.6301,-3.6301,-3.6301,-3.6301,-3.6301,-3.6301,-3.6301,-3.6301,-3.6301,-3.6301,-3.6301,-3.6301,-3.6301,-3.6284,-3.6249,-3.6207,-3.62,-3.6096,-3.5975,-3.5932,-3.5861,-3.5728,-3.5622,-3.5622,-3.5622,-3.5622,-3.5622,-3.5622,-3.5622,-3.5622,-3.5622,-3.5622,-3.5622,-3.5622,-3.5622,-3.5622,-3.5622,-3.5622,-3.5622,-3.5622,-3.5622,-3.5622,-3.5622,-3.5622,-3.5622,-3.5622,-3.5622,-3.5622,-3.5622,-3.5622,-3.5622,-3.5577,-3.5577,-3.5577,-3.5441,-3.5152,-3.5152,-3.5088,-3.4947,-3.4947,-3.4899,-3.4899,-3.4899,-3.4532,-3.3948,-3.3948,-3.3553,-3.2982,-3.2992,-3.2937,-3.2731,-3.895,-3.8921,-3.8881,-3.8738,-3.8707,-3.8707,-3.8707,-3.8707,-3.8707,-3.8707,-3.8707,-3.8707,-3.8707,-3.8707,-3.8707,-3.8707,-3.8707,-3.8707,-3.8707,-3.8707,-3.8707,-3.8707,-3.8707,-3.8707,-3.8707,-3.8707,-3.8515,-3.8186,-3.8186,-3.8186,-3.8186,-3.7982,-3.7809,-3.7578,-3.7374,-3.7185,-3.6978,-3.6729,-3.6626,-3.6597,-3.6367,-3.6301,-3.6301,-3.6301,-3.6301,-3.6301,-3.6301,-3.6301,-3.6301,-3.6301,-3.6301,-3.6301,-3.6301,-3.6301,-3.6301,-3.6301,-3.6301,-3.6301,-3.6301,-3.6284,-3.6284,-3.6251,-3.6191,-3.6148,-3.6122,-3.6079,-3.5949,-3.5756,-3.5711,-3.5684,-3.5622,-3.5622,-3.5622,-3.5622,-3.5622,-3.5622,-3.5622,-3.5622,-3.5622,-3.5622,-3.5622,-3.5622,-3.5622,-3.5622,-3.5622,-3.5622,-3.5622,-3.5622,-3.5622,-3.5622,-3.5622,-3.5622,-3.5622,-3.5622,-3.5622,-3.5622,-3.5622,-3.5622,-3.5182,-3.5127,-3.5367,-3.5367,-3.5107,-3.4545,-3.4551,-3.4297,-3.3856,-3.3865,-3.3656,-3.3349,-3.3322,-3.309,-3.2779,-3.2427,-3.229,-3.2219]}]]